[[{"header":{"parameterUnit":"m.s-1","parameterCategory":1,"la1":30.6,"la2":29.2853,"lo1":-89.7004,"lo2":-87.6739,"dy":0.0162,"dx":0.0183,"nx":112,"ny":82,"refTime":"2023-08-31T06:00:00:Z","depth":0,"parameterNumber":2,"parameterNumberName":"U-component_of_WINDS"},"data":[0.0,0.0,0.0,0.0,0.0,0.0,0.0,0.0,0.0,0.0,0.0,0.0,0.0,0.0,0.0,0.0,0.0,0.0,0.0,0.0,0.0,0.0,0.0,0.0,0.0,0.0,0.0,0.0,0.0,0.0,0.0,0.0,0.0,0.0,0.0,0.0,0.0,0.0,0.0,0.0,0.0,0.0,0.0,0.0,0.0,0.0,0.0,0.0,0.0,0.0,0.0,0.0,0.0,0.0,0.0,0.0,0.0,0.0,0.0,0.0,0.0,0.0,0.0,0.0,0.0,0.0,0.0,0.0,0.0,0.0,0.0,0.0,0.0,0.0,0.0,0.0,0.0,0.0,0.0,0.0,0.0,0.0,0.0,0.0,0.0,0.0,0.0,0.0,0.0,0.0,-1.8003,-1.8003,-1.8214,-1.8352,-1.8352,-1.8228,-1.8183,-1.8226,0.0,0.0,0.0,0.0,0.0,0.0,0.0,0.0,0.0,0.0,0.0,0.0,0.0,0.0,0.0,0.0,0.0,0.0,0.0,0.0,0.0,0.0,0.0,0.0,0.0,0.0,0.0,0.0,0.0,0.0,0.0,0.0,0.0,0.0,0.0,0.0,0.0,0.0,0.0,0.0,0.0,0.0,0.0,0.0,0.0,0.0,0.0,0.0,0.0,0.0,0.0,0.0,0.0,0.0,0.0,0.0,0.0,0.0,0.0,0.0,0.0,0.0,0.0,0.0,0.0,0.0,0.0,0.0,0.0,0.0,0.0,0.0,0.0,0.0,0.0,0.0,0.0,0.0,0.0,0.0,0.0,0.0,0.0,0.0,0.0,0.0,0.0,0.0,0.0,0.0,0.0,0.0,0.0,0.0,0.0,0.0,0.0,0.0,0.0,0.0,0.0,0.0,0.0,0.0,-1.94,-1.94,-1.943,-1.9459,-1.9459,-1.8845,-1.8527,-1.8753,0.0,0.0,0.0,0.0,0.0,0.0,0.0,0.0,0.0,0.0,0.0,0.0,0.0,0.0,0.0,0.0,0.0,0.0,0.0,0.0,0.0,0.0,0.0,0.0,0.0,0.0,0.0,0.0,0.0,0.0,0.0,0.0,0.0,0.0,0.0,0.0,0.0,0.0,0.0,0.0,0.0,0.0,0.0,0.0,0.0,0.0,0.0,0.0,0.0,0.0,0.0,0.0,0.0,0.0,0.0,0.0,0.0,0.0,0.0,0.0,0.0,0.0,0.0,0.0,0.0,0.0,0.0,0.0,0.0,0.0,0.0,0.0,0.0,0.0,0.0,0.0,0.0,0.0,0.0,0.0,0.0,0.0,0.0,0.0,0.0,0.0,0.0,0.0,0.0,0.0,0.0,0.0,0.0,0.0,0.0,0.0,0.0,0.0,0.0,0.0,0.0,0.0,0.0,-1.9029,-1.9209,-1.9358,-1.922,-1.919,-1.9358,-1.8859,-1.8607,-1.8725,-1.7198,0.0,0.0,0.0,0.0,0.0,0.0,0.0,0.0,0.0,0.0,0.0,0.0,0.0,0.0,0.0,0.0,0.0,0.0,0.0,0.0,0.0,0.0,0.0,0.0,0.0,0.0,0.0,0.0,0.0,0.0,0.0,0.0,0.0,0.0,0.0,0.0,0.0,0.0,0.0,0.0,0.0,0.0,0.0,0.0,0.0,0.0,0.0,0.0,0.0,0.0,0.0,0.0,0.0,0.0,0.0,0.0,0.0,0.0,0.0,0.0,0.0,0.0,0.0,0.0,0.0,0.0,0.0,0.0,0.0,0.0,0.0,0.0,0.0,0.0,0.0,0.0,0.0,0.0,0.0,0.0,0.0,0.0,0.0,0.0,0.0,0.0,0.0,0.0,0.0,0.0,0.0,0.0,0.0,0.0,0.0,0.0,0.0,0.0,0.0,0.0,0.0,0.0,-1.8964,-1.9026,-1.9321,-1.9118,-1.9056,-1.9321,-1.8927,-1.8689,-1.8781,-1.749,0.0,0.0,0.0,0.0,0.0,0.0,0.0,0.0,0.0,0.0,0.0,0.0,0.0,0.0,0.0,0.0,0.0,0.0,0.0,0.0,0.0,0.0,0.0,0.0,0.0,0.0,0.0,0.0,0.0,0.0,0.0,0.0,0.0,0.0,0.0,0.0,0.0,0.0,0.0,0.0,0.0,0.0,0.0,0.0,0.0,0.0,0.0,0.0,0.0,0.0,0.0,0.0,0.0,0.0,0.0,0.0,0.0,0.0,0.0,0.0,0.0,0.0,0.0,0.0,0.0,0.0,0.0,0.0,0.0,0.0,0.0,0.0,0.0,0.0,0.0,0.0,0.0,0.0,0.0,0.0,0.0,0.0,0.0,0.0,0.0,0.0,0.0,0.0,0.0,0.0,0.0,0.0,0.0,0.0,0.0,0.0,0.0,0.0,0.0,0.0,0.0,0.0,-1.9727,-1.9662,-1.9998,-1.9998,-1.9998,-2.003,-1.9318,-1.9008,-1.9333,-1.8558,0.0,0.0,0.0,0.0,0.0,0.0,0.0,0.0,0.0,0.0,0.0,0.0,0.0,0.0,0.0,0.0,0.0,0.0,0.0,0.0,0.0,0.0,0.0,0.0,0.0,0.0,0.0,0.0,0.0,0.0,0.0,0.0,0.0,0.0,0.0,0.0,0.0,0.0,0.0,0.0,0.0,0.0,0.0,0.0,0.0,0.0,0.0,0.0,0.0,0.0,0.0,0.0,0.0,0.0,0.0,0.0,0.0,0.0,0.0,0.0,0.0,0.0,0.0,0.0,0.0,0.0,0.0,0.0,0.0,0.0,0.0,0.0,0.0,0.0,0.0,0.0,0.0,0.0,0.0,0.0,0.0,0.0,0.0,0.0,0.0,0.0,0.0,0.0,0.0,0.0,0.0,0.0,0.0,0.0,0.0,0.0,0.0,0.0,0.0,0.0,0.0,0.0,-1.9671,-1.9638,-1.9758,-1.9594,-1.9561,-1.9758,-1.9337,-1.9078,-1.9209,0.0,0.0,0.0,0.0,0.0,0.0,0.0,0.0,0.0,0.0,0.0,0.0,0.0,0.0,0.0,0.0,0.0,0.0,0.0,0.0,0.0,0.0,0.0,0.0,0.0,0.0,0.0,0.0,0.0,0.0,0.0,0.0,0.0,0.0,0.0,0.0,0.0,0.0,0.0,0.0,0.0,0.0,0.0,0.0,0.0,0.0,0.0,0.0,0.0,0.0,0.0,0.0,0.0,0.0,0.0,0.0,0.0,0.0,0.0,0.0,0.0,0.0,0.0,0.0,0.0,0.0,0.0,0.0,0.0,0.0,0.0,0.0,0.0,0.0,0.0,0.0,0.0,0.0,0.0,0.0,0.0,0.0,0.0,0.0,0.0,0.0,0.0,0.0,0.0,0.0,0.0,0.0,0.0,0.0,0.0,0.0,0.0,0.0,0.0,0.0,0.0,0.0,-1.9473,-1.9566,-1.9609,-1.9461,-1.9377,-1.9364,-1.9417,-1.9241,-1.9108,-1.9108,0.0,0.0,0.0,0.0,0.0,0.0,0.0,0.0,0.0,0.0,0.0,0.0,0.0,0.0,0.0,0.0,0.0,0.0,0.0,0.0,0.0,0.0,0.0,0.0,0.0,0.0,0.0,0.0,0.0,0.0,0.0,0.0,0.0,0.0,0.0,0.0,0.0,0.0,0.0,0.0,0.0,0.0,0.0,0.0,0.0,0.0,0.0,0.0,0.0,0.0,0.0,0.0,0.0,0.0,0.0,0.0,0.0,0.0,0.0,0.0,0.0,0.0,0.0,0.0,0.0,0.0,0.0,0.0,0.0,0.0,0.0,0.0,0.0,0.0,0.0,0.0,0.0,0.0,0.0,0.0,0.0,0.0,0.0,0.0,0.0,0.0,0.0,0.0,0.0,0.0,0.0,0.0,0.0,0.0,0.0,0.0,0.0,0.0,0.0,0.0,0.0,0.0,-1.9119,-1.9523,-1.9627,-1.917,-1.9533,-1.9616,-1.916,-1.9119,-1.9119,0.0,0.0,0.0,0.0,0.0,0.0,0.0,0.0,0.0,0.0,0.0,0.0,0.0,0.0,0.0,0.0,0.0,0.0,0.0,0.0,0.0,0.0,0.0,0.0,0.0,0.0,0.0,0.0,0.0,0.0,0.0,0.0,0.0,0.0,0.0,0.0,0.0,0.0,0.0,0.0,0.0,0.0,0.0,0.0,0.0,0.0,0.0,0.0,0.0,0.0,0.0,0.0,0.0,0.0,0.0,0.0,0.0,0.0,0.0,0.0,0.0,0.0,0.0,0.0,0.0,0.0,0.0,0.0,0.0,0.0,0.0,0.0,0.0,0.0,0.0,0.0,0.0,0.0,0.0,0.0,0.0,0.0,0.0,0.0,0.0,0.0,0.0,0.0,0.0,0.0,0.0,0.0,0.0,0.0,0.0,0.0,0.0,0.0,0.0,0.0,0.0,0.0,0.0,-2.078,-2.0491,-2.0172,-2.0038,-2.0151,-2.0172,-2.0038,-2.0027,-1.9893,-1.9616,0.0,0.0,0.0,0.0,0.0,0.0,0.0,0.0,0.0,0.0,0.0,0.0,0.0,0.0,0.0,0.0,0.0,0.0,0.0,0.0,0.0,0.0,0.0,0.0,0.0,0.0,0.0,0.0,0.0,0.0,0.0,0.0,0.0,0.0,0.0,0.0,0.0,0.0,0.0,0.0,0.0,0.0,0.0,0.0,0.0,0.0,0.0,0.0,0.0,0.0,0.0,0.0,0.0,0.0,0.0,0.0,0.0,0.0,0.0,0.0,0.0,0.0,0.0,0.0,0.0,0.0,0.0,0.0,0.0,0.0,0.0,0.0,0.0,0.0,0.0,0.0,0.0,0.0,0.0,0.0,0.0,0.0,0.0,0.0,0.0,0.0,0.0,0.0,0.0,0.0,0.0,0.0,0.0,0.0,0.0,0.0,0.0,0.0,0.0,0.0,0.0,0.0,-2.1514,-2.1041,-2.0591,-2.0405,-2.055,-2.0591,-2.0405,-2.0385,-2.0307,-2.0038,0.0,0.0,0.0,0.0,0.0,0.0,0.0,0.0,0.0,0.0,0.0,0.0,0.0,0.0,0.0,0.0,0.0,0.0,0.0,0.0,0.0,0.0,0.0,0.0,0.0,0.0,0.0,0.0,0.0,0.0,0.0,0.0,0.0,0.0,0.0,0.0,0.0,0.0,0.0,0.0,0.0,0.0,0.0,0.0,0.0,0.0,0.0,0.0,0.0,0.0,0.0,0.0,0.0,0.0,0.0,0.0,0.0,0.0,0.0,0.0,0.0,0.0,0.0,0.0,0.0,0.0,0.0,0.0,0.0,0.0,0.0,0.0,0.0,0.0,0.0,0.0,0.0,0.0,0.0,0.0,0.0,0.0,0.0,0.0,0.0,0.0,0.0,0.0,0.0,0.0,0.0,0.0,0.0,0.0,0.0,0.0,0.0,0.0,0.0,0.0,0.0,0.0,-2.1704,-2.1452,-2.0984,-2.056,-2.0928,-2.101,-2.055,-2.0519,-2.0498,-2.0457,0.0,0.0,0.0,0.0,0.0,0.0,0.0,0.0,0.0,0.0,0.0,0.0,0.0,0.0,0.0,0.0,0.0,0.0,0.0,0.0,0.0,0.0,0.0,0.0,0.0,0.0,0.0,0.0,0.0,0.0,0.0,0.0,0.0,0.0,0.0,0.0,0.0,0.0,0.0,0.0,0.0,0.0,0.0,0.0,0.0,0.0,0.0,0.0,0.0,0.0,0.0,0.0,0.0,0.0,0.0,0.0,0.0,0.0,0.0,0.0,-1.9154,-1.7699,0.0,0.0,0.0,0.0,0.0,0.0,0.0,0.0,0.0,0.0,0.0,0.0,0.0,0.0,0.0,0.0,0.0,0.0,0.0,0.0,0.0,0.0,0.0,0.0,0.0,0.0,0.0,0.0,0.0,0.0,0.0,0.0,0.0,0.0,0.0,0.0,0.0,0.0,0.0,0.0,-2.3404,-2.2455,-2.1621,-2.1518,-2.16,-2.1621,-2.1518,-2.1507,-2.1352,-2.0953,-2.0932,0.0,0.0,0.0,0.0,0.0,0.0,0.0,0.0,0.0,0.0,0.0,0.0,0.0,0.0,0.0,0.0,0.0,0.0,0.0,0.0,0.0,0.0,0.0,0.0,0.0,0.0,0.0,0.0,0.0,0.0,0.0,0.0,0.0,0.0,0.0,0.0,0.0,0.0,0.0,0.0,0.0,0.0,0.0,0.0,0.0,0.0,0.0,0.0,0.0,0.0,0.0,0.0,0.0,0.0,0.0,0.0,0.0,0.0,0.0,-2.119,-1.9922,0.0,0.0,0.0,0.0,0.0,0.0,0.0,0.0,0.0,0.0,0.0,0.0,0.0,0.0,0.0,0.0,0.0,0.0,0.0,0.0,0.0,0.0,0.0,0.0,0.0,0.0,0.0,0.0,0.0,0.0,0.0,0.0,0.0,0.0,0.0,0.0,0.0,0.0,0.0,0.0,-2.4528,-2.3338,-2.2365,-2.2365,-2.2035,-2.1807,-2.1807,-2.1807,-2.1704,-2.1455,-2.1445,0.0,0.0,0.0,0.0,0.0,0.0,0.0,0.0,0.0,0.0,0.0,0.0,0.0,0.0,0.0,0.0,0.0,0.0,0.0,0.0,0.0,0.0,0.0,0.0,0.0,0.0,0.0,0.0,0.0,0.0,0.0,0.0,0.0,0.0,0.0,0.0,0.0,0.0,0.0,0.0,0.0,0.0,0.0,0.0,0.0,0.0,0.0,0.0,0.0,0.0,0.0,0.0,0.0,-2.4876,-2.4926,-2.4926,-2.4476,-2.4268,-2.4235,-2.3675,-2.2822,-2.1815,-2.1653,0.0,0.0,0.0,0.0,0.0,0.0,0.0,0.0,0.0,0.0,0.0,0.0,0.0,0.0,0.0,0.0,0.0,0.0,0.0,0.0,0.0,0.0,-2.0622,-2.0622,-2.0622,-2.0669,-2.0803,0.0,0.0,0.0,0.0,0.0,0.0,0.0,0.0,0.0,0.0,0.0,-2.5194,-2.4082,-2.3176,-2.3176,-2.2617,-2.2203,-2.2203,-2.2101,-2.1987,-2.1987,-2.1883,-2.1631,0.0,0.0,0.0,0.0,0.0,0.0,0.0,0.0,0.0,0.0,0.0,0.0,0.0,0.0,0.0,0.0,0.0,0.0,0.0,0.0,0.0,0.0,0.0,0.0,0.0,0.0,0.0,0.0,0.0,0.0,0.0,0.0,-2.2723,-2.4131,0.0,0.0,0.0,0.0,0.0,0.0,0.0,0.0,0.0,0.0,0.0,0.0,0.0,-2.4686,-2.4675,-2.4686,-2.4723,-2.48,-2.5272,-2.5485,-2.5511,-2.5945,-2.6124,-2.6136,-2.6055,0.0,-2.2593,-2.1885,0.0,0.0,0.0,0.0,0.0,0.0,0.0,0.0,0.0,0.0,0.0,0.0,0.0,0.0,0.0,0.0,0.0,0.0,0.0,0.0,0.0,0.0,-2.1621,-2.1621,-2.1621,-2.1809,-2.2519,-2.1781,-2.1021,-2.1021,-2.2025,-2.3114,0.0,0.0,0.0,0.0,0.0,0.0,-2.5194,-2.4492,-2.3938,-2.3938,-2.3866,-2.3793,-2.3793,-2.3202,-2.2852,-2.2852,-2.2176,-2.1776,-2.1714,-2.1714,0.0,0.0,0.0,0.0,0.0,0.0,0.0,0.0,0.0,0.0,0.0,0.0,0.0,0.0,0.0,0.0,0.0,0.0,0.0,0.0,0.0,0.0,0.0,0.0,0.0,0.0,0.0,0.0,0.0,-2.3403,-2.4034,-2.4723,-2.4263,-2.4275,0.0,0.0,0.0,0.0,0.0,0.0,0.0,0.0,0.0,-2.5749,-2.5749,-2.5887,-2.6201,-2.6201,-2.6364,-2.6678,-2.6892,-2.7005,-2.7017,-2.7268,-2.7381,-2.7381,-2.7381,-2.6774,-2.5657,-2.4249,-2.3406,-2.2969,0.0,0.0,0.0,0.0,-2.2226,-2.1859,-2.1859,-2.1565,-2.1207,-2.1207,0.0,0.0,0.0,0.0,0.0,0.0,0.0,-2.1507,-2.1507,-2.1981,-2.2478,-2.2478,-2.2793,-2.308,-2.299,-2.2567,-2.2305,-2.2714,-2.3256,-2.3877,-2.4636,-2.5146,0.0,0.0,0.0,-2.5581,-2.5921,-2.4886,-2.4264,-2.4743,-2.3585,-2.3143,-2.4036,-2.3005,-2.2515,-2.2964,-2.2252,-2.1807,-2.1807,-2.1807,-2.1714,0.0,0.0,0.0,0.0,0.0,0.0,0.0,0.0,0.0,0.0,0.0,0.0,0.0,0.0,0.0,0.0,0.0,0.0,0.0,0.0,0.0,0.0,0.0,0.0,0.0,0.0,0.0,0.0,-2.4826,-2.5247,-2.5247,-2.5247,-2.5385,0.0,0.0,0.0,0.0,0.0,0.0,-2.67,-2.6839,-2.6914,-2.6914,-2.6914,-2.7115,-2.7494,-2.7494,-2.7708,-2.8109,-2.8109,-2.8109,-2.8109,-2.8109,-2.8109,-2.8109,-2.8109,-2.8109,-2.7974,-2.6359,-2.5361,-2.4792,-2.4609,-2.4547,-2.4487,-2.413,-2.3664,-2.3154,-2.281,-2.2289,-2.1807,-2.1807,-2.1807,-2.1845,-2.2025,0.0,0.0,0.0,0.0,-2.2381,-2.2381,-2.283,-2.3276,-2.3276,-2.3694,-2.4022,-2.3644,-2.3423,-2.3386,-2.3731,-2.3841,-2.4131,-2.5123,-2.5816,0.0,-2.6452,-2.6499,-2.6499,-2.6499,-2.5464,-2.4957,-2.5558,-2.4022,-2.3475,-2.4624,-2.329,-2.2644,-2.3239,-2.2365,-2.1807,-2.1807,-2.1807,-2.1807,-2.1807,0.0,0.0,0.0,0.0,0.0,0.0,0.0,0.0,0.0,0.0,0.0,0.0,0.0,0.0,0.0,0.0,0.0,0.0,0.0,0.0,0.0,0.0,0.0,0.0,0.0,0.0,0.0,0.0,0.0,-2.6411,-2.6411,0.0,0.0,0.0,0.0,-2.6499,-2.6977,-2.7278,-2.7278,-2.7733,-2.8021,-2.8021,-2.8021,-2.8034,-2.8059,-2.8059,-2.8084,-2.8109,-2.8109,-2.8109,-2.8109,-2.8109,-2.8109,-2.8109,-2.8109,-2.8109,-2.8024,-2.7175,-2.6792,-2.668,-2.5987,-2.5731,-2.5547,-2.4258,-2.3787,-2.358,-2.2286,-2.1845,-2.1807,-2.1807,-2.1807,-2.1949,-2.2703,-2.2927,0.0,0.0,-2.3975,-2.3975,-2.3975,-2.4011,-2.4047,-2.4047,-2.4072,-2.4301,-2.5016,-2.4564,-2.3841,-2.3176,-2.3075,-2.3534,-2.5052,0.0,-2.5629,-2.6396,-2.6499,-2.6499,-2.6499,-2.6418,-2.6383,-2.643,-2.6349,-2.6314,-2.6383,-2.4921,-2.4,-2.4047,-2.2644,-2.1807,-2.1807,-2.1807,-2.1807,-2.1807,-2.1787,0.0,0.0,0.0,0.0,0.0,0.0,0.0,0.0,0.0,0.0,0.0,0.0,0.0,0.0,0.0,0.0,0.0,0.0,0.0,0.0,0.0,0.0,0.0,0.0,0.0,0.0,0.0,0.0,-2.6499,-2.6499,0.0,-2.6989,-2.7014,-2.7165,-2.7494,-2.7708,-2.7808,-2.7808,-2.8335,-2.8599,-2.8599,-2.9001,-2.9365,-2.9716,-2.9716,-2.9892,-3.0218,-3.0218,-3.0218,-3.0218,-3.0218,-3.0218,-3.0218,-3.0218,-3.0218,-3.0218,-2.9918,-2.8969,-2.7631,-2.7372,-2.7261,-2.7236,-2.6733,-2.6227,-2.5742,-2.5255,-2.4755,-2.4347,-2.4347,-2.4347,-2.4435,-2.4702,-2.4778,-2.4854,-2.5107,-2.5182,-2.5182,-2.5182,-2.5546,-2.5905,-2.5905,-2.6286,-2.6603,-2.6371,-2.609,-2.5831,-2.5583,-2.4958,-2.4838,-2.5886,-2.606,-2.6176,-2.6452,-2.6499,-2.6499,-2.6499,-2.606,-2.5921,-2.6452,-2.5581,-2.5358,-2.6418,-2.5028,-2.4337,-2.4826,-2.3423,-2.2553,-2.2553,-2.2073,-2.1807,-2.1807,-2.1807,-2.1807,0.0,0.0,0.0,0.0,0.0,0.0,0.0,0.0,0.0,0.0,0.0,0.0,0.0,0.0,0.0,0.0,0.0,0.0,0.0,0.0,0.0,0.0,0.0,0.0,0.0,-2.665,-2.6776,-2.6776,-2.6939,-2.719,-2.7519,-2.7557,-2.7795,-2.8348,-2.8561,-2.875,-2.8938,-2.9465,-2.9754,-2.9754,-3.0131,-3.0507,-3.0871,-3.0871,-3.1148,-3.1675,-3.1675,-3.1775,-3.1951,-3.1951,-3.1951,-3.1951,-3.175,-3.1675,-3.165,-3.1461,-3.0532,-2.9214,-2.9214,-2.9214,-2.9151,-2.8686,-2.8218,-2.7596,-2.6688,-2.5849,-2.5183,-2.5317,-2.5376,-2.5454,-2.6019,-2.6171,-2.6221,-2.6498,-2.6574,-2.6574,-2.6574,-2.6938,-2.7311,-2.7311,-2.7705,-2.795,-2.7422,-2.7311,-2.7311,-2.7311,-2.6518,-2.6093,-2.6899,-2.7052,-2.7052,-2.7052,-2.7052,-2.7052,-2.7052,-2.6569,-2.6462,-2.6982,-2.6081,-2.5817,-2.6671,-2.5709,-2.5108,-2.5288,-2.4011,-2.3191,-2.3012,-2.2225,-2.1807,-2.1807,-2.1807,-2.1807,-2.1807,0.0,0.0,0.0,0.0,0.0,0.0,0.0,0.0,0.0,0.0,0.0,0.0,0.0,0.0,0.0,0.0,0.0,0.0,0.0,0.0,0.0,0.0,0.0,-2.66,-2.7002,-2.7306,-2.7306,-2.7795,-2.8134,-2.816,-2.8172,-2.8411,-2.8925,-2.9528,-3.008,-3.0633,-3.116,-3.1449,-3.1461,-3.1486,-3.1486,-3.1486,-3.1486,-3.1763,-3.229,-3.229,-3.2579,-3.3174,-3.3174,-3.3174,-3.3106,-3.2541,-3.229,-3.2252,-3.1712,-3.1486,-3.1486,-3.1411,-3.1386,-3.1242,-2.9951,-2.9472,-2.9071,-2.6431,-2.488,-2.4178,-2.4571,-2.4684,-2.4988,-2.652,-2.701,-2.721,-2.7964,-2.821,-2.821,-2.821,-2.821,-2.821,-2.821,-2.821,-2.821,-2.821,-2.821,-2.821,-2.821,-2.757,-2.7272,-2.8,-2.8109,-2.8109,-2.8109,-2.8109,0.0,-2.8109,-2.8109,-2.8109,-2.8109,-2.8109,-2.7896,-2.7356,-2.7091,-2.6492,-2.542,-2.444,-2.3622,-2.3034,-2.2262,-2.1845,-2.1807,-2.1807,-2.1807,-2.1807,0.0,0.0,0.0,0.0,0.0,0.0,0.0,0.0,0.0,0.0,0.0,0.0,0.0,0.0,0.0,0.0,0.0,0.0,0.0,0.0,0.0,-2.7444,-2.7231,-2.7115,-2.7532,-2.7883,-2.7883,-2.836,-2.8863,-2.9289,-2.9691,-3.0143,-3.067,-3.0859,-3.1185,-3.1738,-3.2303,-3.2792,-3.3194,-3.3596,-3.3809,-3.3809,-3.3809,-3.3884,-3.3991,-3.3991,-3.411,-3.4274,-3.4274,-3.4274,-3.4261,-3.4053,-3.3991,-3.4022,-3.3872,-3.3809,-3.3646,-3.2026,-3.1386,-3.1373,-3.1007,-3.0863,-3.0744,-2.9976,-2.9528,-2.9217,-2.8675,-2.8956,-2.9444,-2.92,-2.9605,-3.0231,-3.0442,-3.0482,-3.0482,-3.0482,-3.0482,-3.0482,-3.0482,-3.0482,-3.0482,-3.0482,-3.0482,-3.0482,-3.0482,-3.0311,-2.9721,-2.8336,-2.8109,-2.8109,-2.8109,-2.8109,-2.8109,-2.8109,-2.8109,-2.8109,-2.8109,-2.8109,-2.8047,-2.7896,-2.7814,-2.7385,-2.6442,-2.5797,-2.4869,-2.3579,-2.295,-2.2402,-2.1807,-2.1807,-2.1807,0.0,0.0,0.0,0.0,0.0,0.0,0.0,0.0,0.0,0.0,0.0,0.0,0.0,0.0,0.0,0.0,0.0,0.0,0.0,0.0,0.0,0.0,-2.8235,-2.8335,-2.8335,-2.8612,-2.8812,-2.8812,-2.949,-3.0093,-3.0432,-3.0959,-3.1512,-3.2051,-3.2315,-3.2679,-3.3232,-3.3583,-3.3909,-3.4236,-3.4562,-3.468,-3.468,-3.468,-3.4793,-3.5019,-3.5019,-3.519,-3.5416,-3.5416,-3.5416,-3.5391,-3.5119,-3.5019,-3.5006,-3.4768,-3.468,-3.4555,0.0,0.0,0.0,0.0,-3.2361,-3.1772,-3.1648,-3.116,-3.0525,-3.0152,-3.0426,-3.0799,-3.0633,-3.0976,-3.1386,-3.1386,-3.1386,-3.1386,-3.1386,-3.1386,-3.1386,-3.1386,-3.1386,-3.1386,-3.1386,-3.1386,-3.1386,-3.1386,-3.1386,0.0,-2.9704,-2.9302,-2.9164,-2.9164,-2.8963,-2.8812,-2.8812,-2.8812,-2.8812,-2.8812,-2.8812,-2.8712,-2.8473,-2.8313,0.0,0.0,0.0,-2.4955,-2.326,-2.2954,0.0,0.0,0.0,-2.1807,-2.1807,-2.1807,0.0,0.0,-2.1807,-2.1807,0.0,0.0,0.0,0.0,0.0,0.0,0.0,0.0,0.0,0.0,0.0,0.0,0.0,0.0,0.0,0.0,-2.9227,-2.9905,-2.9967,-3.008,-3.0118,-2.9993,-3.0922,-3.1587,-3.1587,-3.2139,-3.2704,-3.3219,-3.3721,-3.4236,-3.4743,-3.4768,0.0,0.0,0.0,-3.5027,-3.509,-3.509,-3.5295,-3.5771,-3.5771,-3.6081,-3.6593,-3.6593,-3.6593,-3.6568,-3.6031,-3.5771,-3.5746,-3.5257,-3.5064,-3.4931,-3.4756,-3.468,-3.468,-3.468,-3.3822,-3.2632,-3.2253,0.0,0.0,-3.0372,-3.0525,-3.0737,-3.1419,-3.1642,-3.1675,-3.1675,-3.1625,-3.1587,-3.1587,-3.1587,-3.1587,-3.1587,-3.1587,-3.1587,-3.1587,-3.1587,-3.1587,-3.1587,-3.1587,-3.1587,-3.1587,-3.1097,-3.0708,-3.0708,-3.0294,-2.9967,-2.9967,-2.9967,-2.9967,-2.9967,-2.9917,0.0,-2.9126,-2.8834,-2.8132,-2.689,-2.5701,-2.4325,-2.2762,-2.2613,-2.2387,-2.1973,-2.1911,-2.188,-2.188,-2.1828,-2.1807,-2.1807,-2.1807,-2.1807,0.0,0.0,0.0,0.0,0.0,0.0,0.0,0.0,0.0,0.0,0.0,0.0,0.0,0.0,0.0,-2.998,-3.0319,-3.0608,-3.1022,-3.1863,-3.2102,-3.1185,-3.2106,-3.2797,-3.2797,-3.3658,-3.4286,-3.4399,-3.45,-3.4756,-3.5307,-3.5345,-3.5746,-3.6684,-3.6709,-3.6923,-3.7362,-3.7374,-3.7425,-3.7538,-3.7538,0.0,-3.7688,-3.7688,-3.7688,-3.7688,-3.7575,-3.7538,-3.7525,-3.7412,-3.7111,-3.6571,-3.524,-3.468,-3.468,-3.468,-3.4515,-3.4255,-3.4167,-3.3953,-3.356,-3.2895,-3.3187,-3.3705,-3.3097,-3.316,0.0,-3.342,-3.3093,-3.2797,-3.2797,-3.2797,-3.2797,-3.2797,-3.2797,-3.2797,-3.2797,-3.2797,-3.2797,-3.2797,-3.2797,-3.2797,-3.2797,-3.1913,-3.1248,-3.1248,-3.1148,-3.1085,-3.1085,-3.1085,-3.1085,-3.1085,-3.0708,-3.0407,-3.0294,-2.9811,-2.8824,-2.7145,-2.5224,-2.409,-2.3964,-2.3389,-2.3008,-2.2925,-2.2553,-2.2366,-2.2366,-2.1983,-2.1807,-2.1807,-2.1807,-2.1807,0.0,0.0,0.0,0.0,0.0,0.0,0.0,0.0,0.0,0.0,0.0,-2.9114,-2.9628,0.0,-3.0043,-3.0871,-3.1235,-3.1599,-3.2152,-3.2955,-3.3181,-3.2328,-3.3219,-3.3897,-3.3897,-3.465,-3.5094,-3.5094,-3.5642,-3.6081,-3.6345,-3.6634,-3.7023,-3.7575,-3.76,-3.7726,-3.8002,-3.8002,-3.8002,-3.8002,-3.8002,-3.8002,-3.8002,-3.8002,-3.8002,-3.8002,-3.8002,-3.8002,-3.8002,-3.8002,-3.7839,-3.7513,-3.6684,-3.6031,-3.5542,-3.5542,-3.5366,-3.5094,-3.5094,-3.4906,-3.4623,-3.4144,-3.4338,-3.4623,-3.4144,-3.4152,-3.4311,-3.4311,-3.411,-3.3897,-3.3897,-3.3897,-3.3897,-3.3897,-3.3897,-3.3897,-3.3897,-3.3684,-3.3483,-3.3483,-3.3269,-3.3124,-3.3124,-3.2646,-3.2139,-3.1851,-3.1562,-3.1386,-3.1386,-3.1386,-3.1386,-3.1386,-3.116,-3.0997,-3.0997,-3.0124,-2.8992,-2.7624,-2.5837,-2.4821,-2.473,-2.3995,-2.3422,-2.3194,-2.2956,-2.2842,-2.2842,-2.2604,-2.2501,-2.249,-2.2263,-2.2025,0.0,0.0,0.0,0.0,0.0,0.0,0.0,-2.8976,-2.9252,-2.9829,-2.9955,-3.0118,-3.067,-3.0859,-3.1097,-3.1637,-3.2177,-3.2742,-3.3319,-3.3872,-3.406,-3.3608,-3.4349,-3.4876,-3.4876,-3.5433,-3.5821,-3.5821,-3.6784,-3.7349,-3.7349,-3.7764,-3.8052,-3.8165,-3.8165,-3.8228,-3.8329,-3.8329,-3.8329,-3.8329,-3.8329,-3.8329,-3.8329,-3.8329,-3.8329,-3.8329,-3.8329,-3.8329,-3.8329,-3.8329,-3.8266,-3.8165,-3.8165,-3.7563,-3.6732,-3.6732,-3.6332,-3.5821,-3.5821,-3.5504,-3.5039,-3.5039,-3.5039,-3.5039,-3.5039,-3.4964,-3.4876,-3.4876,-3.4756,-3.468,-3.468,-3.468,-3.468,-3.468,-3.468,-3.468,-3.468,-3.4374,-3.406,-3.406,-3.3709,-3.3395,-3.3395,-3.3395,-3.3169,-3.2478,-3.2001,-3.1712,-3.1712,-3.1712,-3.1712,-3.1712,-3.1447,-3.1253,-3.1141,-3.0106,-2.9071,-2.8195,-2.6783,-2.5755,-2.522,-2.4451,-2.3826,-2.3463,-2.337,-2.3318,-2.3318,-2.3225,-2.3184,-2.3184,-2.2801,-2.2387,-2.7946,-2.8411,-2.8599,-2.821,-2.8863,-2.949,0.0,-2.9327,-2.9854,-3.0407,-3.052,-3.0683,-3.121,-3.17,-3.2215,-3.2792,-3.3357,-3.3909,-3.4462,-3.4969,-3.5295,-3.5232,-3.5332,-3.5408,-3.5408,-3.6395,-3.6998,-3.6998,-3.7563,-3.7914,-3.7914,-3.7977,-3.8241,-3.8755,-3.8781,-3.9007,-3.9496,-3.9509,-3.9509,-3.9509,-3.9509,-3.9509,-3.9509,-3.9509,-3.9509,-3.9509,-3.9509,-3.9509,-3.9509,-3.9509,-3.922,-3.8781,-3.8781,-3.8379,-3.7826,-3.7826,-3.7475,-3.6998,-3.6998,-3.6646,-3.6229,-3.6229,-3.6229,-3.6229,-3.6229,-3.5843,-3.5408,-3.5408,-3.5056,-3.468,-3.468,-3.468,-3.468,-3.468,-3.468,-3.468,-3.468,-3.4675,-3.4625,-3.4625,-3.4575,-3.4537,-3.4537,-3.4537,-3.4186,-3.3131,-3.2973,-3.2893,-3.2893,-3.2893,-3.2893,-3.2893,-3.1694,-3.0682,-3.0211,-3.0073,-2.9606,-2.866,-2.735,-2.6174,-2.5253,-2.4728,-2.4404,-2.4352,-2.4002,-2.3805,-2.3805,-2.3391,-2.3184,-2.3184,-2.3143,-2.2863,-2.8436,-2.9001,-2.9377,-2.9151,-2.9453,-2.9817,-2.9892,-3.0093,-3.0419,-3.0947,-3.1072,-3.1235,-3.1763,-3.234,-3.2905,-3.3458,-3.4022,-3.4575,-3.5082,-3.5357,-3.5746,-3.642,-3.6496,-3.6496,-3.6496,-3.7199,-3.7663,-3.7663,-3.8191,-3.8504,-3.8504,-3.8818,-3.9094,-3.9346,-3.9346,-3.9459,-3.9697,-3.9697,-3.9697,-3.9697,-3.9697,-3.9697,-3.9697,-3.9697,-3.9697,-3.9697,-3.9697,-3.9697,-3.9697,-3.9697,-3.9559,-3.9346,-3.9346,-3.9195,-3.8906,-3.8253,-3.7864,-3.7663,-3.7663,-3.7513,-3.7262,-3.6996,-3.6883,-3.6832,-3.6505,-3.6194,-3.6019,-3.6019,-3.5855,-3.568,-3.568,-3.568,-3.568,-3.568,-3.568,-3.568,-3.568,-3.5429,-3.5157,-3.5157,-3.4893,-3.468,-3.468,-3.468,-3.4472,-3.3876,-3.3671,-3.3389,-3.2934,-3.2982,-3.2896,-3.2307,-3.1651,-3.0942,-3.0179,-3.0374,-3.0098,-2.9123,-2.8307,-2.7411,-2.6395,-2.5685,-2.5202,-2.49,-2.4757,-2.4529,-2.426,-2.4064,-2.3981,-2.3971,-2.3712,-2.3484,-2.9051,-2.9478,-2.9829,-2.998,-3.0018,-3.0168,-3.0708,-3.0834,-3.0972,-3.1512,-3.1625,-3.1838,-3.2541,-3.3018,-3.3533,-3.4236,-3.4688,-3.5094,-3.5646,-3.5768,-3.6119,-3.7073,-3.7312,-3.7475,-3.7626,-3.8015,-3.8253,-3.8253,-3.8781,-3.9094,-3.9094,-3.9484,-3.9697,-3.9697,-3.9697,-3.9697,-3.9697,-3.9697,-3.9697,-3.9697,-3.9697,-3.9697,-3.9697,-3.9697,-3.9697,-3.9697,-3.9697,-3.9697,-3.9697,-3.9697,-3.9697,-3.9697,-3.9697,-3.9697,-3.9597,-3.8768,-3.8379,-3.8253,-3.8253,-3.814,-3.7939,-3.7538,-3.7412,-3.7337,-3.6935,-3.6857,-3.6832,-3.6681,-3.6631,-3.6606,-3.6455,-3.6405,-3.6405,-3.6405,-3.6405,-3.6405,-3.6405,-3.6056,-3.5768,-3.5768,-3.5454,-3.5177,-3.5177,-3.5177,-3.5036,-3.4691,-3.4136,-3.3632,-3.3189,-3.3165,-3.2803,-3.1752,-3.1721,-3.1315,-3.0068,-3.0549,-3.037,-2.9105,-2.8642,-2.7988,-2.7078,-2.6208,-2.564,-2.542,-2.5409,-2.5137,-2.4683,-2.4683,-2.4621,-2.4487,-2.4209,-2.4064,-2.9767,-2.9779,-2.9917,-3.0457,-3.0595,-3.0733,-3.1248,-3.1361,-3.1524,-3.2077,-3.219,-3.2528,-3.3646,-3.3859,-3.4223,-3.527,-3.547,-3.5717,-3.6304,-3.638,-3.6593,-3.7111,-3.7651,-3.8203,-3.8768,-3.8881,-3.8894,-3.8894,-3.9358,-3.9672,-3.9672,-3.9685,-3.9697,-3.9697,-3.9697,-3.9697,-3.9697,-3.9697,-3.9697,-3.9697,-3.9697,-3.9697,-3.9697,-3.9697,-3.9697,-3.9697,-3.9697,-3.9697,-3.9697,-3.9697,-3.9697,-3.9697,-3.9697,-3.9697,-3.9697,-3.9647,-3.9308,-3.8894,-3.8894,-3.8479,-3.8002,-3.799,-3.799,-3.7977,-3.7965,-3.7952,-3.7839,-3.7312,-3.7161,-3.7036,-3.6556,-3.6405,-3.6405,-3.6405,-3.6405,-3.6405,-3.6405,-3.6405,-3.638,-3.638,-3.6367,-3.6355,-3.6355,-3.6355,-3.6132,-3.5558,-3.437,-3.3682,-3.4181,-3.3784,-3.3036,-3.1825,-3.2095,-3.1548,-2.959,-3.0586,-3.0451,-2.8484,-2.7891,-2.7323,-2.664,-2.5905,-2.5614,-2.5854,-2.5854,-2.5647,-2.5168,-2.5168,-2.4931,-2.4497,-2.4487,-2.4476,-2.9792,-3.0055,-3.0382,-3.057,-3.0871,-3.1273,-3.1813,-3.1938,-3.2102,-3.2667,-3.3081,-3.3445,-3.3834,-3.45,-3.5069,-3.5445,-3.5855,-3.6157,-3.638,-3.6719,-3.7111,-3.7663,-3.8228,-3.8806,-3.9371,-3.9421,-3.9421,-3.9421,-3.9584,-3.9697,-3.9697,-3.9697,-3.9697,-3.9697,-3.9697,-3.9697,-3.9697,-3.9697,-3.9697,-3.9697,-3.9697,-3.9697,-3.9697,-3.9697,-3.9697,-3.9697,-3.9697,-3.9697,-3.9697,-3.9697,-3.9697,-3.9697,-3.9697,-3.9697,-3.9697,-3.9697,-3.9584,-3.9421,-3.9421,-3.9295,-3.9069,-3.8693,-3.858,-3.8504,-3.8115,-3.8002,-3.7965,-3.7789,-3.7726,-3.7688,-3.75,-3.7186,-3.6753,-3.6051,-3.5588,-3.5319,-3.5319,-3.5223,-3.5283,-3.5991,-3.5991,-3.5847,-3.5847,-3.5847,-3.5738,-3.5362,-3.3886,-3.2818,-3.2968,-3.272,-3.2427,-3.2253,-3.1448,-3.0421,-2.9136,-2.9053,-2.8495,-2.7183,-2.7562,-2.7431,-2.655,-2.6324,-2.6148,-2.6085,-2.6121,-2.5941,-2.5658,-2.5658,-2.543,-2.4952,-2.4952,-2.4797,-3.0342,-3.0555,-3.0708,-3.1097,-3.1436,-3.1825,-3.239,-3.2516,-3.2629,-3.3006,-3.352,-3.396,-3.4161,-3.4893,-3.5558,-3.5805,-3.6132,-3.6405,-3.6405,-3.6835,-3.7387,-3.7939,-3.8517,-3.9082,-3.9634,-3.9697,-3.9697,-3.9697,-3.9697,-3.9697,-3.9697,-3.9697,-3.9697,-3.9697,-3.9697,-3.9697,-3.9697,-3.9697,-3.9697,-3.9697,-3.9697,-3.9697,-3.9697,-3.9697,-3.9697,-3.9697,-3.9697,-3.9697,-3.9697,-3.9697,-3.9697,-3.9697,-3.9697,-3.9697,-3.9697,-3.9697,-3.9697,-3.9697,-3.9697,-3.9697,-3.9634,-3.9283,-3.917,-3.9094,-3.873,-3.8605,-3.8567,-3.8366,-3.8316,-3.8166,-3.7543,-3.7134,-3.6616,-3.5494,-3.4869,-3.4513,-3.4337,-3.44,-3.4501,-3.4665,-3.4896,-3.4908,-3.4483,-3.4434,-3.4178,-3.3537,-3.2773,-3.2358,-3.2599,-3.2101,-3.1769,-3.1876,-3.117,-3.0141,-2.8826,-2.8657,-2.8047,-2.6669,-2.7006,-2.702,-2.6544,-2.64,-2.6365,-2.632,-2.631,-2.618,-2.5849,-2.5849,-2.5624,-2.5149,-2.5249,-2.5139,-3.1345,-3.1162,-3.0909,-3.1951,-3.224,-3.2403,-3.2955,-3.3124,-3.3124,-3.3124,-3.352,-3.406,-3.4587,-3.5107,-3.5671,-3.6279,-3.6392,-3.6405,-3.6405,-3.6908,-3.7425,-3.7939,-3.8542,-3.912,-3.9647,-3.9697,-3.9697,-3.9697,-3.9697,-3.9697,-3.9697,-3.9697,-3.9697,-3.9697,-3.9697,-3.9697,-3.9697,-3.9697,-3.9697,-3.9697,-3.9697,-3.9697,-3.9697,-3.9697,-3.9697,-3.9697,-3.9697,-3.9697,-3.9697,-3.9697,-3.9697,-3.9697,-3.9697,-3.9697,-3.9697,-3.9697,-3.9697,-3.9697,-3.9697,-3.9697,-3.9697,-3.9697,-3.9697,-3.9697,-3.9697,-3.9697,-3.9584,-3.9057,-3.8957,-3.8579,-3.6897,-3.6435,-3.6093,-3.4843,-3.4327,-3.3948,-3.3422,-3.3947,-3.4012,-3.26,-3.3162,-3.356,-3.2476,-3.2303,-3.1825,-3.0577,-3.1246,-3.2174,-3.2939,-3.1972,-3.1136,-3.0848,-3.1207,-3.0663,-2.8717,-2.9306,-2.8882,-2.6864,-2.6319,-2.6227,-2.6488,-2.6217,-2.6197,-2.6448,-2.6496,-2.6285,-2.5816,-2.5816,-2.5585,-2.5143,-2.5391,-2.5518,-3.1511,-3.1431,-3.1361,-3.2039,-3.2541,-3.2893,-3.3043,-3.3124,-3.3124,-3.3124,-3.352,-3.3935,-3.4085,-3.4856,-3.5545,-3.5683,-3.6094,-3.6405,-3.6405,-3.7199,-3.7852,-3.799,-3.8881,-3.9534,-3.9685,-3.9697,-3.9697,-3.9697,-3.9697,-3.9697,-3.9697,-3.9697,-3.9697,-3.9697,-3.9697,-3.9697,-3.9697,-3.9697,-3.9697,-3.9697,-3.9697,-3.9697,-3.9697,-3.9697,-3.9697,-3.9697,-3.9697,-3.9697,-3.9697,-3.9697,-3.9697,-3.9697,-3.9697,-3.9697,-3.9697,-3.9697,-3.9697,-3.9697,-3.9697,-3.9697,-3.9697,-3.9697,-3.9697,-3.9697,-3.9697,-3.9697,-3.9659,-3.9521,-3.9484,-3.9395,-3.8937,-3.8537,-3.7694,-3.5455,-3.4566,-3.3829,-3.2618,-3.233,-3.2511,-3.2886,-3.2786,-3.2553,-3.2284,-3.1998,-3.1666,-3.1308,-3.0794,-3.0535,-3.0742,-3.1159,-3.149,-3.1389,-3.0511,-2.968,-2.9134,-2.8278,-2.7533,-2.6937,-2.6545,-2.6369,-2.6419,-2.6006,-2.5917,-2.6197,-2.6197,-2.6244,-2.6325,-2.6325,-2.6094,-2.5605,-2.5708,-2.5526,-3.1876,-3.1765,-3.1587,-3.239,-3.283,-3.3124,-3.3124,-3.3124,-3.3124,-3.3124,-3.352,-3.3897,-3.3897,-3.4756,-3.5495,-3.5495,-3.6006,-3.6405,-3.6405,-3.7312,-3.8002,-3.8002,-3.9007,-3.9697,-3.9697,-3.9697,-3.9697,-3.9697,-3.9697,-3.9697,-3.9697,-3.9697,-3.9697,-3.9697,-3.9697,-3.9697,-3.9697,-3.9697,-3.9697,-3.9697,-3.9697,-3.9697,-3.9697,-3.9697,-3.9697,-3.9697,-3.9697,-3.9697,-3.9697,-3.9697,-3.9633,-3.953,-3.9633,-3.9542,-3.9322,-3.9594,-3.9645,-3.953,-3.9645,-3.9697,-3.9697,-3.9697,-3.9633,-3.953,-3.953,-3.9426,-3.9322,-3.9322,-3.9322,-3.9206,-3.8712,-3.7932,-3.6955,-3.5568,-3.4032,-3.2799,-3.2289,-3.1984,-3.1856,-3.2265,-3.1654,-3.1067,-3.1067,-3.0682,-3.0433,-3.0433,-3.0109,-2.9723,-2.926,-2.9775,-3.0141,-3.0141,-2.9808,-2.9343,-2.8896,-2.8337,-2.7789,-2.7346,-2.6894,-2.666,-2.666,-2.625,-2.6065,-2.6251,-2.6015,-2.6014,-2.6169,-2.6169,-2.5991,-2.5744,-2.5877,-2.5794,-3.2228,-3.1957,-3.1637,-3.2747,-3.3061,-3.3124,-3.3124,-3.3124,-3.3124,-3.3124,-3.3458,-3.3796,-3.3796,-3.4625,-3.5307,-3.537,-3.5893,-3.6329,-3.6405,-3.7312,-3.8002,-3.8002,-3.9007,-3.9697,-3.9697,-3.9697,-3.9697,-3.9697,-3.9697,-3.9697,-3.9697,-3.9697,-3.9697,-3.9697,-3.9697,-3.9697,-3.9697,-3.9697,-3.9697,-3.9697,-3.9697,-3.9697,-3.9697,-3.9697,-3.9697,-3.9697,-3.9697,-3.9697,-3.9697,-3.9697,-3.9581,-3.9374,-3.9594,-3.9374,-3.8945,-3.9426,-3.9478,-3.9322,-3.9581,-3.9697,-3.9685,-3.9645,-3.9362,-3.9037,-3.9037,-3.8671,-3.8344,-3.8344,-3.8449,-3.8344,-3.7364,-3.6306,-3.5476,-3.5356,-3.3402,-3.1667,-3.2178,-3.2019,-3.1671,-3.1216,-3.0338,-2.9658,-2.9658,-2.9287,-2.9004,-2.9004,-2.942,-2.9447,-2.8476,-2.8481,-2.8441,-2.8291,-2.9112,-2.9313,-2.8398,-2.8812,-2.8745,-2.7849,-2.7344,-2.71,-2.71,-2.6699,-2.6445,-2.6387,-2.6016,-2.5742,-2.5693,-2.5693,-2.5693,-2.5693,-2.5965,-2.6052,-3.1872,-3.165,-3.1549,-3.2202,-3.2717,-3.3124,-3.3124,-3.3124,-3.3124,-3.3124,-3.3156,-3.3262,-3.3262,-3.3746,-3.4336,-3.4788,-3.5282,-3.5843,-3.6342,-3.7312,-3.8002,-3.8002,-3.9007,-3.9697,-3.9697,-3.9697,-3.9697,-3.9697,-3.9697,-3.9697,-3.9697,-3.9697,-3.9697,-3.9697,-3.9697,-3.9697,-3.9697,-3.9697,-3.9697,-3.9697,-3.9697,-3.9697,-3.9697,-3.9697,-3.9697,-3.9697,-3.9697,-3.9697,-3.9697,-3.9697,-3.9697,-3.9645,-3.9685,-3.9478,-3.9218,-3.9322,-3.9322,-3.9322,-3.9362,-3.953,-3.9645,-3.9426,-3.8635,-3.7755,-3.7566,-3.6738,-3.5902,-3.5902,-3.663,-3.7352,-3.7138,-3.6965,-3.6468,-3.5256,-3.3866,-3.2509,-3.1409,-3.111,-3.1032,-3.0953,-3.0466,-3.0088,-3.0088,-2.9736,-2.9453,-2.9453,-2.9247,-2.9016,-2.8809,-2.928,-2.926,-2.8388,-2.8451,-2.8495,-2.8291,-2.8436,-2.8386,-2.8184,-2.7793,-2.7559,-2.7559,-2.7139,-2.6738,-2.6396,-2.6309,-2.6103,-2.5693,-2.5693,-2.5693,-2.5693,-2.5732,-2.5781,-3.1177,-3.105,-3.1185,-3.2001,-3.2416,-3.2704,-3.3048,-3.3124,-3.3124,-3.3124,-3.3124,-3.3124,-3.3124,-3.3533,-3.3985,-3.4248,-3.4956,-3.5596,-3.5893,-3.7136,-3.8002,-3.8002,-3.9007,-3.9697,-3.9697,-3.9697,-3.9697,-3.9697,-3.9697,-3.9697,-3.9697,-3.9697,-3.9697,-3.9697,-3.9697,-3.9697,-3.9697,-3.9697,-3.9697,-3.9697,-3.9697,-3.9697,-3.9697,-3.9697,-3.9697,-3.9697,-3.9697,-3.9697,-3.9697,-3.9697,-3.953,-3.927,-3.9426,-3.9154,-3.8684,-3.8945,-3.8945,-3.8893,-3.9206,-3.927,-3.9218,-3.905,-3.8279,-3.7222,-3.69,-3.5913,-3.4814,-3.4814,-3.5267,-3.5706,-3.5706,-3.5267,-3.477,-3.4659,-3.3765,-3.255,-3.117,-3.0889,-3.0889,-3.0889,-3.0713,-3.0557,-3.0557,-3.0185,-2.9893,-2.9893,-2.9531,-2.9258,-2.9258,-2.9357,-2.9096,-2.8364,-2.8291,-2.8291,-2.8291,-2.8291,-2.8291,-2.8291,-2.8105,-2.7988,-2.7988,-2.7578,-2.7256,-2.706,-2.6836,-2.6504,-2.6074,-2.6074,-2.5967,-2.5693,-2.5693,-2.5693,-3.0699,-3.0626,-3.0821,-3.1662,-3.1951,-3.219,-3.2754,-3.2893,-3.293,-3.3056,-3.3124,-3.3124,-3.3124,-3.3432,-3.3759,-3.3884,-3.468,-3.537,-3.5483,-3.696,-3.8002,-3.8002,-3.9007,-3.9697,-3.9697,-3.9697,-3.9697,-3.9697,-3.9697,-3.9697,-3.9697,-3.9697,-3.9697,-3.9697,-3.9697,-3.9697,-3.9697,-3.9697,-3.9697,-3.9697,-3.9697,-3.9697,-3.9697,-3.9697,-3.9697,-3.9697,-3.9697,-3.9697,-3.9697,-3.9697,-3.9374,-3.8945,-3.9206,-3.8776,-3.8145,-3.8579,-3.8566,-3.8409,-3.8659,-3.8607,-3.8396,-3.8068,-3.7352,-3.6588,-3.624,-3.498,-3.3663,-3.3663,-3.3843,-3.4067,-3.4067,-3.3346,-3.2846,-3.3505,-3.296,-3.2065,-3.1112,-3.0889,-3.0889,-3.0889,-3.0889,-3.0889,-3.0889,-3.0586,-3.0342,-3.0342,-2.998,-2.9707,-2.9707,-2.9326,-2.8896,-2.8467,-2.834,-2.8291,-2.8291,-2.8291,-2.8291,-2.8291,-2.8291,-2.8291,-2.8291,-2.7978,-2.7806,-2.7718,-2.7334,-2.6943,-2.6523,-2.6523,-2.6299,-2.583,-2.583,-2.5781,-3.0885,-3.0727,-3.0633,-3.0733,-3.1122,-3.1612,-3.2164,-3.229,-3.2441,-3.3011,-3.3124,-3.3124,-3.3124,-3.3162,-3.3319,-3.3822,-3.4399,-3.4919,-3.542,-3.696,-3.8002,-3.8002,-3.9007,-3.9697,-3.9697,-3.9697,-3.9697,-3.9697,-3.9697,-3.9697,-3.9697,-3.9697,-3.9697,-3.9697,-3.9697,-3.9697,-3.9697,-3.9697,-3.9697,-3.9697,-3.9697,-3.9697,-3.9697,-3.9697,-3.9697,-3.9697,-3.9697,-3.9697,-3.9697,-3.9697,-3.953,-3.9258,-3.927,-3.8945,-3.8356,-3.8421,-3.8409,-3.825,-3.7233,-3.7019,-3.7031,-3.5695,-3.5189,-3.5035,-3.4714,-3.3006,-3.1228,-3.1228,-3.2008,-3.2856,-3.2856,-3.2799,-3.2467,-3.145,-3.1112,-3.1064,-3.0947,-3.0889,-3.0889,-3.0889,-3.0889,-3.0889,-3.0889,-3.0859,-3.083,-3.083,-3.043,-3.0137,-3.0137,-2.9775,-2.9346,-2.8906,-2.8525,-2.8291,-2.8291,-2.8291,-2.8291,-2.8291,-2.8291,-2.8291,-2.8291,-2.8252,-2.8057,-2.7728,-2.7679,-2.7393,-2.6953,-2.6953,-2.6738,-2.6328,-2.6328,-2.6113,-3.0241,-3.0201,-3.0193,-3.0532,-3.0997,-3.1537,-3.2089,-3.2478,-3.2805,-3.3074,-3.3124,-3.3124,-3.3124,-3.3124,-3.3156,-3.337,-3.4148,-3.4756,-3.4969,-3.6759,-3.8002,-3.8002,-3.9007,-3.9697,-3.9697,-3.9697,-3.9697,-3.9697,-3.9697,-3.9697,-3.9697,-3.9697,-3.9697,-3.9697,-3.9697,-3.9697,-3.9697,-3.9697,-3.9697,-3.9697,-3.9697,-3.9697,-3.9697,-3.9697,-3.9697,-3.9697,-3.9697,-3.9594,-3.9478,-3.9478,-3.9154,-3.8788,-3.8788,-3.808,-3.7108,-3.7108,-3.6599,-3.5925,-3.5695,-3.553,-3.5432,-3.5035,-3.4325,-3.3561,-3.3402,-3.2238,-3.0889,-3.0889,-3.1228,-3.1624,-3.1624,-3.1624,-3.1508,-3.1005,-3.0889,-3.0889,-3.0889,-3.0889,-3.0889,-3.0889,-3.0889,-3.0889,-3.0889,-3.0889,-3.0889,-3.0889,-3.0732,-3.0615,-3.0615,-3.0225,-2.9883,-2.9707,-2.9082,-2.8564,-2.831,-2.8291,-2.8291,-2.8291,-2.8291,-2.8291,-2.8291,-2.8291,-2.8213,-2.8047,-2.8047,-2.7832,-2.7402,-2.7402,-2.7187,-2.6768,-2.6768,-2.6543,-3.0075,-2.9972,-2.988,-3.0281,-3.0645,-3.1097,-3.18,-3.229,-3.2667,-3.3048,-3.3124,-3.3124,-3.3124,-3.3124,-3.3124,-3.3124,-3.401,-3.468,-3.468,-3.6621,-3.8002,-3.8002,-3.9007,-3.9697,-3.9697,-3.9697,-3.9697,-3.9697,-3.9697,-3.9697,-3.9697,-3.9697,-3.9697,-3.9697,-3.9697,-3.9697,-3.9697,-3.9697,-3.9697,-3.9697,-3.9362,-3.9141,-3.9141,-3.9141,-3.8973,-3.8699,-3.8921,-3.8921,-3.8712,-3.8319,-3.8003,-3.7856,-3.7524,-3.6654,-3.5674,-3.5674,-3.5113,-3.4391,-3.4269,-3.4112,-3.3899,-3.3765,-3.2995,-3.218,-3.218,-3.1566,-3.0889,-3.0889,-3.0889,-3.0889,-3.0889,-3.0889,-3.0889,-3.0889,-3.0889,-3.0889,-3.0889,-3.0889,-3.0889,-3.0889,-3.0889,-3.0889,-3.0889,-3.0889,-3.0889,-3.0889,-3.0889,-3.0889,-3.0889,-3.0605,-3.0342,-3.0215,-2.9658,-2.9072,-2.8525,-2.8369,-2.8291,-2.8291,-2.8291,-2.8291,-2.8291,-2.8291,-2.8291,-2.8291,-2.8291,-2.8144,-2.7851,-2.7851,-2.7637,-2.7207,-2.7207,-2.6982,-3.0683,-3.0343,-2.9792,-2.9804,-2.9804,-3.0093,-3.116,-3.1399,-3.1725,-3.2855,-3.3124,-3.3124,-3.3124,-3.3124,-3.3124,-3.3124,-3.401,-3.468,-3.468,-3.6621,-3.8002,-3.8002,-3.9007,-3.9697,-3.9697,-3.9697,-3.9697,-3.9697,-3.9697,-3.9697,-3.9697,-3.9697,-3.9697,-3.9697,-3.9697,-3.9697,-3.9697,-3.9697,-3.9697,-3.9697,-3.8489,-3.795,-3.795,-3.795,-3.7287,-3.6294,-3.7145,-3.753,-3.7406,-3.5956,-3.5847,-3.6511,-3.5354,-3.4703,-3.4391,-3.4391,-3.4391,-3.4224,-3.313,-3.2742,-3.2514,-3.1344,-3.0947,-3.0889,-3.0889,-3.0889,-3.0889,-3.0889,-3.0889,-3.0889,-3.0889,-3.0889,-3.0889,-3.0889,-3.0889,-3.0889,-3.0889,-3.0889,-3.0889,-3.0889,-3.0889,-3.0889,-3.0889,-3.0889,-3.0889,-3.0889,-3.0889,-3.0889,-3.0889,-3.0889,-3.0703,-3.0244,-3.0185,-2.9834,-2.8984,-2.8535,-2.8291,-2.8291,-2.8291,-2.8291,-2.8291,-2.8291,-2.8291,-2.8291,-2.8291,-2.8291,-2.8281,-2.8281,-2.8066,-2.7708,-2.7708,-2.7422,-3.0062,-2.9972,-2.9792,-2.9792,-3.008,-3.0532,-3.1235,-3.1675,-3.2164,-3.2918,-3.3124,-3.3124,-3.3124,-3.3124,-3.3124,-3.3124,-3.401,-3.468,-3.468,-3.6621,-3.8002,-3.8002,-3.9007,-3.9697,-3.9697,-3.9697,-3.9697,-3.9697,-3.9697,-3.9697,-3.9697,-3.9697,-3.9697,-3.9697,-3.9697,-3.9697,-3.9697,-3.8868,-3.8489,-3.8437,-3.7287,-3.6738,-3.6738,-3.6738,-3.6402,-3.589,-3.6162,-3.6065,-3.5695,-3.5245,-3.5035,-3.5046,-3.4714,-3.4,-3.3233,-3.3233,-3.2732,-3.195,-3.1614,-3.145,-3.1392,-3.1005,-3.0889,-3.0889,-3.0889,-3.0889,-3.0889,-3.0889,-3.0889,-3.0889,-3.0889,-3.0889,-3.0889,-3.0889,-3.0889,-3.0889,-3.0889,-3.0889,-3.0889,-3.0889,-3.0889,-3.0889,-3.0889,-3.0889,-3.0889,-3.0889,-3.0889,-3.0889,-3.0889,-3.0889,-3.083,-3.0684,-3.0391,-2.9971,-2.9414,-2.8975,-2.8721,-2.8721,-2.8447,-2.8291,-2.8291,-2.8291,-2.8291,-2.8291,-2.8291,-2.8291,-2.8291,-2.8291,-2.8223,-2.8086,-2.7855,-2.764,-2.9792,-2.9792,-2.9792,-2.9792,-3.0043,-3.0444,-3.0984,-3.1512,-3.2064,-3.2629,-3.2918,-3.3124,-3.3124,-3.3124,-3.3124,-3.3124,-3.401,-3.468,-3.468,-3.6621,-3.8165,-3.8592,-3.927,-3.9697,-3.9697,-3.9697,-3.9697,-3.9697,-3.9697,-3.9697,-3.9697,-3.9697,-3.9697,-3.9697,-3.9697,-3.9697,-3.9697,-3.8489,-3.7897,-3.7885,-3.6306,-3.5553,-3.5553,-3.5553,-3.5157,-3.4425,-3.4736,-3.4626,0.0,-3.3596,-3.3551,-3.373,-3.3289,-3.2675,-3.2008,-3.2008,-3.1566,-3.0889,-3.0889,-3.0889,-3.0889,-3.0889,-3.0889,-3.0889,-3.0889,-3.0889,-3.0889,-3.0889,-3.0889,-3.0889,-3.0889,-3.0889,-3.0889,-3.0889,-3.0889,-3.0889,-3.0889,-3.0889,-3.0889,-3.0889,-3.0889,-3.0889,-3.0889,-3.0889,-3.0889,-3.0889,-3.0889,-3.0889,-3.0889,-3.0889,-3.0889,-3.0889,-3.0635,-3.0351,-3.0088,-2.9512,-2.9092,-2.8926,-2.8672,-2.8457,-2.8301,-2.8291,-2.8291,-2.8291,-2.8291,-2.8291,-2.8291,-2.8291,-2.8291,-2.8281,-2.8027,-2.791,0.0,-2.9792,-2.9792,-2.9792,-2.9792,-2.9942,-3.0495,-3.1022,0.0,-3.2102,-3.2667,-3.3124,-3.3124,-3.3124,-3.3124,-3.3124,-3.401,-3.468,-3.468,-3.6621,-3.8429,-3.9559,-3.9697,-3.9697,-3.9697,-3.9697,-3.9697,-3.9697,-3.9697,-3.9697,-3.9697,-3.9697,-3.9697,-3.9697,-3.9633,-3.9633,-3.9697,-3.8437,-3.7779,-3.7725,-3.5454,-3.4368,-3.4368,-3.4368,-3.3582,-3.2305,-3.3031,-3.3191,-3.2846,-3.1441,-3.1566,-3.2467,-3.1344,-3.0889,-3.0889,-3.0889,-3.0889,-3.0889,-3.0889,-3.0889,-3.0889,-3.0889,-3.0889,-3.0889,-3.0889,-3.0889,-3.0889,-3.0889,-3.0889,-3.0889,-3.0889,-3.0889,-3.0889,-3.0889,-3.0889,-3.0889,-3.0889,-3.0889,-3.0889,-3.0889,-3.0889,-3.0889,-3.0889,-3.0889,-3.0889,-3.0889,-3.0889,-3.0889,-3.0889,-3.0889,-3.0889,-3.0889,-3.0889,-3.0889,-3.0889,-3.0107,-2.9443,-2.9033,-2.8955,-2.874,-2.8359,-2.831,-2.8291,-2.8291,-2.8291,-2.8291,-2.8291,-2.8291,-2.8291,-2.8291,-2.8291,-2.8291,-2.9792,0.0,-2.9792,-2.9792,-2.9792,-2.9942,0.0,-3.1022,-3.1549,-3.2102,-3.2667,-3.3124,-3.3124,-3.3124,-3.3124,-3.3124,-3.401,-3.468,-3.468,-3.6621,-3.8429,-3.9559,-3.9697,-3.9697,-3.9697,-3.9697,-3.9697,-3.9697,-3.9697,-3.9697,-3.9697,-3.9697,-3.9697,-3.9697,-3.8816,-3.8764,-3.9697,-3.766,-3.6576,-3.6576,-3.4256,-3.3105,-3.3115,-3.2924,-3.2467,-3.1903,-3.1825,-3.1662,-3.1392,-3.1054,-3.1064,-3.1286,-3.1005,-3.0889,-3.0889,-3.0889,-3.0889,-3.0889,-3.0889,-3.0889,-3.0889,-3.0889,-3.0889,-3.0889,-3.0889,-3.0889,-3.0889,-3.0889,-3.0889,-3.0889,-3.0889,-3.0889,-3.0889,-3.0889,-3.0889,-3.0889,-3.0889,-3.0889,-3.0889,-3.0889,-3.0889,-3.0889,-3.0889,-3.0889,-3.0889,-3.0889,-3.0889,-3.0889,-3.0889,-3.0889,-3.0889,-3.0889,-3.0889,-3.0889,-3.0889,-3.0371,-3.001,-2.9902,-2.9277,-2.8877,-2.8779,-2.8467,-2.8291,-2.8291,-2.8291,-2.8291,-2.8291,-2.8291,-2.8291,-2.8291,-2.8291,-2.8291,-2.9792,-2.9792,-2.9792,-2.9792,-2.9792,-2.988,-3.0168,-3.0834,-3.1474,-3.1775,-3.2503,-3.3124,-3.3124,-3.3124,-3.3156,-3.342,-3.4173,-3.5031,-3.6081,-3.7249,-3.8429,-3.9559,-3.9697,-3.9697,-3.9697,-3.9697,-3.9697,-3.9697,-3.9697,-3.9697,-3.9697,-3.9697,-3.9697,-3.9697,-3.8542,-3.8214,-3.8868,-3.6588,-3.5443,-3.5388,-3.3547,-3.2669,-3.2669,-3.243,-3.2133,-3.1787,-3.1441,-3.116,-3.0889,-3.0889,-3.0889,-3.0889,-3.0889,-3.0889,-3.0889,-3.0889,-3.0889,-3.0889,-3.0889,-3.0889,-3.0889,-3.0889,-3.0889,-3.0889,-3.0889,-3.0889,-3.0889,-3.0889,-3.0889,-3.0889,-3.0889,-3.0889,-3.0889,-3.0889,-3.0889,-3.0889,-3.0889,-3.0889,-3.0889,-3.0889,-3.0889,-3.0889,-3.0889,-3.0889,-3.0889,-3.0889,-3.0889,-3.0889,-3.0889,-3.0889,-3.0889,-3.0889,-3.0889,-3.0889,-3.0889,-3.0664,-3.042,-3.0205,-2.9766,-2.9336,-2.8935,-2.8701,-2.8496,-2.8301,-2.8291,-2.8291,-2.8291,-2.8291,-2.8291,-2.8291,-2.8291,-2.8291,-2.9792,-2.9792,-2.9792,-2.9792,-2.9792,-2.9792,-2.9792,-3.0557,-3.1298,-3.1373,-3.2215,-3.2968,-3.3056,-3.3124,-3.3257,-3.3809,-3.4437,-3.5592,-3.7713,-3.8002,-3.8429,-3.9559,-3.9697,-3.9697,-3.9697,-3.9697,-3.9697,-3.9697,-3.9697,-3.9697,-3.9697,-3.9697,-3.9697,-3.9697,-3.8372,-3.7619,-3.7619,-3.5553,-3.448,-3.448,-3.3275,-3.2669,-3.2612,-3.2373,-3.2018,-3.173,-3.1392,-3.1112,-3.0889,-3.0889,-3.0889,-3.0889,-3.0889,-3.0889,-3.0889,-3.0889,-3.0889,-3.0889,-3.0889,-3.0889,-3.0889,-3.0889,-3.0889,-3.0889,-3.0889,-3.0889,-3.0889,-3.0889,-3.0889,-3.0889,-3.0889,-3.0889,-3.0889,-3.0889,-3.0889,-3.0889,-3.0889,-3.0889,-3.0889,-3.0889,-3.0889,-3.0889,-3.0889,-3.0889,-3.0889,-3.0889,-3.0889,-3.0889,-3.0889,-3.0889,-3.0889,-3.0889,-3.0889,-3.0889,-3.0889,-3.0889,-3.0723,-3.0332,-3.0234,-2.9844,-2.9053,-2.8955,-2.875,-2.8398,-2.833,-2.8291,-2.8291,-2.8291,-2.8291,-2.8291,-2.8291,-2.8291,-2.9792,-2.9792,-2.9792,-2.9792,-2.9792,-2.9792,-2.9792,-3.0281,-3.0859,-3.1298,-3.1901,-3.2491,-3.2993,-3.3124,-3.3257,-3.3809,-3.4705,-3.5972,-3.7764,-3.8002,-3.8429,-3.9559,-3.9697,-3.9697,-3.9697,-3.9697,-3.9697,-3.9697,-3.9697,-3.9697,-3.9697,-3.9697,-3.9697,-3.9697,-3.7607,-3.6468,-3.6468,-3.5179,-3.448,-3.448,-3.3275,-3.2555,-3.2373,-3.2018,-3.1672,-3.1392,-3.1054,-3.0947,-3.0889,-3.0889,-3.0889,-3.0889,-3.0889,-3.0889,-3.0889,-3.0889,-3.0889,-3.0889,-3.0889,-3.0889,-3.0889,-3.0889,-3.0889,-3.0889,-3.0889,-3.0889,-3.0889,-3.0889,-3.0889,-3.0889,-3.0889,-3.0889,-3.0889,-3.0889,-3.0889,-3.0889,-3.0889,-3.0889,-3.0889,-3.0889,-3.0889,-3.0889,-3.0889,-3.0889,-3.0889,-3.0889,-3.0889,-3.0889,-3.0889,-3.0889,-3.0889,-3.0889,-3.0889,-3.0889,-3.0889,-3.0889,-3.0859,-3.0791,-3.042,-2.998,-2.9492,-2.9111,-2.8887,-2.8818,-2.8476,-2.8291,-2.8291,-2.8291,-2.8291,-2.8291,-2.8291,-2.8291,-2.9792,-2.9792,-2.9792,-2.9792,-2.9792,-2.9792,-2.9792,-3.0432,-3.1097,-3.1336,-3.2077,-3.2754,-3.3074,-3.3319,-3.3796,-3.465,-3.5466,-3.6458,-3.7814,-3.8002,-3.8429,-3.9559,-3.9697,-3.9697,-3.9697,-3.9697,-3.9697,-3.9697,-3.9697,-3.9697,-3.9697,-3.9697,-3.9697,-3.9697,-3.7447,-3.6185,-3.6185,-3.4413,-3.3547,-3.3491,-3.282,-3.243,-3.2305,-3.1787,-3.1441,-3.1267,-3.0995,-3.0889,-3.0889,-3.0889,-3.0889,-3.0889,-3.0889,-3.0889,-3.0889,-3.0889,-3.0889,-3.0889,-3.0889,-3.0889,-3.0889,-3.0889,-3.0889,-3.0889,-3.0889,-3.0889,-3.0889,-3.0889,-3.0889,-3.0889,-3.0889,-3.0889,-3.0889,-3.0889,-3.0889,-3.0889,-3.0889,-3.0889,-3.0889,-3.0889,-3.0889,-3.0889,-3.0889,-3.0889,-3.0889,-3.0889,-3.0889,-3.0889,-3.0889,-3.0889,-3.0889,-3.0889,-3.0889,-3.0889,-3.0889,-3.0889,-3.0889,-3.0889,-3.0449,-3.0107,-2.9912,-2.9502,-2.9268,-2.9268,-2.8848,-2.8633,-2.8633,-2.8398,-2.8291,-2.8291,-2.8291,-2.8291,-2.9792,-2.9792,-2.9792,-2.9792,-2.9792,-2.9829,-2.9955,-3.062,-3.1273,-3.1537,-3.2265,-3.2955,-3.3219,-3.3822,-3.4562,-3.5357,-3.6107,-3.6945,-3.7864,-3.8128,-3.858,-3.9572,-3.9697,-3.9697,-3.9697,-3.9697,-3.9697,-3.9697,-3.9697,-3.9697,-3.9697,-3.9697,-3.9697,-3.9697,-3.766,-3.6468,-3.6185,-3.4145,-3.3001,-3.2669,-3.243,-3.2248,-3.2133,-3.1556,-3.1276,-3.1218,-3.0995,-3.0889,-3.0889,-3.0889,-3.0889,-3.0889,-3.0889,-3.0889,-3.0889,-3.0889,-3.0889,-3.0889,-3.0889,-3.0889,-3.0889,-3.0889,-3.0889,-3.0889,-3.0889,-3.0889,-3.0889,-3.0889,-3.0889,-3.0889,-3.0889,-3.0889,-3.0889,-3.0889,-3.0889,-3.0889,-3.0889,-3.0889,-3.0889,-3.0889,-3.0889,-3.0889,-3.0889,-3.0889,-3.0889,-3.0889,-3.0889,-3.0889,-3.0889,-3.0889,-3.0889,-3.0889,-3.0889,-3.0889,-3.0889,-3.0889,-3.0889,-3.0889,-3.0557,-3.0361,-3.0361,-2.9941,-2.9717,-2.9717,-2.9287,-2.9072,-2.9072,-2.8643,-2.8437,-2.8437,-2.834,-2.8291,-2.9792,-2.9792,-2.9792,-2.9792,-2.9792,-2.993,-3.0444,-3.062,-3.0959,-3.1951,-3.2215,-3.2591,-3.3646,-3.4713,-3.5408,-3.5483,-3.6433,-3.7324,-3.7927,-3.8467,-3.9032,-3.9622,-3.9697,-3.9697,-3.9697,-3.9697,-3.9697,-3.9697,-3.9697,-3.9697,-3.9697,-3.9697,-3.9697,-3.9697,-3.8437,-3.7287,-3.6185,-3.4958,-3.3829,-3.2669,-3.243,-3.2133,-3.1845,-3.1441,-3.116,-3.0947,-3.0889,-3.0889,-3.0889,-3.0889,-3.0889,-3.0889,-3.0889,-3.0889,-3.0889,-3.0889,-3.0889,-3.0889,-3.0889,-3.0889,-3.0889,-3.0889,-3.0889,-3.0889,-3.0889,-3.0889,-3.0889,-3.0889,-3.0889,-3.0889,-3.0889,-3.0889,-3.0889,-3.0889,-3.0889,-3.0889,-3.0889,-3.0889,-3.0889,-3.0889,-3.0889,-3.0889,-3.0889,-3.0889,-3.0889,-3.0889,-3.0889,-3.0889,-3.0889,-3.0889,-3.0889,-3.0889,-3.0889,-3.0889,-3.0889,-3.0889,-3.0889,-3.0889,-3.0859,-3.084,-3.084,-3.04,-3.0156,-3.0156,-2.9736,-2.9521,-2.9521,-2.9082,-2.8877,-2.8867,-2.8476,-2.8291,-2.9792,-2.9792,-2.9792,-2.9792,-3.0043,-3.0357,-3.057,-3.0871,-3.1311,-3.2051,-3.2503,-3.3093,-3.4211,-3.4994,-3.5608,-3.5994,-3.6684,-3.7374,-3.7927,-3.8504,-3.9082,-3.9634,-3.9697,-3.9697,-3.9697,-3.9697,-3.9697,-3.9697,-3.9697,-3.9697,-3.9697,-3.9697,-3.9697,-3.9697,-3.7832,-3.663,-3.6185,-3.4179,-3.2924,-3.243,-3.2133,-3.1903,-3.1787,-3.1286,-3.1005,-3.0889,-3.0889,-3.0889,-3.0889,-3.0889,-3.0889,-3.0889,-3.0889,-3.0889,-3.0889,-3.0889,-3.0889,-3.0889,-3.0889,-3.0889,-3.0889,-3.0889,-3.0889,-3.0889,-3.0889,-3.0889,-3.0889,-3.0889,-3.0889,-3.0889,-3.0889,-3.0889,-3.0889,-3.0889,-3.0889,-3.0889,-3.0889,-3.0889,-3.0889,-3.0889,-3.0889,-3.0889,-3.0889,-3.0889,-3.0889,-3.0889,-3.0889,-3.0889,-3.0889,-3.0889,-3.0889,-3.0889,-3.0889,-3.0889,-3.0889,-3.0889,-3.0889,-3.0889,-3.0889,-3.0889,-3.0889,-3.0723,-3.0635,-3.0635,-3.0185,-2.9961,-2.9961,-2.9531,-2.9326,-2.9316,-2.8887,-2.8682,-2.9792,-2.9792,-2.9792,-2.9792,-3.0206,-3.0658,-3.0821,-3.1273,-3.1813,-3.2365,-3.3081,-3.3884,-3.4768,-3.5382,-3.5981,-3.6581,-3.7086,-3.7638,-3.8203,-3.8768,-3.927,-3.9647,-3.9697,-3.9697,-3.9697,-3.9697,-3.9697,-3.9697,-3.9697,-3.9697,-3.9697,-3.9697,-3.9697,-3.9697,-3.7713,-3.6457,-3.6065,-3.3821,-3.2514,-3.2133,-3.1787,-3.1614,-3.1624,-3.1122,-3.0889,-3.0889,-3.0889,-3.0889,-3.0889,-3.0889,-3.0889,-3.0889,-3.0889,-3.0889,-3.0889,-3.0889,-3.0889,-3.0889,-3.0889,-3.0889,-3.0889,-3.0889,-3.0889,-3.0889,-3.0889,-3.0889,-3.0889,-3.0889,-3.0889,-3.0889,-3.0889,-3.0889,-3.0889,-3.0889,-3.0889,-3.0889,-3.0889,-3.0889,-3.0889,-3.0889,-3.0889,-3.0889,-3.0889,-3.0889,-3.0889,-3.0889,-3.0889,-3.0889,-3.0889,-3.0889,-3.0889,-3.0889,-3.0889,-3.0889,-3.0889,-3.0889,-3.0889,-3.0889,-3.0889,-3.0889,-3.0889,-3.0889,-3.0889,-3.0889,-3.0576,-3.042,-3.042,-2.998,-2.9766,-2.9756,-2.9326,-2.9121,-2.9792,-2.9792,-2.9792,-2.9792,-3.0218,-3.0758,-3.1273,-3.1813,-3.2378,-3.2968,-3.396,-3.4843,-3.5395,-3.5994,-3.6593,-3.7098,-3.7651,-3.8203,-3.8844,-3.9346,-3.9697,-3.9697,-3.9697,-3.9697,-3.9697,-3.9697,-3.9697,-3.9697,-3.9697,-3.9697,-3.9697,-3.9697,-3.9685,-3.9685,-3.8243,-3.6918,-3.5672,-3.4225,-3.2918,-3.1787,-3.1441,-3.1325,-3.1267,-3.0995,-3.0889,-3.0889,-3.0889,-3.0889,-3.0889,-3.0889,-3.0889,-3.0889,-3.0889,-3.0889,-3.0889,-3.0889,-3.0889,-3.0889,-3.0889,-3.0889,-3.0889,-3.0889,-3.0889,-3.0889,-3.0889,-3.0889,-3.0889,-3.0889,-3.0889,-3.0889,-3.0889,-3.0889,-3.0889,-3.0889,-3.0889,-3.0889,-3.0889,-3.0889,-3.0889,-3.0889,-3.0889,-3.0889,-3.0889,-3.0889,-3.0889,-3.0889,-3.0889,-3.0889,-3.0889,-3.0889,-3.0889,-3.0889,-3.0889,-3.0889,-3.0889,-3.0889,-3.0889,-3.0889,-3.0889,-3.0889,-3.0889,-3.0889,-3.0889,-3.0889,-3.0889,-3.0889,-3.0889,-3.043,-3.0205,-3.0195,-2.9766,-2.9636,-2.9792,-2.9792,-2.9792,-2.9792,-3.0482,-3.1198,-3.1348,-3.1813,-3.2491,-3.3458,-3.4223,-3.4843,-3.5395,-3.5994,-3.6593,-3.7098,-3.7651,-3.8203,-3.8844,-3.9346,-3.9697,-3.9697,-3.9697,-3.9697,-3.9697,-3.9697,-3.9697,-3.9697,-3.9697,-3.9697,-3.9697,-3.9697,-3.9245,-3.819,-3.6918,-3.5551,-3.417,-3.269,-3.1767,-3.1441,-3.117,-3.1112,-3.1267,-3.0995,-3.0889,-3.0889,-3.0889,-3.0889,-3.0889,-3.0889,-3.0889,-3.0889,-3.0889,-3.0889,-3.0889,-3.0889,-3.0889,-3.0889,-3.0889,-3.0889,-3.0889,-3.0889,-3.0889,-3.0889,-3.0889,-3.0889,-3.0889,-3.0889,-3.0889,-3.0889,-3.0889,-3.0889,-3.0889,-3.0889,-3.0889,-3.0889,-3.0889,-3.0889,-3.0889,-3.0889,-3.0889,-3.0889,-3.0889,-3.0889,-3.0889,-3.0889,-3.0889,-3.0889,-3.0889,-3.0889,-3.0889,-3.0889,-3.0889,-3.0889,-3.0889,-3.0889,-3.0889,-3.0889,-3.0889,-3.0889,-3.0889,-3.0889,-3.0889,-3.0889,-3.0889,-3.0889,-3.0889,-3.0752,-3.0684,-3.0674,-3.0225,-3.001,-2.9792,-2.9792,-2.9792,-2.9792,-3.0595,-3.1512,-3.1951,-3.2491,-3.3144,-3.4048,-3.4618,-3.5169,-3.5768,-3.6132,-3.6669,-3.7387,-3.7789,-3.8291,-3.9082,-3.9484,-3.9697,-3.9697,-3.9697,-3.9697,-3.9697,-3.9697,-3.9697,-3.9697,-3.9697,-3.9697,-3.9697,-3.9697,-3.9245,-3.8243,-3.6499,-3.5068,-3.4069,-3.2092,-3.116,-3.116,-3.1005,-3.1005,-3.116,-3.0937,-3.0889,-3.0889,-3.0889,-3.0889,-3.0889,-3.0889,-3.0889,-3.0889,-3.0889,-3.0889,-3.0889,-3.0889,-3.0889,-3.0889,-3.0889,-3.0889,-3.0889,-3.0889,-3.0889,-3.0889,-3.0889,-3.0889,-3.0889,-3.0889,-3.0889,-3.0889,-3.0889,-3.0889,-3.0889,-3.0889,-3.0889,-3.0889,-3.0889,-3.0889,-3.0889,-3.0889,-3.0889,-3.0889,-3.0889,-3.0889,-3.0889,-3.0889,-3.0889,-3.0889,-3.0889,-3.0889,-3.0889,-3.0889,-3.0889,-3.0889,-3.0889,-3.0889,-3.0889,-3.0889,-3.0889,-3.0889,-3.0889,-3.0889,-3.0889,-3.0889,-3.0889,-3.0645,-3.0089,-3.0089,-2.9853,-2.9362,-2.9043,-2.8913,-2.9792,-2.9792,-2.9804,-2.9854,-3.067,-3.175,-3.283,-3.3545,-3.411,-3.4613,-3.5119,-3.5658,-3.6304,-3.6405,-3.6769,-3.7826,-3.8002,-3.8404,-3.9534,-3.9697,-3.9697,-3.9697,-3.9697,-3.9697,-3.9697,-3.9697,-3.9697,-3.9697,-3.9697,-3.9697,-3.9697,-3.9697,-3.9478,-3.9102,-3.6619,-3.5079,-3.4703,-3.216,-3.0889,-3.0889,-3.0889,-3.0889,-3.0889,-3.0889,-3.0889,-3.0889,-3.0889,-3.0889,-3.0889,-3.0889,-3.0889,-3.0889,-3.0889,-3.0889,-3.0889,-3.0889,-3.0889,-3.0889,-3.0889,-3.0889,-3.0889,-3.0889,-3.0889,-3.0889,-3.0889,-3.0889,-3.0889,-3.0889,-3.0889,-3.0889,-3.0889,-3.0889,-3.0889,-3.0889,-3.0889,-3.0889,-3.0889,-3.0889,-3.0889,-3.0889,-3.0889,-3.0889,-3.0889,-3.0889,-3.0889,-3.0889,-3.0889,-3.0889,-3.0889,-3.0889,-3.0889,-3.0889,-3.0889,-3.0889,-3.0889,-3.0889,-3.083,-3.0704,-3.0704,-3.0704,-3.0704,-3.083,-3.0889,-3.0889,-3.0889,-3.0216,-2.892,-2.892,-2.8265,-2.7013,-2.7013,-2.7013,-2.9792,-2.9792,-2.9892,-3.0331,-3.1235,-3.2215,-3.296,-3.3847,-3.4575,-3.47,-3.5119,-3.5658,-3.6304,-3.6405,-3.6769,-3.7826,-3.8002,-3.8404,-3.9534,-3.9697,-3.9697,-3.9697,-3.9697,-3.9697,-3.9697,-3.9697,-3.9697,-3.9697,-3.9697,-3.9697,-3.9697,-3.9478,-3.8828,-3.7631,-3.5913,-3.4425,-3.3176,-3.1672,-3.0889,-3.0889,-3.0889,-3.0889,-3.0889,-3.0889,-3.0889,-3.0889,-3.0889,-3.0889,-3.0889,-3.0889,-3.0889,-3.0889,-3.0889,-3.0889,-3.0889,-3.0889,-3.0889,-3.0889,-3.0889,-3.0889,-3.0889,-3.0889,-3.0889,-3.0889,-3.0889,-3.0889,-3.0889,-3.0889,-3.0889,-3.0889,-3.0889,-3.0889,-3.0889,-3.0889,-3.0889,-3.0889,-3.0889,-3.0889,-3.0889,-3.0889,-3.0889,-3.0889,-3.0889,-3.0889,-3.0889,-3.0889,-3.0889,-3.0889,-3.0889,-3.0889,-3.0889,-3.0889,-3.0889,-3.0889,-3.0889,-3.0889,-3.046,-2.9412,-2.9353,-2.9353,-2.9353,-3.0333,-3.0889,-3.0889,-3.0889,-3.0216,-2.892,-2.892,-2.8265,-2.7013,-2.7013,-2.7013,-2.9792,-2.9792,-2.998,-3.0783,-3.1599,-3.2365,-3.2943,-3.3935,-3.468,-3.468,-3.5366,-3.6031,-3.6355,-3.6405,-3.6769,-3.7826,-3.8002,-3.8404,-3.9534,-3.9697,-3.9697,-3.9697,-3.9697,-3.9697,-3.9697,-3.9697,-3.9697,-3.9697,-3.9697,-3.9633,-3.953,-3.9374,-3.8828,-3.7749,-3.5913,-3.4425,-3.3515,-3.1787,-3.0889,-3.0889,-3.0889,-3.0889,-3.0889,-3.0889,-3.0889,-3.0889,-3.0889,-3.0889,-3.0889,-3.0889,-3.0889,-3.0889,-3.0889,-3.0889,-3.0889,-3.0889,-3.0889,-3.0889,-3.0889,-3.0889,-3.0889,-3.0889,-3.0889,-3.0889,-3.0889,-3.0889,-3.0889,-3.0889,-3.0889,-3.0889,-3.0889,-3.0889,-3.0889,-3.0889,-3.0889,-3.0889,-3.0889,-3.0889,-3.0889,-3.0889,-3.0889,-3.0889,-3.0889,-3.0889,-3.0889,-3.0889,-3.0889,-3.0889,-3.0889,-3.0889,-3.0889,-3.0889,-3.0333,-2.9962,-2.9962,-2.9372,-2.8701,-2.8026,-2.7829,-2.776,-2.776,-2.8247,-2.892,-2.9707,-2.9608,-2.8573,-2.6616,-2.6616,-2.5956,-2.4625,-2.4625,-2.4625,-2.9792,-2.993,-3.0281,-3.1173,-3.1876,-3.2491,-3.3011,-3.3935,-3.468,-3.468,-3.5592,-3.6405,-3.6405,-3.6405,-3.6769,-3.7826,-3.8002,-3.8404,-3.9534,-3.9697,-3.9697,-3.9697,-3.9697,-3.9697,-3.9697,-3.9697,-3.9697,-3.9697,-3.9645,-3.953,-3.931,-3.9206,-3.8828,-3.8133,-3.5968,-3.4603,-3.4112,-3.195,-3.0889,-3.0889,-3.0889,-3.0889,-3.0889,-3.0889,-3.0889,-3.0889,-3.0889,-3.0889,-3.0889,-3.0889,-3.0889,-3.0889,-3.0889,-3.0889,-3.0889,-3.0889,-3.0889,-3.0889,-3.0889,-3.0889,-3.0889,-3.0889,-3.0889,-3.0889,-3.0889,-3.0889,-3.0889,-3.0889,-3.0889,-3.0889,-3.0889,-3.0889,-3.0889,-3.0889,-3.0889,-3.0889,-3.0889,-3.0889,-3.0889,-3.0889,-3.0889,-3.0889,-3.0889,-3.0889,-3.0889,-3.0889,-3.0889,-3.0889,-3.0889,-3.0889,-3.0889,-3.0889,-2.9717,-2.892,-2.892,-2.7667,-2.6831,-2.6589,-2.6252,-2.6122,-2.6122,-2.5749,-2.6227,-2.7572,-2.7649,-2.6512,-2.407,-2.407,-2.3395,-2.2111,-2.2111,-2.2111,-2.9792,-3.047,-3.121,-3.1348,-3.2177,-3.298,-3.3056,-3.3935,-3.468,-3.468,-3.5592,-3.6405,-3.6405,-3.6405,-3.6769,-3.7826,-3.8002,-3.8404,-3.9534,-3.9697,-3.9697,-3.9697,-3.9697,-3.9697,-3.9697,-3.9697,-3.9697,-3.9697,-3.9478,-3.9322,-3.931,-3.8788,-3.8015,-3.69,-3.5322,-3.3944,-3.296,-3.1566,-3.0889,-3.0889,-3.0889,-3.0889,-3.0889,-3.0889,-3.0889,-3.0889,-3.0889,-3.0889,-3.0889,-3.0889,-3.0889,-3.0889,-3.0889,-3.0889,-3.0889,-3.0889,-3.0889,-3.0889,-3.0889,-3.0889,-3.0889,-3.0889,-3.0889,-3.0889,-3.0889,-3.0889,-3.0889,-3.0889,-3.0889,-3.0889,-3.0889,-3.0889,-3.0889,-3.0889,-3.0889,-3.0889,-3.0889,-3.0889,-3.0889,-3.0889,-3.0889,-3.0889,-3.0889,-3.0889,-3.0889,-3.0889,-3.0889,-3.0889,-3.0889,-3.0889,-3.0889,-3.0889,-2.9717,-2.892,-2.892,-2.746,-2.6131,-2.5002,-2.4625,-2.4432,-2.4432,-2.4124,-2.3993,-2.424,-2.5566,-2.5574,-2.407,-2.407,-2.3395,-2.2111,-2.2111,-2.2111,-3.0168,-3.0809,-3.1461,-3.1775,-3.2466,-3.3124,-3.3124,-3.3935,-3.468,-3.468,-3.5592,-3.6405,-3.6405,-3.6405,-3.6769,-3.7826,-3.8002,-3.8404,-3.9534,-3.9697,-3.9697,-3.9697,-3.9697,-3.9697,-3.9697,-3.9697,-3.9645,-3.9478,-3.9374,-3.9154,-3.8788,-3.8514,-3.808,-3.7418,-3.5432,-3.4168,-3.3674,-3.1835,-3.0889,-3.0889,-3.0889,-3.0889,-3.0889,-3.0889,-3.0889,-3.0889,-3.0889,-3.0889,-3.0889,-3.0889,-3.0889,-3.0889,-3.0889,-3.0889,-3.0889,-3.0889,-3.0889,-3.0889,-3.0889,-3.0889,-3.0889,-3.0889,-3.0889,-3.0889,-3.0889,-3.0889,-3.0889,-3.0889,-3.0889,-3.0889,-3.0889,-3.0889,-3.0889,-3.0889,-3.0889,-3.0889,-3.0889,-3.0889,-3.0889,-3.0889,-3.0889,-3.0889,-3.0889,-3.0889,-3.0889,-3.0889,-3.0889,-3.0889,-3.0889,-3.0762,-3.0323,-2.9589,-2.8137,-2.6987,-2.6252,-2.4848,-2.3814,-2.3216,-2.2904,-2.2724,-2.2724,-2.2411,-2.2223,-2.2223,-2.3621,-2.3745,-2.2411,-2.2411,-2.2097,-2.1544,-2.1544,-2.1544,-3.047,-3.0997,-3.1524,-3.2077,-3.2641,-3.3124,-3.3124,-3.3822,-3.455,-3.4688,-3.5479,-3.6194,-3.638,-3.6405,-3.6719,-3.7638,-3.7914,-3.8354,-3.9346,-3.9597,-3.9697,-3.9697,-3.9697,-3.9697,-3.9697,-3.9697,-3.9581,-3.931,-3.9206,-3.8945,-3.8409,-3.8356,-3.8092,-3.7548,-3.5498,-3.428,-3.3944,-3.195,-3.0889,-3.0889,-3.0889,-3.0889,-3.0889,-3.0889,-3.0889,-3.0889,-3.0889,-3.0889,-3.0889,-3.0889,-3.0889,-3.0889,-3.0889,-3.0889,-3.0889,-3.0889,-3.0889,-3.0889,-3.0889,-3.0889,-3.0889,-3.0889,-3.0889,-3.0889,-3.0889,-3.0889,-3.0889,-3.0889,-3.0889,-3.0889,-3.0889,-3.0889,-3.0889,-3.0889,-3.0889,-3.0889,-3.0889,-3.0889,-3.0889,-3.0889,-3.0889,-3.0889,-3.0889,-3.0889,-3.0889,-3.0889,-3.0889,-3.0889,-3.0889,-3.0323,-2.9521,-2.8477,-2.6677,-2.5101,-2.4193,-2.2779,-2.1985,-2.1985,-2.167,-2.1481,-2.1481,-2.1235,-2.1109,-2.1109,-2.209,-2.209,-2.1109,-2.1109,-2.1109,-2.1109,-2.1109,-2.1109,-3.047,-3.0997,-3.1524,-3.2077,-3.2641,-3.3124,-3.3124,-3.3533,-3.4085,-3.4613,-3.5144,-3.5696,-3.6304,-3.6405,-3.6593,-3.7136,-3.7663,-3.8216,-3.8831,-3.9371,-3.9697,-3.9697,-3.9697,-3.9697,-3.9697,-3.9697,-3.9581,-3.931,-3.901,-3.8684,-3.8421,-3.8145,-3.7495,-3.6352,-3.5057,-3.3899,-3.2799,-3.1508,-3.0889,-3.0889,-3.0889,-3.0889,-3.0889,-3.0889,-3.0889,-3.0889,-3.0889,-3.0889,-3.0889,-3.0889,-3.0889,-3.0889,-3.0889,-3.0889,-3.0889,-3.0889,-3.0889,-3.0889,-3.0889,-3.0889,-3.0889,-3.0889,-3.0889,-3.0889,-3.0889,-3.0889,-3.0889,-3.0889,-3.0889,-3.0889,-3.0889,-3.0889,-3.0889,-3.0889,-3.0889,-3.0889,-3.0889,-3.0889,-3.0889,-3.0889,-3.0889,-3.0889,-3.0889,-3.0889,-3.0889,-3.0889,-3.0889,-3.0889,-3.0889,-2.953,-2.8486,-2.8417,-2.5887,-2.4193,-2.4139,-2.2598,-2.1607,-2.1607,-2.1299,-2.1109,-2.1109,-2.1109,-2.1109,-2.1109,-2.1172,-2.1172,-2.1109,-2.1109,-2.1109,-2.1109,-2.1109,-2.1109,-3.0871,-3.1248,-3.1612,-3.2541,-3.2918,-3.3124,-3.3124,-3.3508,-3.406,-3.4613,-3.5119,-3.5658,-3.6304,-3.6405,-3.6593,-3.7098,-3.7349,-3.7801,-3.8793,-3.9095,-3.9295,-3.9647,-3.953,-3.953,-3.9685,-3.9374,-3.905,-3.8998,-3.8736,-3.8409,-3.8145,-3.8039,-3.7814,-3.7388,-3.5443,-3.3505,-3.1566,-3.1122,-3.0889,-3.0889,-3.0889,-3.0889,-3.0889,-3.0889,-3.0889,-3.0889,-3.0889,-3.0889,-3.0889,-3.0889,-3.0889,-3.0889,-3.0889,-3.0889,-3.0889,-3.0889,-3.0889,-3.0889,-3.0889,-3.0889,-3.0889,-3.0889,-3.0889,-3.0889,-3.0889,-3.0889,-3.0889,-3.0889,-3.0889,-3.0889,-3.0889,-3.0889,-3.0889,-3.0889,-3.0889,-3.0889,-3.0889,-3.0889,-3.0889,-3.0889,-3.0889,-3.0889,-3.0889,-3.0889,-3.0889,-3.0889,-3.0704,-3.0265,-2.9403,-2.8435,-2.7159,-2.5513,-2.4178,-2.3076,-2.2223,-2.1607,-2.1299,-2.1299,-2.1172,-2.1109,-2.1109,-2.1109,-2.1109,-2.1109,-2.1109,-2.1109,-2.1109,-2.1109,-2.1109,-2.1109,-2.1109,-2.1109,-3.1097,-3.1386,-3.1662,-3.2847,-3.3124,-3.3124,-3.3124,-3.3357,-3.3771,-3.4336,-3.4843,-3.5395,-3.5981,-3.6279,-3.6531,-3.6895,-3.7061,-3.745,-3.8191,-3.8467,-3.8781,-3.9231,-3.9203,-3.9226,-3.9349,-3.9166,-3.8893,-3.8684,-3.8514,-3.8303,-3.8039,-3.7986,-3.7655,-3.6815,-3.4891,-3.2903,-3.0889,-3.0889,-3.0889,-3.0889,-3.0889,-3.0889,-3.0889,-3.0889,-3.0889,-3.0889,-3.0889,-3.0889,-3.0889,-3.0889,-3.0889,-3.0889,-3.0889,-3.0889,-3.0889,-3.0889,-3.0889,-3.0889,-3.0889,-3.0889,-3.0889,-3.0889,-3.0889,-3.0889,-3.0889,-3.0889,-3.0889,-3.0889,-3.0889,-3.0889,-3.0889,-3.0889,-3.0889,-3.0889,-3.0889,-3.0889,-3.0889,-3.0889,-3.0889,-3.0889,-3.0889,-3.0889,-3.0889,-3.046,-3.0079,-3.0079,-2.9403,-2.8605,-2.7692,-2.6789,-2.5529,-2.3814,-2.2897,-2.209,-2.1172,-2.1109,-2.1109,-2.1109,-2.1109,-2.1109,-2.1109,-2.1109,-2.1109,-2.1109,-2.1109,-2.1109,-2.1109,-2.1109,-2.1109,-2.1109,-2.1109,-2.1109,0.0,0.0,0.0,-3.2847,-3.3124,-3.3124,-3.3124,-3.3124,-3.3232,-3.3784,-3.4324,-3.4831,-3.5395,-3.5981,-3.6392,-3.6405,-3.6857,-3.7161,-3.7186,-3.7651,-3.8079,-3.8326,-3.8679,-3.8878,-3.8767,-3.9089,-3.8998,-3.8461,-3.8409,-3.825,-3.8039,-3.7986,-3.6869,-3.4503,-3.3289,-3.2123,-3.0889,-3.0889,-3.0889,-3.0889,-3.0889,-3.0889,-3.0889,-3.0889,-3.0889,-3.0889,-3.0889,-3.0889,-3.0889,-3.0889,-3.0889,-3.0889,-3.0889,-3.0889,-3.0889,-3.0889,-3.0889,-3.0889,-3.0889,-3.0889,-3.0889,-3.0889,-3.0889,-3.0889,-3.0889,-3.0889,-3.0889,-3.0889,-3.0889,-3.0889,-3.0889,-3.0889,-3.0889,-3.0889,-3.0889,-3.0889,-3.0889,-3.0889,-3.0889,-3.0889,-3.0889,-3.0889,-3.083,-2.9471,-2.8358,-2.8358,-2.7013,-2.5984,-2.5915,-2.454,-2.3574,-2.3512,-2.2097,-2.1109,-2.1109,-2.1109,-2.1109,-2.1109,-2.1109,-2.1109,-2.1109,-2.1109,-2.1109,-2.1109,-2.1109,-2.1109,-2.1109,-2.1109,-2.1109,-2.1109,-2.1109,-2.1109,-3.1097,0.0,0.0,0.0,0.0,0.0,-3.3124,-3.3124,-3.3232,-3.3784,-3.4022,-3.4412,-3.532,-3.5621,-3.5893,-3.6342,-3.6531,-3.6782,-3.7123,-3.7312,-3.7515,-3.7805,-3.8088,-3.8257,-3.8275,-3.8347,-3.8356,-3.8409,-3.8198,-3.8092,-3.7986,-3.7162,-3.6002,-3.4447,-3.3289,-3.2123,-3.0889,-3.0889,-3.0889,-3.0889,-3.0889,-3.0889,-3.0889,-3.0889,-3.0889,-3.0889,-3.0889,-3.0889,-3.0889,-3.0889,-3.0889,-3.0889,-3.0889,-3.0889,-3.0889,-3.0889,-3.0889,-3.0889,-3.0889,-3.0889,-3.0889,-3.0889,-3.0889,-3.0889,-3.0889,-3.0889,-3.0889,-3.0889,-3.0889,-3.0889,-3.0889,-3.0889,-3.0889,-3.0889,-3.0889,-3.0889,-3.0889,-3.0889,-3.0889,-3.0889,-3.0704,-3.0206,-2.9285,-2.8564,-2.7778,-2.6832,-2.6114,-2.533,-2.4355,-2.369,-2.2897,-2.1908,-2.1355,-2.1109,-2.1109,-2.1109,-2.1109,-2.1109,-2.1109,-2.1109,-2.1109,-2.1109,-2.1109,-2.1109,-2.1109,-2.1109,-2.1109,-2.1109,-2.1109,-2.1109,-2.1109,-2.1109,0.0,0.0,-3.1353,-3.2259,0.0,0.0,-3.3124,-3.3124,-3.3212,-3.3483,-3.3746,-3.4098,-3.4738,-3.5194,-3.5608,-3.5968,-3.6125,-3.6341,-3.6666,-3.6716,-3.6758,-3.6899,-3.7157,-3.7351,-3.7392,-3.7673,-3.7859,-3.7923,-3.7971,-3.7986,-3.7986,-3.6383,-3.5124,-3.4391,-3.2789,-3.1624,-3.0898,-3.0889,-3.0889,-3.0889,-3.0889,-3.0889,-3.0889,-3.0889,-3.0889,-3.0889,-3.0889,-3.0889,-3.0889,-3.0889,-3.0889,-3.0889,-3.0889,-3.0889,-3.0889,-3.0889,-3.0889,-3.0889,-3.0889,-3.0889,-3.0889,-3.0889,-3.0889,-3.0889,-3.0889,-3.0889,-3.0889,-3.0889,-3.0889,-3.0889,-3.0889,-3.0889,-3.0889,-3.0889,-3.0889,-3.0889,-3.0889,-3.0889,-3.0704,-3.0147,-2.9776,-2.9157,-2.7811,-2.6797,-2.5896,-2.5138,-2.4232,-2.338,-2.2647,-2.2404,-2.1971,-2.1166,-2.1109,-2.1109,-2.1109,-2.1109,-2.1109,-2.1109,-2.1109,-2.1109,-2.1109,-2.1109,-2.1109,-2.1109,-2.1109,-2.1109,-2.1109,-2.1109,-2.1109,-2.1109,-2.1109,-2.1109,0.0,0.0,0.0,-3.1448,-3.2351,0.0,-3.3081,-3.3081,-3.3038,-3.3038,-3.3427,-3.3778,-3.384,-3.461,-3.5286,-3.5361,-3.565,-3.5893,-3.6003,-3.5968,-3.5949,-3.5917,-3.6186,-3.6357,-3.6317,-3.7,-3.7391,-3.7192,-3.7685,-3.7986,-3.7986,-3.5717,-3.4391,-3.4391,-3.2113,-3.0889,-3.0889,-3.0889,-3.0889,-3.0889,-3.0889,-3.0889,-3.0889,-3.0889,-3.0889,-3.0889,-3.0889,-3.0889,-3.0889,-3.0889,-3.0889,-3.0889,-3.0889,-3.0889,-3.0889,-3.0889,-3.0889,-3.0889,-3.0889,-3.0889,-3.0889,-3.0889,-3.0889,-3.0889,-3.0889,-3.0889,-3.0889,-3.0889,-3.0889,-3.0889,-3.0889,-3.0889,-3.0889,-3.0889,-3.0889,-3.0889,-3.0889,-3.0762,-3.0216,-2.8861,-2.8486,-2.788,-2.6417,-2.4725,-2.3512,-2.3325,-2.2034,-2.1109,-2.1109,-2.1109,-2.1109,-2.1109,-2.1109,-2.1109,-2.1109,-2.1109,-2.1109,-2.1109,-2.1109,-2.1109,-2.1109,-2.1109,-2.1109,-2.1109,-2.1109,-2.1109,-2.1109,-2.1109,-2.1109,-2.1109,-2.1109,-2.1109,-3.062,-3.08,-3.092,-3.1448,-3.2351,0.0,-3.2853,-3.2766,-3.2723,-3.2562,-3.2767,-3.3053,-3.35,-3.3749,-3.4048,-3.4554,-3.4858,-3.5271,-3.5906,-3.5812,-3.5609,-3.5369,-3.5758,-3.6013,-3.5761,-3.6305,-3.6786,-3.7168,-3.7685,-3.7986,-3.7986,-3.5717,-3.4391,-3.4391,-3.2113,-3.0889,-3.0889,-3.0889,-3.0889,-3.0889,-3.0889,-3.0889,-3.0889,-3.0889,-3.0889,-3.0889,-3.0889,-3.0889,-3.0889,-3.0889,-3.0889,-3.0889,-3.0889,-3.0889,-3.0889,-3.0889,-3.0889,-3.0889,-3.0889,-3.0889,-3.0889,-3.0889,-3.0889,-3.0889,-3.0889,-3.0889,-3.0889,-3.0889,-3.0889,-3.0889,-3.0889,-3.0889,-3.0889,-3.0889,-3.0889,-3.0889,-3.0889,-2.9844,-2.8486,-2.7211,-2.7589,-2.7237,-2.461,-2.3628,-2.2834,-2.1727,-2.1292,-2.1109,-2.1109,-2.1109,-2.1109,-2.1109,-2.1109,-2.1109,-2.1109,-2.1109,-2.1109,-2.1109,-2.1109,-2.1109,-2.1109,-2.1109,-2.1109,-2.1109,-2.1109,-2.1109,-2.1109,-2.1109,-2.1109,-2.1109,-2.1109,-2.1109,-3.0197,-3.0014,-2.9815,-2.992,-3.0687,0.0,0.0,-3.1801,-3.1901,-3.23,-3.2475,-3.2636,-3.2908,-3.318,-3.3464,-3.3748,-3.4014,-3.4362,-3.4725,-3.5134,-3.532,-3.503,-3.5259,-3.5367,-3.522,-3.5701,-3.6338,-3.7132,-3.7433,-3.7433,-3.7096,-3.5388,-3.4112,-3.3572,-3.1845,-3.0889,-3.0889,-3.0889,-3.0889,-3.0889,-3.0889,-3.0889,-3.0889,-3.0889,-3.0889,-3.0889,-3.0889,-3.0889,-3.0889,-3.0889,-3.0889,-3.0889,-3.0889,-3.0889,-3.0889,-3.0889,-3.0889,-3.0889,-3.0889,-3.0889,-3.0889,-3.0889,-3.0889,-3.0889,-3.0889,-3.0889,-3.0889,-3.0889,-3.0889,-3.0889,-3.0889,-3.0889,-3.0889,-3.0889,-3.0401,-2.9844,-2.9707,-2.8486,-2.6961,-2.5391,-2.546,-2.5101,-2.2959,-2.2341,-2.1846,-2.1229,-2.1109,-2.1109,-2.1109,-2.1109,-2.1109,-2.1109,-2.1109,-2.1109,-2.1109,-2.1109,-2.1109,-2.1109,-2.1109,-2.1109,-2.1109,-2.1109,-2.1109,-2.1109,-2.1109,-2.1109,-2.1109,-2.1109,-2.1109,-2.1109,-2.1109,-2.1109,-3.001,-2.9498,-2.8852,-2.8598,-2.9177,-2.9954,0.0,0.0,0.0,-3.1516,-3.1881,-3.2025,-3.2025,-3.2568,-3.2926,-3.2803,-3.3149,-3.3356,-3.3235,-3.4156,-3.4812,-3.4667,-3.4715,-3.4775,-3.4775,-3.5304,-3.5966,-3.6819,-3.7072,-3.6837,-3.6113,-3.5013,-3.3899,-3.2742,-3.1508,-3.0889,-3.0889,-3.0889,-3.0889,-3.0889,-3.0889,-3.0889,-3.0889,-3.0889,-3.0889,-3.0889,-3.0889,-3.0889,-3.0889,-3.0889,-3.0889,-3.0889,-3.0889,-3.0889,-3.0889,-3.0889,-3.0889,-3.0889,-3.0889,-3.0889,-3.0889,-3.0889,-3.0889,-3.0889,-3.0889,-3.0889,-3.0889,-3.0889,-3.0889,-3.0889,-3.0889,-3.0889,-3.083,-3.0587,-2.9658,-2.8673,-2.8179,-2.6901,-2.5513,-2.3876,-2.3325,-2.2772,-2.1664,-2.1299,-2.1109,-2.1109,-2.1109,-2.1109,-2.1109,-2.1109,-2.1109,-2.1109,-2.1109,-2.1109,-2.1109,-2.1109,-2.1109,-2.1109,-2.1109,-2.1109,-2.1109,-2.1109,-2.1109,-2.1109,-2.1109,-2.1109,-2.1109,-2.1109,-2.1109,-2.1109,-2.1109,-2.1109,-3.1101,-3.0396,-2.9624,-2.9326,-2.9533,-2.9727,-2.9326,0.0,-2.9189,-2.9143,0.0,-3.0722,-3.0722,0.0,0.0,-3.1497,-3.2079,-3.2464,-3.1958,-3.2825,-3.368,-3.403,-3.4498,-3.4775,-3.4775,-3.5304,-3.5665,-3.5785,-3.6663,-3.6723,-3.5531,-3.4813,-3.3899,-3.2742,-3.1508,-3.0889,-3.0889,-3.0889,-3.0889,-3.0889,-3.0889,-3.0889,-3.0889,-3.0889,-3.0889,-3.0889,-3.0889,-3.0889,-3.0889,-3.0889,-3.0889,-3.0889,-3.0889,-3.0889,-3.0889,-3.0889,-3.0889,-3.0889,-3.0889,-3.0889,-3.0889,-3.0889,-3.0889,-3.0889,-3.0889,-3.0889,-3.0889,-3.0889,-3.0889,-3.0889,-3.0889,-3.0889,-3.0577,-2.9412,-2.8792,-2.8119,-2.6961,-2.5269,-2.3876,-2.3636,-2.2404,-2.1355,-2.1172,-2.1109,-2.1109,-2.1109,-2.1109,-2.1109,-2.1109,-2.1109,-2.1109,-2.1109,-2.1109,-2.1109,-2.1109,-2.1109,-2.1109,-2.1109,-2.1109,-2.1109,-2.1109,-2.1109,-2.1109,-2.1109,-2.1109,-2.1109,-2.1109,-2.1109,-2.1109,-2.1109,-2.1109,-2.1109,-3.1347,-3.0666,-2.9852,-2.8958,-2.8716,-2.8612,-2.8272,-2.8085,-2.8121,-2.8588,0.0,0.0,0.0,0.0,0.0,0.0,-3.0068,-3.0239,-3.0011,-3.1147,-3.2382,-3.3443,-3.4006,-3.4438,-3.4751,-3.4979,-3.5033,-3.4718,-3.5078,-3.4778,-3.3508,-3.3185,-3.26,-3.1672,-3.117,-3.0889,-3.0889,-3.0889,-3.0889,-3.0889,-3.0889,-3.0889,-3.0889,-3.0889,-3.0889,-3.0889,-3.0889,-3.0889,-3.0889,-3.0889,-3.0889,-3.0889,-3.0889,-3.0889,-3.0889,-3.0889,-3.0889,-3.0889,-3.0889,-3.0889,-3.0889,-3.0889,-3.0889,-3.0889,-3.0889,-3.0889,-3.0889,-3.0889,-3.0333,-2.9903,-3.0704,-2.9795,-2.8701,-2.8861,-2.7658,-2.62,-2.5285,-2.3876,-2.2591,-2.2223,-2.1601,-2.1109,-2.1109,-2.1109,-2.1109,-2.1109,-2.1109,-2.1109,-2.1109,-2.1109,-2.1109,-2.1109,-2.1109,-2.1109,-2.1109,-2.1109,-2.1109,-2.1109,-2.1109,-2.1109,-2.1109,-2.1109,-2.1109,-2.1109,-2.1109,-2.1109,-2.1109,-2.1109,-2.1109,-2.1109,-2.1109,-2.1109,-3.1392,-3.0711,-2.9841,-2.8866,-2.8132,-2.7626,-2.7673,-2.7342,-2.72,-2.7851,-2.8226,0.0,0.0,0.0,-2.8637,-2.8506,0.0,-2.8637,-2.8495,-2.9803,-3.1275,-3.2521,-3.3445,-3.4102,-3.4325,-3.4628,-3.4379,-3.3413,-3.3776,-3.3328,-3.1833,-3.1934,-3.1681,-3.0937,-3.0889,-3.0889,-3.0889,-3.0889,-3.0889,-3.0889,-3.0889,-3.0889,-3.0889,-3.0889,-3.0889,-3.0889,-3.0889,-3.0889,-3.0889,-3.0889,-3.0889,-3.0889,-3.0889,-3.0889,-3.0889,-3.0889,-3.0889,-3.0889,-3.0889,-3.0889,-3.0889,-3.0889,-3.0889,-3.0889,-3.0889,-3.0645,-3.0333,-3.0333,-2.9422,-2.8623,-2.9549,-2.8412,-2.7134,-2.7718,-2.633,-2.4571,-2.3767,-2.2661,-2.167,-2.1172,-2.1109,-2.1109,-2.1109,-2.1109,-2.1109,-2.1109,-2.1109,-2.1109,-2.1109,-2.1109,-2.1109,-2.1109,-2.1109,-2.1109,-2.1109,-2.1109,-2.1109,-2.1109,-2.1109,-2.1109,-2.1109,-2.1109,-2.1109,-2.1109,-2.1109,-2.1109,-2.1109,-2.1109,-2.1109,-2.1109,-2.1109,-2.1109,-3.1524,-3.0576,-2.9761,-2.9464,-2.8154,-2.7119,-2.7746,-2.7163,-2.6448,-2.6235,-2.6935,-2.7579,-2.7284,-2.8028,0.0,0.0,0.0,0.0,0.0,-2.9274,-3.0445,-3.102,-3.283,-3.379,-3.3304,-3.4164,-3.3918,-3.1852,-3.3113,-3.3172,-3.1322,-3.1712,-3.1681,-3.0937,-3.0889,-3.0889,-3.0889,-3.0889,-3.0889,-3.0889,-3.0889,-3.0889,-3.0889,-3.0889,-3.0889,-3.0889,-3.0889,-3.0889,-3.0889,-3.0889,-3.0889,-3.0889,-3.0889,-3.0889,-3.0889,-3.0889,-3.0889,-3.0889,-3.0889,-3.0889,-3.0889,-3.0889,-3.0889,-3.0889,-3.0889,-2.9971,-2.8979,-2.8979,-2.8026,-2.7073,-2.7134,-2.7073,-2.671,-2.5501,-2.4633,-2.3767,-2.248,-2.1607,-2.1109,-2.1109,-2.1109,-2.1109,-2.1109,-2.1109,-2.1109,-2.1109,-2.1109,-2.1109,-2.1109,-2.1109,-2.1109,-2.1109,-2.1109,-2.1109,-2.1109,-2.1109,-2.1109,-2.1109,-2.1109,-2.1109,-2.1109,-2.1109,-2.1109,-2.1109,-2.1109,-2.1109,-2.1109,-2.1109,-2.1109,-2.1109,-2.1109,-2.1109,-3.3645,-3.3318,-3.2853,-3.2177,-3.0864,-2.9642,-2.9042,-2.7726,-2.6635,-2.635,-2.6309,-2.6284,-2.6235,-2.6466,0.0,0.0,0.0,0.0,0.0,-2.8036,-2.9666,-3.0858,-3.1251,-3.1503,-3.165,-3.2297,-3.2083,-3.0598,-3.0995,-3.0821,-2.9749,-3.0133,-3.0422,-3.042,-3.0732,-3.0889,-3.0889,-3.0889,-3.0889,-3.0889,-3.0889,-3.0889,-3.0889,-3.0889,-3.0889,-3.0889,-3.0889,-3.0889,-3.0889,-3.0889,-3.0889,-3.0889,-3.0889,-3.0889,-3.0889,-3.0889,-3.0889,-3.0889,-3.0889,-3.0889,-3.0889,-3.0889,-3.0889,-3.0704,-2.9844,-2.9285,-2.8742,-2.7847,-2.6702,-2.592,-2.6771,-2.5737,-2.4517,-2.501,-2.4085,-2.2911,-2.2237,-2.1734,-2.1355,-2.1172,-2.1109,-2.1109,-2.1109,-2.1109,-2.1109,-2.1109,-2.1109,-2.1109,-2.1109,-2.1109,-2.1109,-2.1109,-2.1109,-2.1109,-2.1109,-2.1109,-2.1109,-2.1109,-2.1109,-2.1109,-2.1109,-2.1109,-2.1109,-2.1109,-2.1109,-2.1109,-2.1109,-2.1109,-2.1109,-2.1109,-2.1109,-2.1109,-3.4293,-3.4202,-3.4053,-3.3431,-3.2077,-3.0874,-3.0682,-2.8919,-2.7292,-2.7332,-2.6636,-2.6055,-2.5967,-2.5791,-2.5693,0.0,0.0,0.0,0.0,-2.702,-2.8109,-2.9504,-3.0122,-3.0533,-3.0838,-3.1188,-3.0777,-2.945,-2.967,-2.9601,-2.8951,-2.9336,-2.9766,-3.0185,-3.0644,-3.0889,-3.0889,-3.0889,-3.0889,-3.0889,-3.0889,-3.0889,-3.0889,-3.0889,-3.0889,-3.0889,-3.0889,-3.0889,-3.0889,-3.0889,-3.0889,-3.0889,-3.0889,-3.0889,-3.0889,-3.0889,-3.0889,-3.0889,-3.0889,-3.0889,-3.0889,-3.0889,-3.0587,-3.003,-2.9166,-2.8256,-2.7357,-2.6589,-2.537,-2.4579,-2.5431,-2.4332,-2.3293,-2.4023,-2.3285,-2.2362,-2.1985,-2.167,-2.1362,-2.1172,-2.1109,-2.1109,-2.1109,-2.1109,-2.1109,-2.1109,-2.1109,-2.1109,-2.1109,-2.1109,-2.1109,-2.1109,-2.1109,-2.1109,-2.1109,-2.1109,-2.1109,-2.1109,-2.1109,-2.1109,-2.1109,-2.1109,-2.1109,-2.1109,-2.1109,-2.1109,-2.1109,-2.1109,-2.1109,-2.1109,-2.1109,-2.1109]},{"header":{"parameterUnit":"m.s-1","parameterCategory":1,"la1":30.6,"la2":29.2853,"lo1":-89.7004,"lo2":-87.6739,"dy":0.0162,"dx":0.0183,"nx":112,"ny":82,"refTime":"2023-08-31T06:00:00:Z","depth":0,"parameterNumber":3,"parameterNumberName":"V-component_of_WINDS"},"data":[0.0,0.0,0.0,0.0,0.0,0.0,0.0,0.0,0.0,0.0,0.0,0.0,0.0,0.0,0.0,0.0,0.0,0.0,0.0,0.0,0.0,0.0,0.0,0.0,0.0,0.0,0.0,0.0,0.0,0.0,0.0,0.0,0.0,0.0,0.0,0.0,0.0,0.0,0.0,0.0,0.0,0.0,0.0,0.0,0.0,0.0,0.0,0.0,0.0,0.0,0.0,0.0,0.0,0.0,0.0,0.0,0.0,0.0,0.0,0.0,0.0,0.0,0.0,0.0,0.0,0.0,0.0,0.0,0.0,0.0,0.0,0.0,0.0,0.0,0.0,0.0,0.0,0.0,0.0,0.0,0.0,0.0,0.0,0.0,0.0,0.0,0.0,0.0,0.0,0.0,2.5591,2.5591,2.5417,2.5318,2.5318,2.5263,2.5199,2.5144,0.0,0.0,0.0,0.0,0.0,0.0,0.0,0.0,0.0,0.0,0.0,0.0,0.0,0.0,0.0,0.0,0.0,0.0,0.0,0.0,0.0,0.0,0.0,0.0,0.0,0.0,0.0,0.0,0.0,0.0,0.0,0.0,0.0,0.0,0.0,0.0,0.0,0.0,0.0,0.0,0.0,0.0,0.0,0.0,0.0,0.0,0.0,0.0,0.0,0.0,0.0,0.0,0.0,0.0,0.0,0.0,0.0,0.0,0.0,0.0,0.0,0.0,0.0,0.0,0.0,0.0,0.0,0.0,0.0,0.0,0.0,0.0,0.0,0.0,0.0,0.0,0.0,0.0,0.0,0.0,0.0,0.0,0.0,0.0,0.0,0.0,0.0,0.0,0.0,0.0,0.0,0.0,0.0,0.0,0.0,0.0,0.0,0.0,0.0,0.0,0.0,0.0,0.0,0.0,2.6825,2.6825,2.6804,2.6783,2.6783,2.6359,2.6034,2.5871,0.0,0.0,0.0,0.0,0.0,0.0,0.0,0.0,0.0,0.0,0.0,0.0,0.0,0.0,0.0,0.0,0.0,0.0,0.0,0.0,0.0,0.0,0.0,0.0,0.0,0.0,0.0,0.0,0.0,0.0,0.0,0.0,0.0,0.0,0.0,0.0,0.0,0.0,0.0,0.0,0.0,0.0,0.0,0.0,0.0,0.0,0.0,0.0,0.0,0.0,0.0,0.0,0.0,0.0,0.0,0.0,0.0,0.0,0.0,0.0,0.0,0.0,0.0,0.0,0.0,0.0,0.0,0.0,0.0,0.0,0.0,0.0,0.0,0.0,0.0,0.0,0.0,0.0,0.0,0.0,0.0,0.0,0.0,0.0,0.0,0.0,0.0,0.0,0.0,0.0,0.0,0.0,0.0,0.0,0.0,0.0,0.0,0.0,0.0,0.0,0.0,0.0,0.0,2.7495,2.7369,2.7264,2.7385,2.7406,2.7264,2.7185,2.7074,2.6992,2.693,0.0,0.0,0.0,0.0,0.0,0.0,0.0,0.0,0.0,0.0,0.0,0.0,0.0,0.0,0.0,0.0,0.0,0.0,0.0,0.0,0.0,0.0,0.0,0.0,0.0,0.0,0.0,0.0,0.0,0.0,0.0,0.0,0.0,0.0,0.0,0.0,0.0,0.0,0.0,0.0,0.0,0.0,0.0,0.0,0.0,0.0,0.0,0.0,0.0,0.0,0.0,0.0,0.0,0.0,0.0,0.0,0.0,0.0,0.0,0.0,0.0,0.0,0.0,0.0,0.0,0.0,0.0,0.0,0.0,0.0,0.0,0.0,0.0,0.0,0.0,0.0,0.0,0.0,0.0,0.0,0.0,0.0,0.0,0.0,0.0,0.0,0.0,0.0,0.0,0.0,0.0,0.0,0.0,0.0,0.0,0.0,0.0,0.0,0.0,0.0,0.0,0.0,2.8248,2.8207,2.7981,2.8144,2.8186,2.7981,2.8061,2.8103,2.8042,2.7855,0.0,0.0,0.0,0.0,0.0,0.0,0.0,0.0,0.0,0.0,0.0,0.0,0.0,0.0,0.0,0.0,0.0,0.0,0.0,0.0,0.0,0.0,0.0,0.0,0.0,0.0,0.0,0.0,0.0,0.0,0.0,0.0,0.0,0.0,0.0,0.0,0.0,0.0,0.0,0.0,0.0,0.0,0.0,0.0,0.0,0.0,0.0,0.0,0.0,0.0,0.0,0.0,0.0,0.0,0.0,0.0,0.0,0.0,0.0,0.0,0.0,0.0,0.0,0.0,0.0,0.0,0.0,0.0,0.0,0.0,0.0,0.0,0.0,0.0,0.0,0.0,0.0,0.0,0.0,0.0,0.0,0.0,0.0,0.0,0.0,0.0,0.0,0.0,0.0,0.0,0.0,0.0,0.0,0.0,0.0,0.0,0.0,0.0,0.0,0.0,0.0,0.0,2.9875,2.9918,2.9648,2.9648,2.9648,2.9626,2.9256,2.8923,2.873,2.8306,0.0,0.0,0.0,0.0,0.0,0.0,0.0,0.0,0.0,0.0,0.0,0.0,0.0,0.0,0.0,0.0,0.0,0.0,0.0,0.0,0.0,0.0,0.0,0.0,0.0,0.0,0.0,0.0,0.0,0.0,0.0,0.0,0.0,0.0,0.0,0.0,0.0,0.0,0.0,0.0,0.0,0.0,0.0,0.0,0.0,0.0,0.0,0.0,0.0,0.0,0.0,0.0,0.0,0.0,0.0,0.0,0.0,0.0,0.0,0.0,0.0,0.0,0.0,0.0,0.0,0.0,0.0,0.0,0.0,0.0,0.0,0.0,0.0,0.0,0.0,0.0,0.0,0.0,0.0,0.0,0.0,0.0,0.0,0.0,0.0,0.0,0.0,0.0,0.0,0.0,0.0,0.0,0.0,0.0,0.0,0.0,0.0,0.0,0.0,0.0,0.0,0.0,3.0146,3.0167,3.0065,3.0172,3.0194,3.0065,2.999,2.9947,2.9863,0.0,0.0,0.0,0.0,0.0,0.0,0.0,0.0,0.0,0.0,0.0,0.0,0.0,0.0,0.0,0.0,0.0,0.0,0.0,0.0,0.0,0.0,0.0,0.0,0.0,0.0,0.0,0.0,0.0,0.0,0.0,0.0,0.0,0.0,0.0,0.0,0.0,0.0,0.0,0.0,0.0,0.0,0.0,0.0,0.0,0.0,0.0,0.0,0.0,0.0,0.0,0.0,0.0,0.0,0.0,0.0,0.0,0.0,0.0,0.0,0.0,0.0,0.0,0.0,0.0,0.0,0.0,0.0,0.0,0.0,0.0,0.0,0.0,0.0,0.0,0.0,0.0,0.0,0.0,0.0,0.0,0.0,0.0,0.0,0.0,0.0,0.0,0.0,0.0,0.0,0.0,0.0,0.0,0.0,0.0,0.0,0.0,0.0,0.0,0.0,0.0,0.0,3.0274,3.0493,3.0558,3.0328,3.0636,3.0691,3.0333,3.0422,3.0506,3.0506,0.0,0.0,0.0,0.0,0.0,0.0,0.0,0.0,0.0,0.0,0.0,0.0,0.0,0.0,0.0,0.0,0.0,0.0,0.0,0.0,0.0,0.0,0.0,0.0,0.0,0.0,0.0,0.0,0.0,0.0,0.0,0.0,0.0,0.0,0.0,0.0,0.0,0.0,0.0,0.0,0.0,0.0,0.0,0.0,0.0,0.0,0.0,0.0,0.0,0.0,0.0,0.0,0.0,0.0,0.0,0.0,0.0,0.0,0.0,0.0,0.0,0.0,0.0,0.0,0.0,0.0,0.0,0.0,0.0,0.0,0.0,0.0,0.0,0.0,0.0,0.0,0.0,0.0,0.0,0.0,0.0,0.0,0.0,0.0,0.0,0.0,0.0,0.0,0.0,0.0,0.0,0.0,0.0,0.0,0.0,0.0,0.0,0.0,0.0,0.0,0.0,0.0,3.0522,3.1168,3.1333,3.0605,3.1184,3.1317,3.0588,3.0522,3.0522,0.0,0.0,0.0,0.0,0.0,0.0,0.0,0.0,0.0,0.0,0.0,0.0,0.0,0.0,0.0,0.0,0.0,0.0,0.0,0.0,0.0,0.0,0.0,0.0,0.0,0.0,0.0,0.0,0.0,0.0,0.0,0.0,0.0,0.0,0.0,0.0,0.0,0.0,0.0,0.0,0.0,0.0,0.0,0.0,0.0,0.0,0.0,0.0,0.0,0.0,0.0,0.0,0.0,0.0,0.0,0.0,0.0,0.0,0.0,0.0,0.0,0.0,0.0,0.0,0.0,0.0,0.0,0.0,0.0,0.0,0.0,0.0,0.0,0.0,0.0,0.0,0.0,0.0,0.0,0.0,0.0,0.0,0.0,0.0,0.0,0.0,0.0,0.0,0.0,0.0,0.0,0.0,0.0,0.0,0.0,0.0,0.0,0.0,0.0,0.0,0.0,0.0,0.0,3.1544,3.2011,3.2282,3.2067,3.2249,3.2282,3.2067,3.205,3.1835,3.1317,0.0,0.0,0.0,0.0,0.0,0.0,0.0,0.0,0.0,0.0,0.0,0.0,0.0,0.0,0.0,0.0,0.0,0.0,0.0,0.0,0.0,0.0,0.0,0.0,0.0,0.0,0.0,0.0,0.0,0.0,0.0,0.0,0.0,0.0,0.0,0.0,0.0,0.0,0.0,0.0,0.0,0.0,0.0,0.0,0.0,0.0,0.0,0.0,0.0,0.0,0.0,0.0,0.0,0.0,0.0,0.0,0.0,0.0,0.0,0.0,0.0,0.0,0.0,0.0,0.0,0.0,0.0,0.0,0.0,0.0,0.0,0.0,0.0,0.0,0.0,0.0,0.0,0.0,0.0,0.0,0.0,0.0,0.0,0.0,0.0,0.0,0.0,0.0,0.0,0.0,0.0,0.0,0.0,0.0,0.0,0.0,0.0,0.0,0.0,0.0,0.0,0.0,3.1971,3.2633,3.3033,3.2735,3.2967,3.3033,3.2735,3.2702,3.2497,3.2067,0.0,0.0,0.0,0.0,0.0,0.0,0.0,0.0,0.0,0.0,0.0,0.0,0.0,0.0,0.0,0.0,0.0,0.0,0.0,0.0,0.0,0.0,0.0,0.0,0.0,0.0,0.0,0.0,0.0,0.0,0.0,0.0,0.0,0.0,0.0,0.0,0.0,0.0,0.0,0.0,0.0,0.0,0.0,0.0,0.0,0.0,0.0,0.0,0.0,0.0,0.0,0.0,0.0,0.0,0.0,0.0,0.0,0.0,0.0,0.0,0.0,0.0,0.0,0.0,0.0,0.0,0.0,0.0,0.0,0.0,0.0,0.0,0.0,0.0,0.0,0.0,0.0,0.0,0.0,0.0,0.0,0.0,0.0,0.0,0.0,0.0,0.0,0.0,0.0,0.0,0.0,0.0,0.0,0.0,0.0,0.0,0.0,0.0,0.0,0.0,0.0,0.0,3.2101,3.3112,3.3663,3.2984,3.3491,3.3624,3.2967,3.2917,3.2884,3.2818,0.0,0.0,0.0,0.0,0.0,0.0,0.0,0.0,0.0,0.0,0.0,0.0,0.0,0.0,0.0,0.0,0.0,0.0,0.0,0.0,0.0,0.0,0.0,0.0,0.0,0.0,0.0,0.0,0.0,0.0,0.0,0.0,0.0,0.0,0.0,0.0,0.0,0.0,0.0,0.0,0.0,0.0,0.0,0.0,0.0,0.0,0.0,0.0,0.0,0.0,0.0,0.0,0.0,0.0,0.0,0.0,0.0,0.0,0.0,0.0,2.8802,2.8392,0.0,0.0,0.0,0.0,0.0,0.0,0.0,0.0,0.0,0.0,0.0,0.0,0.0,0.0,0.0,0.0,0.0,0.0,0.0,0.0,0.0,0.0,0.0,0.0,0.0,0.0,0.0,0.0,0.0,0.0,0.0,0.0,0.0,0.0,0.0,0.0,0.0,0.0,0.0,0.0,3.3039,3.3925,3.4601,3.4435,3.4568,3.4601,3.4435,3.4419,3.417,3.3613,3.358,0.0,0.0,0.0,0.0,0.0,0.0,0.0,0.0,0.0,0.0,0.0,0.0,0.0,0.0,0.0,0.0,0.0,0.0,0.0,0.0,0.0,0.0,0.0,0.0,0.0,0.0,0.0,0.0,0.0,0.0,0.0,0.0,0.0,0.0,0.0,0.0,0.0,0.0,0.0,0.0,0.0,0.0,0.0,0.0,0.0,0.0,0.0,0.0,0.0,0.0,0.0,0.0,0.0,0.0,0.0,0.0,0.0,0.0,0.0,2.9844,2.9816,0.0,0.0,0.0,0.0,0.0,0.0,0.0,0.0,0.0,0.0,0.0,0.0,0.0,0.0,0.0,0.0,0.0,0.0,0.0,0.0,0.0,0.0,0.0,0.0,0.0,0.0,0.0,0.0,0.0,0.0,0.0,0.0,0.0,0.0,0.0,0.0,0.0,0.0,0.0,0.0,3.2922,3.3799,3.4521,3.4521,3.4756,3.4899,3.4899,3.4899,3.4733,3.4336,3.4319,0.0,0.0,0.0,0.0,0.0,0.0,0.0,0.0,0.0,0.0,0.0,0.0,0.0,0.0,0.0,0.0,0.0,0.0,0.0,0.0,0.0,0.0,0.0,0.0,0.0,0.0,0.0,0.0,0.0,0.0,0.0,0.0,0.0,0.0,0.0,0.0,0.0,0.0,0.0,0.0,0.0,0.0,0.0,0.0,0.0,0.0,0.0,0.0,0.0,0.0,0.0,0.0,0.0,2.9711,2.9771,2.9771,3.0293,3.0509,3.0536,3.0923,3.134,3.1742,3.1876,0.0,0.0,0.0,0.0,0.0,0.0,0.0,0.0,0.0,0.0,0.0,0.0,0.0,0.0,0.0,0.0,0.0,0.0,0.0,0.0,0.0,0.0,3.3083,3.3083,3.3083,3.3077,3.297,0.0,0.0,0.0,0.0,0.0,0.0,0.0,0.0,0.0,0.0,0.0,3.2465,3.3298,3.3958,3.3958,3.4333,3.4602,3.4602,3.4691,3.4763,3.4763,3.4851,3.4618,0.0,0.0,0.0,0.0,0.0,0.0,0.0,0.0,0.0,0.0,0.0,0.0,0.0,0.0,0.0,0.0,0.0,0.0,0.0,0.0,0.0,0.0,0.0,0.0,0.0,0.0,0.0,0.0,0.0,0.0,0.0,0.0,3.0638,2.9667,0.0,0.0,0.0,0.0,0.0,0.0,0.0,0.0,0.0,0.0,0.0,0.0,0.0,2.9615,2.9472,2.9615,2.966,2.9621,3.0118,3.0372,3.0402,3.1057,3.1341,3.1356,3.1398,0.0,3.1169,3.1694,0.0,0.0,0.0,0.0,0.0,0.0,0.0,0.0,0.0,0.0,0.0,0.0,0.0,0.0,0.0,0.0,0.0,0.0,0.0,0.0,0.0,0.0,3.4601,3.4601,3.4601,3.4483,3.4023,3.3782,3.364,3.364,3.3834,3.3788,0.0,0.0,0.0,0.0,0.0,0.0,3.2465,3.2949,3.3329,3.3329,3.3381,3.3433,3.3433,3.3917,3.4201,3.4201,3.4643,3.4849,3.475,3.475,0.0,0.0,0.0,0.0,0.0,0.0,0.0,0.0,0.0,0.0,0.0,0.0,0.0,0.0,0.0,0.0,0.0,0.0,0.0,0.0,0.0,0.0,0.0,0.0,0.0,0.0,0.0,0.0,0.0,3.0294,3.0147,2.966,2.9963,3.0179,0.0,0.0,0.0,0.0,0.0,0.0,0.0,0.0,0.0,3.0687,3.0687,3.0851,3.1225,3.1225,3.142,3.1794,3.2048,3.2183,3.2198,3.2497,3.2632,3.2632,3.2632,3.2552,3.24,3.2253,3.2364,3.2652,0.0,0.0,0.0,0.0,3.3186,3.3499,3.3499,3.3689,3.3938,3.3938,0.0,0.0,0.0,0.0,0.0,0.0,0.0,3.4419,3.4419,3.442,3.4448,3.4448,3.4193,3.3977,3.4084,3.4015,3.386,3.3517,3.3524,3.3397,3.2841,3.2477,0.0,0.0,0.0,3.216,3.1938,3.2652,3.3093,3.2761,3.3604,3.391,3.3235,3.4027,3.4423,3.4126,3.4594,3.4899,3.4899,3.4899,3.475,0.0,0.0,0.0,0.0,0.0,0.0,0.0,0.0,0.0,0.0,0.0,0.0,0.0,0.0,0.0,0.0,0.0,0.0,0.0,0.0,0.0,0.0,0.0,0.0,0.0,0.0,0.0,0.0,3.0184,3.0088,3.0088,3.0088,3.0253,0.0,0.0,0.0,0.0,0.0,0.0,3.175,3.1914,3.2004,3.2004,3.2004,3.2243,3.2766,3.2766,3.3021,3.3499,3.3499,3.3499,3.3499,3.3499,3.3499,3.3499,3.3499,3.3499,3.3486,3.3064,3.3125,3.3504,3.3639,3.3709,3.3704,3.3673,3.3954,3.4327,3.4299,3.457,3.4899,3.4899,3.4899,3.4875,3.4739,0.0,0.0,0.0,0.0,3.4464,3.4464,3.4168,3.3866,3.3866,3.3527,3.3293,3.361,3.3764,3.379,3.3501,3.3423,3.3214,3.252,3.2023,0.0,3.1524,3.1511,3.1511,3.1511,3.2228,3.2598,3.2203,3.3293,3.3681,3.2826,3.3809,3.4292,3.3892,3.4521,3.4899,3.4899,3.4899,3.4899,3.4899,0.0,0.0,0.0,0.0,0.0,0.0,0.0,0.0,0.0,0.0,0.0,0.0,0.0,0.0,0.0,0.0,0.0,0.0,0.0,0.0,0.0,0.0,0.0,0.0,0.0,0.0,0.0,0.0,0.0,3.1406,3.1406,0.0,0.0,0.0,0.0,3.1511,3.2079,3.2437,3.2437,3.3051,3.3395,3.3395,3.3395,3.341,3.344,3.344,3.3469,3.3499,3.3499,3.3499,3.3499,3.3499,3.3499,3.3499,3.3499,3.3499,3.3546,3.4012,3.4215,3.4303,3.488,3.5093,3.5082,3.4968,3.4936,3.4959,3.4897,3.4875,3.4899,3.4899,3.4899,3.4787,3.43,3.4151,0.0,0.0,3.3303,3.3303,3.3303,3.3277,3.3251,3.3251,3.3209,3.3066,3.2602,3.2895,3.3423,3.3958,3.405,3.3688,3.2574,0.0,3.2148,3.1597,3.1511,3.1511,3.1511,3.1553,3.1582,3.1568,3.1611,3.164,3.1582,3.2625,3.3261,3.3251,3.4292,3.4899,3.4899,3.4899,3.4899,3.4899,3.4866,0.0,0.0,0.0,0.0,0.0,0.0,0.0,0.0,0.0,0.0,0.0,0.0,0.0,0.0,0.0,0.0,0.0,0.0,0.0,0.0,0.0,0.0,0.0,0.0,0.0,0.0,0.0,0.0,3.1511,3.1511,0.0,3.2093,3.2123,3.2303,3.2766,3.3021,3.314,3.314,3.3769,3.4159,3.4159,3.4562,3.4996,3.5415,3.5415,3.5624,3.6013,3.6013,3.6013,3.6013,3.6013,3.6013,3.6013,3.6013,3.6013,3.6013,3.6213,3.5299,3.3819,3.4029,3.4118,3.4088,3.4063,3.4257,3.4551,3.4522,3.4786,3.5096,3.5096,3.5096,3.5059,3.4872,3.4818,3.4764,3.4557,3.4502,3.4502,3.4502,3.421,3.3913,3.3913,3.3644,3.3444,3.3602,3.3772,3.397,3.4182,3.3576,3.2738,3.1966,3.1824,3.1754,3.1524,3.1511,3.1511,3.1511,3.1824,3.1938,3.1524,3.216,3.2312,3.1553,3.2544,3.3039,3.2722,3.3764,3.4399,3.4399,3.4732,3.4899,3.4899,3.4899,3.4899,0.0,0.0,0.0,0.0,0.0,0.0,0.0,0.0,0.0,0.0,0.0,0.0,0.0,0.0,0.0,0.0,0.0,0.0,0.0,0.0,0.0,0.0,0.0,0.0,0.0,3.169,3.1839,3.1839,3.2034,3.2333,3.2796,3.2841,3.3125,3.3784,3.4038,3.4262,3.4487,3.5115,3.5459,3.5459,3.5908,3.6357,3.6791,3.6791,3.712,3.7749,3.7749,3.7868,3.8078,3.8078,3.8078,3.8078,3.7838,3.7749,3.7719,3.7494,3.6387,3.4816,3.4816,3.4816,3.4818,3.4798,3.5003,3.5322,3.5256,3.566,3.6133,3.5657,3.5494,3.5439,3.5002,3.4888,3.4875,3.469,3.4632,3.4632,3.4632,3.4324,3.4028,3.4028,3.3759,3.3607,3.3939,3.4028,3.4028,3.4028,3.3487,3.2877,3.2271,3.2168,3.2168,3.2168,3.2168,3.2168,3.2168,3.2518,3.2605,3.2227,3.2861,3.2895,3.1927,3.2906,3.3244,3.2441,3.3662,3.4302,3.4117,3.4635,3.4899,3.4899,3.4899,3.4899,3.4899,0.0,0.0,0.0,0.0,0.0,0.0,0.0,0.0,0.0,0.0,0.0,0.0,0.0,0.0,0.0,0.0,0.0,0.0,0.0,0.0,0.0,0.0,0.0,3.163,3.2108,3.2542,3.2542,3.3125,3.3529,3.3559,3.3574,3.3858,3.4548,3.519,3.5848,3.6507,3.7135,3.7479,3.7494,3.7524,3.7524,3.7524,3.7524,3.7853,3.8482,3.8482,3.8826,3.9448,3.9448,3.9448,3.9454,3.8781,3.8482,3.8437,3.7793,3.7524,3.7524,3.7434,3.7404,3.7398,3.7319,3.7301,3.7293,3.7141,3.759,3.7953,3.6599,3.6169,3.5936,3.4796,3.4417,3.4284,3.3773,3.3619,3.3619,3.3619,3.3619,3.3619,3.3619,3.3619,3.3619,3.3619,3.3619,3.3619,3.3619,3.4046,3.4209,3.3591,3.3499,3.3499,3.3499,3.3499,0.0,3.3499,3.3499,3.3499,3.3499,3.3499,3.3245,3.2602,3.3604,3.3756,3.2536,3.4027,3.4694,3.4149,3.4611,3.4875,3.4899,3.4899,3.4899,3.4899,0.0,0.0,0.0,0.0,0.0,0.0,0.0,0.0,0.0,0.0,0.0,0.0,0.0,0.0,0.0,0.0,0.0,0.0,0.0,0.0,0.0,3.2706,3.2452,3.2243,3.2811,3.323,3.323,3.3799,3.4397,3.4906,3.5385,3.5923,3.6552,3.6776,3.7165,3.7823,3.8497,3.908,3.9559,4.0038,4.0292,4.0292,4.0292,4.0382,4.0598,4.0598,4.0651,4.0846,4.0846,4.0846,4.0831,4.0673,4.0598,4.0546,4.0367,4.0292,4.0098,3.8167,3.7404,3.7389,3.7365,3.7357,3.7379,3.7349,3.7456,3.7649,3.7795,3.7481,3.7099,3.7291,3.697,3.6511,3.636,3.6327,3.6327,3.6327,3.6327,3.6327,3.6327,3.6327,3.6327,3.6327,3.6327,3.6327,3.6327,3.6445,3.5894,3.3845,3.3499,3.3499,3.3499,3.3499,3.3499,3.3499,3.3499,3.3499,3.3499,3.3499,3.3425,3.3245,3.3517,3.3743,3.3844,3.3849,3.4151,3.4794,3.4511,3.4497,3.4899,3.4899,3.4899,0.0,0.0,0.0,0.0,0.0,0.0,0.0,0.0,0.0,0.0,0.0,0.0,0.0,0.0,0.0,0.0,0.0,0.0,0.0,0.0,0.0,0.0,3.3649,3.3769,3.3769,3.4098,3.4337,3.4337,3.5145,3.5863,3.6267,3.6896,3.7554,3.8197,3.8512,3.8945,3.9604,4.0023,4.0412,4.0801,4.119,4.1422,4.1422,4.1422,4.1557,4.1826,4.1826,4.1938,4.2207,4.2207,4.2207,4.2177,4.1946,4.1826,4.1811,4.1527,4.1422,4.1272,0.0,0.0,0.0,0.0,3.9083,3.9061,3.8735,3.8652,3.8634,3.8506,3.8165,3.7864,3.7998,3.7745,3.7404,3.7404,3.7404,3.7404,3.7404,3.7404,3.7404,3.7404,3.7404,3.7404,3.7404,3.7404,3.7404,3.7404,3.7404,0.0,3.54,3.4921,3.4756,3.4756,3.4517,3.4337,3.4337,3.4337,3.4337,3.4337,3.4337,3.4218,3.3933,3.4422,0.0,0.0,0.0,3.5147,3.5477,3.5093,0.0,0.0,0.0,3.4899,3.4899,3.4899,0.0,0.0,3.4899,3.4899,0.0,0.0,0.0,0.0,0.0,0.0,0.0,0.0,0.0,0.0,0.0,0.0,0.0,0.0,0.0,0.0,3.4831,3.5639,3.5714,3.5848,3.5893,3.5744,3.6851,3.7644,3.7644,3.8302,3.8975,3.9589,4.0187,4.0801,4.1497,4.1527,0.0,0.0,0.0,4.1743,4.1818,4.1818,4.2156,4.2725,4.2725,4.3,4.3514,4.3514,4.3514,4.3484,4.294,4.2725,4.2695,4.2111,4.1788,4.1722,4.1512,4.1422,4.1422,4.1422,4.1397,4.1301,4.0729,0.0,0.0,3.9226,3.8808,3.8641,3.8114,3.7878,3.7749,3.7749,3.7689,3.7644,3.7644,3.7644,3.7644,3.7644,3.7644,3.7644,3.7644,3.7644,3.7644,3.7644,3.7644,3.7644,3.7644,3.706,3.6596,3.6596,3.6103,3.5714,3.5714,3.5714,3.5714,3.5714,3.5654,0.0,3.4788,3.5686,3.5845,3.4807,3.6366,3.6926,3.6075,3.61,3.5827,3.5164,3.5065,3.5015,3.5015,3.4932,3.4899,3.4899,3.4899,3.4899,0.0,0.0,0.0,0.0,0.0,0.0,0.0,0.0,0.0,0.0,0.0,0.0,0.0,0.0,0.0,3.5729,3.6133,3.6477,3.6971,3.7973,3.8257,3.7165,3.8177,3.9,3.9,4.0113,4.0861,4.0995,4.1115,4.1512,4.2171,4.2216,4.2695,4.3718,4.3748,4.4003,4.4526,4.4541,4.4601,4.4736,4.4736,0.0,4.4915,4.4915,4.4915,4.4915,4.4781,4.4736,4.4721,4.4586,4.4227,4.3584,4.1998,4.1422,4.1422,4.1422,4.1408,4.137,4.1265,4.1188,4.1258,4.1541,4.1258,4.0887,4.133,4.0677,0.0,3.9828,3.9439,3.9,3.9,3.9,3.9,3.9,3.9,3.9,3.9,3.9,3.9,3.9,3.9,3.9,3.9,3.8033,3.724,3.724,3.712,3.7045,3.7045,3.7045,3.7045,3.7045,3.6596,3.6237,3.6103,3.5844,3.5994,3.6768,3.7572,3.7452,3.6206,3.6626,3.682,3.6688,3.6092,3.5794,3.5794,3.5181,3.4899,3.4899,3.4899,3.4899,0.0,0.0,0.0,0.0,0.0,0.0,0.0,0.0,0.0,0.0,0.0,3.4696,3.5387,0.0,3.5804,3.6791,3.7225,3.7659,3.8317,3.9275,3.9544,3.8527,3.9589,4.0397,4.0397,4.1294,4.1916,4.1916,4.2476,4.3,4.3314,4.3658,4.4122,4.4781,4.4811,4.496,4.5289,4.5289,4.5289,4.5289,4.5289,4.5289,4.5289,4.5289,4.5289,4.5289,4.5289,4.5289,4.5289,4.5289,4.5095,4.4706,4.3718,4.294,4.2357,4.2357,4.2147,4.1916,4.1916,4.1692,4.1445,4.179,4.1656,4.1445,4.179,4.143,4.0891,4.0891,4.0651,4.0397,4.0397,4.0397,4.0397,4.0397,4.0397,4.0397,4.0397,4.0142,3.9903,3.9903,3.9649,3.9388,3.9388,3.882,3.8302,3.7958,3.7614,3.7404,3.7404,3.7404,3.7404,3.7404,3.7135,3.6941,3.6941,3.6625,3.6859,3.7847,3.8125,3.7769,3.6751,3.7305,3.7483,3.7119,3.6738,3.6555,3.6555,3.6174,3.6009,3.5992,3.5628,3.5247,0.0,0.0,0.0,0.0,0.0,0.0,0.0,3.4608,3.4861,3.5549,3.5699,3.5893,3.6552,3.6776,3.706,3.7704,3.8347,3.902,3.9709,4.0367,4.0591,4.0053,4.0935,4.1564,4.1564,4.2321,4.2785,4.2785,4.3838,4.4511,4.4511,4.5005,4.5349,4.5484,4.5484,4.5559,4.5678,4.5678,4.5678,4.5678,4.5678,4.5678,4.5678,4.5678,4.5678,4.5678,4.5678,4.5678,4.5678,4.5678,4.5603,4.5484,4.5484,4.4766,4.3678,4.3678,4.3299,4.2785,4.2785,4.2312,4.1758,4.1758,4.1758,4.1758,4.1758,4.1669,4.1564,4.1564,4.1512,4.1422,4.1422,4.1422,4.1422,4.1422,4.1422,4.1422,4.1422,4.0965,4.0591,4.0591,4.0172,3.9798,3.9798,3.9798,3.9529,3.8706,3.8138,3.7793,3.7793,3.7793,3.7793,3.7793,3.7811,3.7744,3.7609,3.7595,3.7886,3.8542,3.8518,3.8274,3.7833,3.8196,3.8129,3.7549,3.74,3.7317,3.7317,3.7168,3.7102,3.7102,3.6489,3.5827,3.3305,3.3858,3.4159,3.3619,3.4397,3.5145,0.0,3.4951,3.5579,3.6237,3.6372,3.6567,3.7195,3.7778,3.8392,3.908,3.9753,4.0412,4.107,4.1767,4.2156,4.2081,4.2201,4.2291,4.2291,4.3374,4.4092,4.4092,4.4766,4.5185,4.5185,4.5259,4.5574,4.6187,4.6217,4.6486,4.707,4.7085,4.7085,4.7085,4.7085,4.7085,4.7085,4.7085,4.7085,4.7085,4.7085,4.7085,4.7085,4.7085,4.6741,4.6217,4.6217,4.5738,4.508,4.508,4.4661,4.4092,4.4092,4.3673,4.308,4.308,4.308,4.308,4.308,4.2716,4.2291,4.2291,4.1871,4.1422,4.1422,4.1422,4.1422,4.1422,4.1422,4.1422,4.1422,4.1324,4.1265,4.1265,4.1205,4.116,4.116,4.116,4.0741,3.9484,3.9209,3.92,3.92,3.92,3.92,3.92,3.9226,3.9008,3.8409,3.8319,3.8583,3.9266,3.9241,3.9451,4.0023,3.9477,3.9149,3.9067,3.8411,3.8096,3.8096,3.7433,3.7102,3.7102,3.7036,3.6589,3.3888,3.4562,3.5011,3.4741,3.51,3.5534,3.5624,3.5863,3.6252,3.6881,3.703,3.7225,3.7853,3.8542,3.9215,3.9873,4.0546,4.1205,4.1901,4.2231,4.2695,4.3404,4.3494,4.3494,4.3494,4.4332,4.4885,4.4885,4.5514,4.5888,4.5888,4.6262,4.6591,4.689,4.689,4.7025,4.7309,4.7309,4.7309,4.7309,4.7309,4.7309,4.7309,4.7309,4.7309,4.7309,4.7309,4.7309,4.7309,4.7309,4.7145,4.689,4.689,4.6711,4.6367,4.5589,4.5125,4.4885,4.4885,4.4706,4.4407,4.3992,4.3858,4.3798,4.3409,4.3135,4.2925,4.2925,4.2731,4.2521,4.2521,4.2521,4.2521,4.2521,4.2521,4.2521,4.2521,4.2222,4.1991,4.1991,4.1677,4.1422,4.1422,4.1422,4.1265,4.0822,4.0306,3.988,3.9598,3.9481,3.9553,3.9985,4.006,4.0142,4.0232,3.9495,3.9313,3.9992,3.9594,3.9698,4.0451,4.0512,4.0332,3.9945,3.962,3.9255,3.8825,3.851,3.8377,3.8361,3.7947,3.7582,3.4622,3.513,3.5549,3.5729,3.5774,3.5953,3.6596,3.6746,3.6911,3.7554,3.7689,3.7943,3.8781,3.9349,3.9963,4.0801,4.1339,4.1916,4.2575,4.2626,4.3045,4.4182,4.4466,4.4661,4.484,4.5304,4.5589,4.5589,4.6217,4.6591,4.6591,4.7055,4.7309,4.7309,4.7309,4.7309,4.7309,4.7309,4.7309,4.7309,4.7309,4.7309,4.7309,4.7309,4.7309,4.7309,4.7309,4.7309,4.7309,4.7309,4.7309,4.7309,4.7309,4.7309,4.7189,4.6202,4.5738,4.5589,4.5589,4.5454,4.5214,4.4736,4.4586,4.4496,4.4018,4.3828,4.3798,4.3618,4.3559,4.3529,4.3349,4.329,4.329,4.329,4.329,4.329,4.329,4.297,4.2626,4.2626,4.2252,4.1923,4.1923,4.1923,4.194,4.1896,4.1595,4.1073,4.0351,3.9965,4.006,4.0824,4.0601,4.0718,4.1575,4.054,4.0211,4.1087,4.0434,4.0344,4.1007,4.1337,4.1233,4.068,4.0663,4.0326,3.9597,3.9597,3.9497,3.9282,3.8742,3.851,3.5474,3.5489,3.5654,3.6297,3.6462,3.6626,3.724,3.7375,3.7569,3.8227,3.8362,3.8766,4.0098,4.0352,4.0786,4.2126,4.2366,4.2566,4.317,4.326,4.3514,4.4227,4.487,4.5529,4.6202,4.6234,4.6249,4.6249,4.6905,4.7279,4.7279,4.7294,4.7309,4.7309,4.7309,4.7309,4.7309,4.7309,4.7309,4.7309,4.7309,4.7309,4.7309,4.7309,4.7309,4.7309,4.7309,4.7309,4.7309,4.7309,4.7309,4.7309,4.7309,4.7309,4.7309,4.7249,4.6845,4.6249,4.6249,4.5858,4.5289,4.5274,4.5274,4.5259,4.5244,4.5229,4.5095,4.4466,4.4287,4.4137,4.3469,4.329,4.329,4.329,4.329,4.329,4.329,4.329,4.326,4.326,4.3245,4.323,4.323,4.323,4.306,4.247,4.3113,4.3208,4.1835,4.1075,4.0978,4.1852,4.0804,4.0562,4.1869,4.1147,4.1247,4.2629,4.2038,4.1874,4.2427,4.1965,4.1594,4.1375,4.1375,4.1044,4.0376,4.0376,3.9995,3.9299,3.9282,3.9265,3.5504,3.5818,3.6207,3.6432,3.6791,3.727,3.7913,3.8063,3.8257,3.8931,3.9424,3.9858,4.0322,4.1115,4.1886,4.2336,4.2731,4.309,4.326,4.3663,4.4227,4.4885,4.5559,4.6247,4.692,4.698,4.698,4.698,4.7174,4.7309,4.7309,4.7309,4.7309,4.7309,4.7309,4.7309,4.7309,4.7309,4.7309,4.7309,4.7309,4.7309,4.7309,4.7309,4.7309,4.7309,4.7309,4.7309,4.7309,4.7309,4.7309,4.7309,4.7309,4.7309,4.7309,4.7309,4.7174,4.698,4.698,4.683,4.6561,4.6112,4.5978,4.5888,4.5424,4.5289,4.5244,4.5035,4.496,4.4915,4.4691,4.4317,4.4093,4.4619,4.444,4.4105,4.4105,4.4182,4.4159,4.366,4.366,4.3778,4.3778,4.3778,4.3741,4.3669,4.347,4.3158,4.2674,4.2545,4.2548,4.2704,4.2307,4.2355,4.3297,4.2669,4.2645,4.3608,4.2953,4.2851,4.3539,4.338,4.2984,4.2359,4.2314,4.192,4.1061,4.1061,4.0696,4.0028,4.0028,3.9779,3.5448,3.5933,3.6596,3.706,3.7464,3.7928,3.8601,3.8751,3.8886,3.9334,3.9948,4.0472,4.0711,4.1677,4.247,4.2671,4.306,4.329,4.329,4.3898,4.4556,4.5214,4.5903,4.6576,4.7234,4.7309,4.7309,4.7309,4.7309,4.7309,4.7309,4.7309,4.7309,4.7309,4.7309,4.7309,4.7309,4.7309,4.7309,4.7309,4.7309,4.7309,4.7309,4.7309,4.7309,4.7309,4.7309,4.7309,4.7309,4.7309,4.7309,4.7309,4.7309,4.7309,4.7309,4.7309,4.7309,4.7309,4.7309,4.7309,4.7234,4.6815,4.6681,4.6591,4.6157,4.6007,4.5963,4.5723,4.5663,4.5687,4.5746,4.545,4.5318,4.6152,4.6064,4.5697,4.5463,4.5341,4.5166,4.467,4.4465,4.448,4.4737,4.4774,4.4946,4.5426,4.48,4.4232,4.4055,4.4082,4.4129,4.4076,4.3597,4.3652,4.4601,4.3709,4.35,4.4495,4.3855,4.3663,4.4068,4.4155,4.3879,4.3268,4.3251,4.2827,4.1976,4.1976,4.161,4.0939,4.0901,4.0624,3.5351,3.5927,3.6836,3.8078,3.8422,3.8616,3.9275,3.9388,3.9388,3.9388,3.9948,4.0591,4.122,4.1931,4.2605,4.314,4.3275,4.329,4.329,4.3888,4.4601,4.5214,4.5933,4.6621,4.7249,4.7309,4.7309,4.7309,4.7309,4.7309,4.7309,4.7309,4.7309,4.7309,4.7309,4.7309,4.7309,4.7309,4.7309,4.7309,4.7309,4.7309,4.7309,4.7309,4.7309,4.7309,4.7309,4.7309,4.7309,4.7309,4.7309,4.7309,4.7309,4.7309,4.7309,4.7309,4.7309,4.7309,4.7309,4.7309,4.7309,4.7309,4.7309,4.7309,4.7309,4.7309,4.7174,4.6546,4.6324,4.6386,4.6594,4.6634,4.6825,4.7738,4.8014,4.7925,4.7292,4.6724,4.6386,4.6342,4.5749,4.5458,4.6166,4.624,4.6523,4.7423,4.6984,4.6378,4.5861,4.5661,4.5622,4.5841,4.4671,4.4407,4.5735,4.4381,4.4052,4.5379,4.4793,4.4303,4.4193,4.4286,4.4253,4.4126,4.4097,4.3746,4.3071,4.3071,4.2685,4.1948,4.1844,4.1744,3.515,3.6237,3.7375,3.8182,3.8781,3.92,3.9379,3.9388,3.9388,3.9388,3.9948,4.0442,4.0621,4.1632,4.2455,4.262,4.3015,4.329,4.329,4.4332,4.511,4.5274,4.6337,4.7115,4.7294,4.7309,4.7309,4.7309,4.7309,4.7309,4.7309,4.7309,4.7309,4.7309,4.7309,4.7309,4.7309,4.7309,4.7309,4.7309,4.7309,4.7309,4.7309,4.7309,4.7309,4.7309,4.7309,4.7309,4.7309,4.7309,4.7309,4.7309,4.7309,4.7309,4.7309,4.7309,4.7309,4.7309,4.7309,4.7309,4.7309,4.7309,4.7309,4.7309,4.7309,4.7309,4.7264,4.71,4.7055,4.7053,4.7129,4.6749,4.6757,4.8355,4.8348,4.82,4.8816,4.8961,4.8771,4.8187,4.7593,4.7255,4.7416,4.6996,4.6726,4.6967,4.7305,4.7473,4.7339,4.6854,4.6468,4.6536,4.6206,4.6142,4.6511,4.6146,4.6049,4.6422,4.5747,4.5329,4.5301,4.4818,4.444,4.4253,4.4253,4.4112,4.3813,4.3813,4.3427,4.2719,4.268,4.2378,3.5479,3.6541,3.7644,3.8601,3.9125,3.9388,3.9388,3.9388,3.9388,3.9388,3.9948,4.0397,4.0397,4.1512,4.2396,4.2396,4.291,4.329,4.329,4.4466,4.5289,4.5289,4.6486,4.7309,4.7309,4.7309,4.7309,4.7309,4.7309,4.7309,4.7309,4.7309,4.7309,4.7309,4.7309,4.7309,4.7309,4.7309,4.7309,4.7309,4.7309,4.7309,4.7309,4.7309,4.7309,4.7309,4.7309,4.7309,4.7309,4.7309,4.7337,4.7424,4.7337,4.7439,4.7596,4.7396,4.7352,4.7424,4.7352,4.7309,4.7309,4.7309,4.7337,4.7424,4.7424,4.751,4.7596,4.7596,4.7596,4.7666,4.8019,4.8116,4.8379,4.9408,4.9983,5.0265,5.0199,5.0325,5.0245,4.9447,4.933,4.9357,4.9357,4.8745,4.8233,4.8233,4.8067,4.8032,4.8338,4.7999,4.777,4.777,4.7472,4.7417,4.7736,4.7161,4.6942,4.7246,4.6583,4.6177,4.6177,4.5466,4.5032,4.4901,4.4609,4.4384,4.4315,4.4315,4.4125,4.3704,4.3603,4.3356,3.5793,3.6763,3.7704,3.894,3.9313,3.9388,3.9388,3.9388,3.9388,3.9388,3.9873,4.0277,4.0277,4.1265,4.2171,4.2246,4.2776,4.32,4.329,4.4466,4.5289,4.5289,4.6486,4.7309,4.7309,4.7309,4.7309,4.7309,4.7309,4.7309,4.7309,4.7309,4.7309,4.7309,4.7309,4.7309,4.7309,4.7309,4.7309,4.7309,4.7309,4.7309,4.7309,4.7309,4.7309,4.7309,4.7309,4.7309,4.7309,4.7309,4.7381,4.7553,4.7396,4.7553,4.788,4.751,4.7467,4.7596,4.7381,4.7309,4.7294,4.7352,4.7538,4.7779,4.7779,4.8076,4.8313,4.8313,4.8229,4.8313,4.9025,4.9742,5.0313,5.0493,5.1806,5.2702,5.1496,5.1365,5.1305,5.0691,5.0994,5.1369,5.1369,5.0727,5.0236,5.0236,4.9085,4.8407,4.9075,4.8959,4.8892,4.9001,4.845,4.8306,4.894,4.7833,4.7371,4.7994,4.7361,4.6938,4.6938,4.6244,4.5805,4.5703,4.506,4.4699,4.4615,4.4615,4.4615,4.4615,4.4412,4.4338,3.5088,3.6409,3.7599,3.8377,3.899,3.9388,3.9388,3.9388,3.9388,3.9388,3.9514,3.9553,3.9553,4.0217,4.092,4.1459,4.2141,4.2716,4.3215,4.4466,4.5289,4.5289,4.6486,4.7309,4.7309,4.7309,4.7309,4.7309,4.7309,4.7309,4.7309,4.7309,4.7309,4.7309,4.7309,4.7309,4.7309,4.7309,4.7309,4.7309,4.7309,4.7309,4.7309,4.7309,4.7309,4.7309,4.7309,4.7309,4.7309,4.7309,4.7309,4.7352,4.7294,4.7467,4.7681,4.7596,4.7596,4.7596,4.7538,4.7424,4.7352,4.751,4.803,4.8651,4.8846,4.9423,4.9986,4.9986,4.9503,4.901,4.9172,4.9278,4.9623,5.0467,5.141,5.2279,5.2925,5.3078,5.3078,5.2944,5.2504,5.2114,5.2114,5.1505,5.1014,5.1014,5.0276,4.9755,4.9898,4.885,4.8338,4.8923,4.8909,4.8861,4.9001,4.8759,4.8675,4.8815,4.8139,4.7733,4.7733,4.7005,4.6312,4.572,4.5568,4.5213,4.4615,4.4615,4.4615,4.4615,4.457,4.4542,3.5551,3.6435,3.7165,3.8138,3.8631,3.8975,3.9298,3.9388,3.9388,3.9388,3.9388,3.9388,3.9388,3.9963,4.0502,4.0816,4.1752,4.2515,4.2776,4.4257,4.5289,4.5289,4.6486,4.7309,4.7309,4.7309,4.7309,4.7309,4.7309,4.7309,4.7309,4.7309,4.7309,4.7309,4.7309,4.7309,4.7309,4.7309,4.7309,4.7309,4.7309,4.7309,4.7309,4.7309,4.7309,4.7309,4.7309,4.7309,4.7309,4.7309,4.7424,4.7639,4.751,4.7709,4.8091,4.788,4.788,4.7922,4.7666,4.7639,4.7681,4.7794,4.8339,4.906,4.9303,5.0002,5.0773,5.0773,5.0483,5.0174,5.0174,5.0483,5.0827,5.0903,5.15,5.2345,5.3314,5.3501,5.3501,5.3501,5.3196,5.2926,5.2926,5.2283,5.1775,5.1775,5.115,5.0676,5.0676,4.9714,4.9028,4.9004,4.9001,4.9001,4.9001,4.9001,4.9001,4.9001,4.868,4.8477,4.8477,4.7767,4.7208,4.687,4.6481,4.5906,4.5162,4.5162,4.4976,4.4615,4.4615,4.4615,3.5707,3.6257,3.6731,3.7734,3.8078,3.8362,3.9035,3.92,3.9245,3.9394,3.9388,3.9388,3.9388,3.9843,4.0232,4.0382,4.1422,4.2246,4.2381,4.4047,4.5289,4.5289,4.6486,4.7309,4.7309,4.7309,4.7309,4.7309,4.7309,4.7309,4.7309,4.7309,4.7309,4.7309,4.7309,4.7309,4.7309,4.7309,4.7309,4.7309,4.7309,4.7309,4.7309,4.7309,4.7309,4.7309,4.7309,4.7309,4.7309,4.7309,4.7553,4.788,4.7666,4.7992,4.8495,4.8175,4.816,4.8286,4.8061,4.8103,4.8271,4.8506,4.901,4.9559,4.9765,5.0659,5.159,5.159,5.1496,5.1348,5.1348,5.1842,5.2183,5.1716,5.2112,5.2712,5.3348,5.3501,5.3501,5.3501,5.3501,5.3501,5.3501,5.2976,5.2553,5.2553,5.1928,5.1454,5.1454,5.0794,5.005,4.9306,4.9086,4.9001,4.9001,4.9001,4.9001,4.9001,4.9001,4.9001,4.9001,4.846,4.8041,4.7889,4.7344,4.6667,4.594,4.594,4.5551,4.4852,4.4852,4.4767,3.4452,3.5503,3.6507,3.6626,3.709,3.7674,3.8332,3.8482,3.8661,3.9254,3.9388,3.9388,3.9388,3.9433,3.9709,4.0307,4.0995,4.1707,4.2306,4.4047,4.5289,4.5289,4.6486,4.7309,4.7309,4.7309,4.7309,4.7309,4.7309,4.7309,4.7309,4.7309,4.7309,4.7309,4.7309,4.7309,4.7309,4.7309,4.7309,4.7309,4.7309,4.7309,4.7309,4.7309,4.7309,4.7309,4.7309,4.7309,4.7309,4.7309,4.7424,4.7624,4.7639,4.788,4.8328,4.8301,4.8286,4.8412,4.9075,4.9237,4.9253,5.0158,5.049,5.0621,5.0865,5.2059,5.328,5.328,5.2747,5.22,5.22,5.2236,5.2466,5.3127,5.3348,5.3399,5.3467,5.3501,5.3501,5.3501,5.3501,5.3501,5.3501,5.345,5.3399,5.3399,5.2706,5.2198,5.2198,5.1572,5.0828,5.0067,4.9407,4.9001,4.9001,4.9001,4.9001,4.9001,4.9001,4.9001,4.9001,4.8934,4.8595,4.7906,4.7821,4.7445,4.6684,4.6684,4.6312,4.5602,4.5602,4.5229,3.5019,3.5439,3.5983,3.6387,3.6941,3.7584,3.8242,3.8706,3.9095,3.9328,3.9388,3.9388,3.9388,3.9388,3.9514,3.9768,4.0696,4.1512,4.1767,4.3808,4.5289,4.5289,4.6486,4.7309,4.7309,4.7309,4.7309,4.7309,4.7309,4.7309,4.7309,4.7309,4.7309,4.7309,4.7309,4.7309,4.7309,4.7309,4.7309,4.7309,4.7309,4.7309,4.7309,4.7309,4.7309,4.7309,4.7309,4.7396,4.7467,4.7467,4.7709,4.8007,4.8007,4.8521,4.9244,4.9244,4.9574,5.0017,5.0158,5.0274,5.0368,5.0621,5.1129,5.168,5.1806,5.2607,5.3501,5.3501,5.328,5.3024,5.3024,5.3024,5.3093,5.3433,5.3501,5.3501,5.3501,5.3501,5.3501,5.3501,5.3501,5.3501,5.3501,5.3501,5.3501,5.3501,5.323,5.3027,5.3027,5.235,5.1758,5.1454,5.0371,4.9475,4.9035,4.9001,4.9001,4.9001,4.9001,4.9001,4.9001,4.9001,4.8866,4.8578,4.8578,4.8206,4.7462,4.7462,4.709,4.6363,4.6363,4.5974,3.5213,3.5326,3.5609,3.6088,3.6522,3.706,3.7898,3.8482,3.8931,3.9298,3.9388,3.9388,3.9388,3.9388,3.9388,3.9388,4.0531,4.1422,4.1422,4.3643,4.5289,4.5289,4.6486,4.7309,4.7309,4.7309,4.7309,4.7309,4.7309,4.7309,4.7309,4.7309,4.7309,4.7309,4.7309,4.7309,4.7309,4.7309,4.7309,4.7309,4.7538,4.7694,4.7694,4.7694,4.7807,4.8003,4.7849,4.7849,4.8019,4.8282,4.8532,4.8671,4.8903,4.9534,5.0245,5.0245,5.0615,5.1107,5.1166,5.1294,5.1459,5.15,5.2043,5.2642,5.2642,5.3058,5.3501,5.3501,5.3501,5.3501,5.3501,5.3501,5.3501,5.3501,5.3501,5.3501,5.3501,5.3501,5.3501,5.3501,5.3501,5.3501,5.3501,5.3501,5.3501,5.3501,5.3501,5.3501,5.3501,5.301,5.2553,5.2334,5.1369,5.0355,4.9407,4.9137,4.9001,4.9001,4.9001,4.9001,4.9001,4.9001,4.9001,4.9001,4.9001,4.8748,4.824,4.824,4.7868,4.7124,4.7124,4.6735,3.4528,3.4905,3.5504,3.5519,3.5519,3.5863,3.7135,3.7419,3.7808,3.9155,3.9388,3.9388,3.9388,3.9388,3.9388,3.9388,4.0531,4.1422,4.1422,4.3643,4.5289,4.5289,4.6486,4.7309,4.7309,4.7309,4.7309,4.7309,4.7309,4.7309,4.7309,4.7309,4.7309,4.7309,4.7309,4.7309,4.7309,4.7309,4.7309,4.7309,4.8172,4.8573,4.8573,4.8573,4.9035,4.9726,4.9069,4.88,4.8969,4.9947,5.0025,4.9567,5.0374,5.0849,5.1107,5.1107,5.1107,5.122,5.2004,5.2272,5.2414,5.3212,5.3467,5.3501,5.3501,5.3501,5.3501,5.3501,5.3501,5.3501,5.3501,5.3501,5.3501,5.3501,5.3501,5.3501,5.3501,5.3501,5.3501,5.3501,5.3501,5.3501,5.3501,5.3501,5.3501,5.3501,5.3501,5.3501,5.3501,5.3501,5.3179,5.2384,5.2283,5.1674,5.0202,4.9424,4.9001,4.9001,4.9001,4.9001,4.9001,4.9001,4.9001,4.9001,4.9001,4.9001,4.8984,4.8984,4.8612,4.7872,4.7872,4.7496,3.5198,3.5326,3.5504,3.5504,3.5848,3.6387,3.7225,3.7749,3.8332,3.923,3.9388,3.9388,3.9388,3.9388,3.9388,3.9388,4.0531,4.1422,4.1422,4.3643,4.5289,4.5289,4.6486,4.7309,4.7309,4.7309,4.7309,4.7309,4.7309,4.7309,4.7309,4.7309,4.7309,4.7309,4.7309,4.7309,4.7309,4.7892,4.8172,4.8214,4.9035,4.9423,4.9423,4.9423,4.9647,4.997,4.9773,4.9868,5.0158,5.0451,5.0621,5.0637,5.0865,5.1369,5.1915,5.1915,5.2255,5.2782,5.3007,5.3127,5.3161,5.3433,5.3501,5.3501,5.3501,5.3501,5.3501,5.3501,5.3501,5.3501,5.3501,5.3501,5.3501,5.3501,5.3501,5.3501,5.3501,5.3501,5.3501,5.3501,5.3501,5.3501,5.3501,5.3501,5.3501,5.3501,5.3501,5.3501,5.3501,5.3501,5.3399,5.3145,5.2638,5.1911,5.0947,5.0185,4.9746,4.9746,4.9272,4.9001,4.9001,4.9001,4.9001,4.9001,4.9001,4.9001,4.9001,4.9001,4.8883,4.8646,4.8125,4.7753,3.5504,3.5504,3.5504,3.5504,3.5804,3.6282,3.6926,3.7554,3.8212,3.8886,3.923,3.9388,3.9388,3.9388,3.9388,3.9388,4.0531,4.1422,4.1422,4.3643,4.5484,4.5992,4.68,4.7309,4.7309,4.7309,4.7309,4.7309,4.7309,4.7309,4.7309,4.7309,4.7309,4.7309,4.7309,4.7309,4.7309,4.8172,4.8615,4.8599,4.9742,5.0306,5.0306,5.0306,5.056,5.1038,5.0779,5.0855,0.0,5.161,5.1663,5.157,5.1878,5.2291,5.2747,5.2747,5.3058,5.3501,5.3501,5.3501,5.3501,5.3501,5.3501,5.3501,5.3501,5.3501,5.3501,5.3501,5.3501,5.3501,5.3501,5.3501,5.3501,5.3501,5.3501,5.3501,5.3501,5.3501,5.3501,5.3501,5.3501,5.3501,5.3501,5.3501,5.3501,5.3501,5.3501,5.3501,5.3501,5.3501,5.3501,5.3501,5.3061,5.257,5.2114,5.1116,5.0388,5.0101,4.9661,4.9289,4.9018,4.9001,4.9001,4.9001,4.9001,4.9001,4.9001,4.9001,4.9001,4.8984,4.8545,4.8342,0.0,3.5504,3.5504,3.5504,3.5504,3.5684,3.6342,3.6971,0.0,3.8257,3.8931,3.9388,3.9388,3.9388,3.9388,3.9388,4.0531,4.1422,4.1422,4.3643,4.5798,4.7145,4.7309,4.7309,4.7309,4.7309,4.7309,4.7309,4.7309,4.7309,4.7309,4.7309,4.7309,4.7309,4.7337,4.7337,4.7309,4.8214,4.8682,4.8723,5.04,5.1194,5.1194,5.1194,5.1712,5.2589,5.1974,5.1849,5.2183,5.311,5.3058,5.2466,5.3212,5.3501,5.3501,5.3501,5.3501,5.3501,5.3501,5.3501,5.3501,5.3501,5.3501,5.3501,5.3501,5.3501,5.3501,5.3501,5.3501,5.3501,5.3501,5.3501,5.3501,5.3501,5.3501,5.3501,5.3501,5.3501,5.3501,5.3501,5.3501,5.3501,5.3501,5.3501,5.3501,5.3501,5.3501,5.3501,5.3501,5.3501,5.3501,5.3501,5.3501,5.3501,5.3501,5.2147,5.0997,5.0287,5.0152,4.9779,4.912,4.9035,4.9001,4.9001,4.9001,4.9001,4.9001,4.9001,4.9001,4.9001,4.9001,4.9001,3.5504,0.0,3.5504,3.5504,3.5504,3.5684,0.0,3.6971,3.7599,3.8257,3.8931,3.9388,3.9388,3.9388,3.9388,3.9388,4.0531,4.1422,4.1422,4.3643,4.5798,4.7145,4.7309,4.7309,4.7309,4.7309,4.7309,4.7309,4.7309,4.7309,4.7309,4.7309,4.7309,4.7309,4.7934,4.7976,4.7309,4.8749,4.9543,4.9543,5.1268,5.2089,5.2106,5.2181,5.2466,5.2834,5.2835,5.2956,5.3161,5.3382,5.3399,5.3246,5.3433,5.3501,5.3501,5.3501,5.3501,5.3501,5.3501,5.3501,5.3501,5.3501,5.3501,5.3501,5.3501,5.3501,5.3501,5.3501,5.3501,5.3501,5.3501,5.3501,5.3501,5.3501,5.3501,5.3501,5.3501,5.3501,5.3501,5.3501,5.3501,5.3501,5.3501,5.3501,5.3501,5.3501,5.3501,5.3501,5.3501,5.3501,5.3501,5.3501,5.3501,5.3501,5.3501,5.2604,5.1978,5.1792,5.071,5.0016,4.9847,4.9306,4.9001,4.9001,4.9001,4.9001,4.9001,4.9001,4.9001,4.9001,4.9001,4.9001,3.5504,3.5504,3.5504,3.5504,3.5504,3.5609,3.5953,3.6746,3.7509,3.7868,3.8736,3.9388,3.9388,3.9388,3.9514,3.9828,4.0726,4.1841,4.3,4.4392,4.5798,4.7145,4.7309,4.7309,4.7309,4.7309,4.7309,4.7309,4.7309,4.7309,4.7309,4.7309,4.7309,4.7309,4.813,4.8366,4.7892,4.9559,5.0384,5.0422,5.1782,5.2409,5.2409,5.2535,5.2694,5.2903,5.311,5.3298,5.3501,5.3501,5.3501,5.3501,5.3501,5.3501,5.3501,5.3501,5.3501,5.3501,5.3501,5.3501,5.3501,5.3501,5.3501,5.3501,5.3501,5.3501,5.3501,5.3501,5.3501,5.3501,5.3501,5.3501,5.3501,5.3501,5.3501,5.3501,5.3501,5.3501,5.3501,5.3501,5.3501,5.3501,5.3501,5.3501,5.3501,5.3501,5.3501,5.3501,5.3501,5.3501,5.3501,5.3501,5.3501,5.3501,5.3501,5.3112,5.2689,5.2317,5.1555,5.0811,5.0118,4.9712,4.9357,4.9018,4.9001,4.9001,4.9001,4.9001,4.9001,4.9001,4.9001,4.9001,3.5504,3.5504,3.5504,3.5504,3.5504,3.5504,3.5504,3.6417,3.73,3.7389,3.8392,3.929,3.9394,3.9388,3.9634,4.0292,4.104,4.2417,4.4945,4.5289,4.5798,4.7145,4.7309,4.7309,4.7309,4.7309,4.7309,4.7309,4.7309,4.7309,4.7309,4.7309,4.7309,4.7309,4.824,4.8805,4.8805,5.0306,5.1118,5.1118,5.198,5.2409,5.2445,5.257,5.2764,5.2938,5.3161,5.3348,5.3501,5.3501,5.3501,5.3501,5.3501,5.3501,5.3501,5.3501,5.3501,5.3501,5.3501,5.3501,5.3501,5.3501,5.3501,5.3501,5.3501,5.3501,5.3501,5.3501,5.3501,5.3501,5.3501,5.3501,5.3501,5.3501,5.3501,5.3501,5.3501,5.3501,5.3501,5.3501,5.3501,5.3501,5.3501,5.3501,5.3501,5.3501,5.3501,5.3501,5.3501,5.3501,5.3501,5.3501,5.3501,5.3501,5.3501,5.3501,5.3213,5.2536,5.2367,5.1691,5.0321,5.0152,4.9796,4.9187,4.9069,4.9001,4.9001,4.9001,4.9001,4.9001,4.9001,4.9001,3.5504,3.5504,3.5504,3.5504,3.5504,3.5504,3.5504,3.6088,3.6776,3.73,3.8018,3.8721,3.932,3.9388,3.9634,4.0292,4.1452,4.2965,4.5005,4.5289,4.5798,4.7145,4.7309,4.7309,4.7309,4.7309,4.7309,4.7309,4.7309,4.7309,4.7309,4.7309,4.7309,4.7309,4.879,4.9623,4.9623,5.0592,5.1118,5.1118,5.198,5.248,5.257,5.2764,5.2972,5.3161,5.3382,5.3467,5.3501,5.3501,5.3501,5.3501,5.3501,5.3501,5.3501,5.3501,5.3501,5.3501,5.3501,5.3501,5.3501,5.3501,5.3501,5.3501,5.3501,5.3501,5.3501,5.3501,5.3501,5.3501,5.3501,5.3501,5.3501,5.3501,5.3501,5.3501,5.3501,5.3501,5.3501,5.3501,5.3501,5.3501,5.3501,5.3501,5.3501,5.3501,5.3501,5.3501,5.3501,5.3501,5.3501,5.3501,5.3501,5.3501,5.3501,5.3501,5.345,5.3331,5.2689,5.1928,5.1082,5.0422,5.0033,4.9915,4.9323,4.9001,4.9001,4.9001,4.9001,4.9001,4.9001,4.9001,3.5504,3.5504,3.5504,3.5504,3.5504,3.5504,3.5504,3.6267,3.706,3.7345,3.8227,3.9035,3.9328,3.9709,4.0277,4.1294,4.2267,4.3449,4.5065,4.5289,4.5798,4.7145,4.7309,4.7309,4.7309,4.7309,4.7309,4.7309,4.7309,4.7309,4.7309,4.7309,4.7309,4.7309,4.8913,4.9805,4.9805,5.114,5.1782,5.1818,5.2269,5.2535,5.2589,5.2903,5.311,5.3213,5.3416,5.3501,5.3501,5.3501,5.3501,5.3501,5.3501,5.3501,5.3501,5.3501,5.3501,5.3501,5.3501,5.3501,5.3501,5.3501,5.3501,5.3501,5.3501,5.3501,5.3501,5.3501,5.3501,5.3501,5.3501,5.3501,5.3501,5.3501,5.3501,5.3501,5.3501,5.3501,5.3501,5.3501,5.3501,5.3501,5.3501,5.3501,5.3501,5.3501,5.3501,5.3501,5.3501,5.3501,5.3501,5.3501,5.3501,5.3501,5.3501,5.3501,5.3501,5.3501,5.2739,5.2147,5.1809,5.1099,5.0693,5.0693,4.9965,4.9593,4.9593,4.9187,4.9001,4.9001,4.9001,4.9001,3.5504,3.5504,3.5504,3.5504,3.5504,3.5549,3.5699,3.6492,3.727,3.7584,3.8452,3.9275,3.9589,4.0307,4.119,4.2231,4.303,4.3932,4.5125,4.5439,4.5978,4.716,4.7309,4.7309,4.7309,4.7309,4.7309,4.7309,4.7309,4.7309,4.7309,4.7309,4.7309,4.7309,4.8749,4.9623,4.9805,5.1343,5.2178,5.2409,5.2535,5.2624,5.2694,5.3041,5.323,5.3264,5.3416,5.3501,5.3501,5.3501,5.3501,5.3501,5.3501,5.3501,5.3501,5.3501,5.3501,5.3501,5.3501,5.3501,5.3501,5.3501,5.3501,5.3501,5.3501,5.3501,5.3501,5.3501,5.3501,5.3501,5.3501,5.3501,5.3501,5.3501,5.3501,5.3501,5.3501,5.3501,5.3501,5.3501,5.3501,5.3501,5.3501,5.3501,5.3501,5.3501,5.3501,5.3501,5.3501,5.3501,5.3501,5.3501,5.3501,5.3501,5.3501,5.3501,5.3501,5.3501,5.2926,5.2587,5.2587,5.186,5.1471,5.1471,5.0727,5.0355,5.0355,4.961,4.9255,4.9255,4.9086,4.9001,3.5504,3.5504,3.5504,3.5504,3.5504,3.5669,3.6282,3.6492,3.6896,3.8078,3.8392,3.8841,4.0098,4.1369,4.2291,4.2381,4.3419,4.4481,4.52,4.5843,4.6516,4.7219,4.7309,4.7309,4.7309,4.7309,4.7309,4.7309,4.7309,4.7309,4.7309,4.7309,4.7309,4.7309,4.8214,4.9035,4.9805,5.0745,5.1598,5.2409,5.2535,5.2694,5.2868,5.311,5.3298,5.3467,5.3501,5.3501,5.3501,5.3501,5.3501,5.3501,5.3501,5.3501,5.3501,5.3501,5.3501,5.3501,5.3501,5.3501,5.3501,5.3501,5.3501,5.3501,5.3501,5.3501,5.3501,5.3501,5.3501,5.3501,5.3501,5.3501,5.3501,5.3501,5.3501,5.3501,5.3501,5.3501,5.3501,5.3501,5.3501,5.3501,5.3501,5.3501,5.3501,5.3501,5.3501,5.3501,5.3501,5.3501,5.3501,5.3501,5.3501,5.3501,5.3501,5.3501,5.3501,5.3501,5.345,5.3416,5.3416,5.2655,5.2232,5.2232,5.1505,5.1133,5.1133,5.0371,5.0016,4.9999,4.9323,4.9001,3.5504,3.5504,3.5504,3.5504,3.5804,3.6178,3.6432,3.6791,3.7315,3.8197,3.8736,3.9439,4.0771,4.1796,4.253,4.2895,4.3718,4.4541,4.52,4.5888,4.6576,4.7234,4.7309,4.7309,4.7309,4.7309,4.7309,4.7309,4.7309,4.7309,4.7309,4.7309,4.7309,4.7309,4.8641,4.9503,4.9805,5.1273,5.2181,5.2535,5.2694,5.2834,5.2903,5.3246,5.3433,5.3501,5.3501,5.3501,5.3501,5.3501,5.3501,5.3501,5.3501,5.3501,5.3501,5.3501,5.3501,5.3501,5.3501,5.3501,5.3501,5.3501,5.3501,5.3501,5.3501,5.3501,5.3501,5.3501,5.3501,5.3501,5.3501,5.3501,5.3501,5.3501,5.3501,5.3501,5.3501,5.3501,5.3501,5.3501,5.3501,5.3501,5.3501,5.3501,5.3501,5.3501,5.3501,5.3501,5.3501,5.3501,5.3501,5.3501,5.3501,5.3501,5.3501,5.3501,5.3501,5.3501,5.3501,5.3501,5.3501,5.3213,5.3061,5.3061,5.2283,5.1894,5.1894,5.115,5.0794,5.0777,5.0033,4.9678,3.5504,3.5504,3.5504,3.5504,3.5998,3.6537,3.6731,3.727,3.7913,3.8571,3.9424,4.0382,4.1527,4.2261,4.288,4.3499,4.4197,4.4855,4.5529,4.6202,4.68,4.7249,4.7309,4.7309,4.7309,4.7309,4.7309,4.7309,4.7309,4.7309,4.7309,4.7309,4.7309,4.7309,4.8708,4.9607,4.9868,5.1463,5.2414,5.2694,5.2903,5.3007,5.3024,5.3365,5.3501,5.3501,5.3501,5.3501,5.3501,5.3501,5.3501,5.3501,5.3501,5.3501,5.3501,5.3501,5.3501,5.3501,5.3501,5.3501,5.3501,5.3501,5.3501,5.3501,5.3501,5.3501,5.3501,5.3501,5.3501,5.3501,5.3501,5.3501,5.3501,5.3501,5.3501,5.3501,5.3501,5.3501,5.3501,5.3501,5.3501,5.3501,5.3501,5.3501,5.3501,5.3501,5.3501,5.3501,5.3501,5.3501,5.3501,5.3501,5.3501,5.3501,5.3501,5.3501,5.3501,5.3501,5.3501,5.3501,5.3501,5.3501,5.3501,5.3501,5.2959,5.2689,5.2689,5.1928,5.1555,5.1539,5.0794,5.0439,3.5504,3.5504,3.5504,3.5504,3.6013,3.6656,3.727,3.7913,3.8586,3.929,4.0472,4.1617,4.2276,4.2895,4.3514,4.4212,4.487,4.5529,4.619,4.689,4.7309,4.7309,4.7309,4.7309,4.7309,4.7309,4.7309,4.7309,4.7309,4.7309,4.7309,4.7309,4.7294,4.7294,4.8293,4.9215,5.0126,5.1101,5.2046,5.2903,5.311,5.3179,5.3213,5.3416,5.3501,5.3501,5.3501,5.3501,5.3501,5.3501,5.3501,5.3501,5.3501,5.3501,5.3501,5.3501,5.3501,5.3501,5.3501,5.3501,5.3501,5.3501,5.3501,5.3501,5.3501,5.3501,5.3501,5.3501,5.3501,5.3501,5.3501,5.3501,5.3501,5.3501,5.3501,5.3501,5.3501,5.3501,5.3501,5.3501,5.3501,5.3501,5.3501,5.3501,5.3501,5.3501,5.3501,5.3501,5.3501,5.3501,5.3501,5.3501,5.3501,5.3501,5.3501,5.3501,5.3501,5.3501,5.3501,5.3501,5.3501,5.3501,5.3501,5.3501,5.3501,5.3501,5.3501,5.2706,5.2317,5.23,5.1555,5.1202,3.5504,3.5504,3.5504,3.5504,3.6327,3.718,3.736,3.7913,3.8721,3.9873,4.0786,4.1617,4.2276,4.2895,4.3514,4.4212,4.487,4.5529,4.619,4.689,4.7309,4.7309,4.7309,4.7309,4.7309,4.7309,4.7309,4.7309,4.7309,4.7309,4.7309,4.7309,4.7609,4.8335,4.9215,5.0188,5.1139,5.2189,5.287,5.311,5.3314,5.3348,5.3213,5.3416,5.3501,5.3501,5.3501,5.3501,5.3501,5.3501,5.3501,5.3501,5.3501,5.3501,5.3501,5.3501,5.3501,5.3501,5.3501,5.3501,5.3501,5.3501,5.3501,5.3501,5.3501,5.3501,5.3501,5.3501,5.3501,5.3501,5.3501,5.3501,5.3501,5.3501,5.3501,5.3501,5.3501,5.3501,5.3501,5.3501,5.3501,5.3501,5.3501,5.3501,5.3501,5.3501,5.3501,5.3501,5.3501,5.3501,5.3501,5.3501,5.3501,5.3501,5.3501,5.3501,5.3501,5.3501,5.3501,5.3501,5.3501,5.3501,5.3501,5.3501,5.3501,5.3501,5.3501,5.3264,5.3145,5.3129,5.235,5.1978,3.5504,3.5504,3.5504,3.5504,3.6462,3.7554,3.8078,3.8721,3.9499,4.0576,4.1347,4.2006,4.2626,4.306,4.3604,4.4556,4.5035,4.5633,4.6576,4.7055,4.7309,4.7309,4.7309,4.7309,4.7309,4.7309,4.7309,4.7309,4.7309,4.7309,4.7309,4.7309,4.7609,4.8293,4.9551,5.055,5.1229,5.2627,5.3298,5.3298,5.3433,5.3433,5.3298,5.345,5.3501,5.3501,5.3501,5.3501,5.3501,5.3501,5.3501,5.3501,5.3501,5.3501,5.3501,5.3501,5.3501,5.3501,5.3501,5.3501,5.3501,5.3501,5.3501,5.3501,5.3501,5.3501,5.3501,5.3501,5.3501,5.3501,5.3501,5.3501,5.3501,5.3501,5.3501,5.3501,5.3501,5.3501,5.3501,5.3501,5.3501,5.3501,5.3501,5.3501,5.3501,5.3501,5.3501,5.3501,5.3501,5.3501,5.3501,5.3501,5.3501,5.3501,5.3501,5.3501,5.3501,5.3501,5.3501,5.3501,5.3501,5.3501,5.3501,5.3501,5.3501,5.3618,5.3865,5.3865,5.3996,5.422,5.3771,5.353,3.5504,3.5504,3.5519,3.5579,3.6552,3.7838,3.9125,3.9978,4.0651,4.125,4.1946,4.259,4.317,4.329,4.3723,4.508,4.5289,4.5768,4.7115,4.7309,4.7309,4.7309,4.7309,4.7309,4.7309,4.7309,4.7309,4.7309,4.7309,4.7309,4.7309,4.7309,4.7467,4.7752,4.9487,5.0566,5.0849,5.2609,5.3501,5.3501,5.3501,5.3501,5.3501,5.3501,5.3501,5.3501,5.3501,5.3501,5.3501,5.3501,5.3501,5.3501,5.3501,5.3501,5.3501,5.3501,5.3501,5.3501,5.3501,5.3501,5.3501,5.3501,5.3501,5.3501,5.3501,5.3501,5.3501,5.3501,5.3501,5.3501,5.3501,5.3501,5.3501,5.3501,5.3501,5.3501,5.3501,5.3501,5.3501,5.3501,5.3501,5.3501,5.3501,5.3501,5.3501,5.3501,5.3501,5.3501,5.3501,5.3501,5.3501,5.3501,5.3501,5.3501,5.3501,5.3501,5.3534,5.3584,5.3584,5.3584,5.3584,5.3534,5.3501,5.3501,5.3501,5.3816,5.4391,5.4391,5.4734,5.5385,5.5385,5.5385,3.5504,3.5504,3.5624,3.6148,3.7225,3.8392,3.9194,4.0337,4.1205,4.1354,4.1946,4.259,4.317,4.329,4.3723,4.508,4.5289,4.5768,4.7115,4.7309,4.7309,4.7309,4.7309,4.7309,4.7309,4.7309,4.7309,4.7309,4.7309,4.7309,4.7309,4.7467,4.7949,4.8821,5.0002,5.1038,5.1951,5.2972,5.3501,5.3501,5.3501,5.3501,5.3501,5.3501,5.3501,5.3501,5.3501,5.3501,5.3501,5.3501,5.3501,5.3501,5.3501,5.3501,5.3501,5.3501,5.3501,5.3501,5.3501,5.3501,5.3501,5.3501,5.3501,5.3501,5.3501,5.3501,5.3501,5.3501,5.3501,5.3501,5.3501,5.3501,5.3501,5.3501,5.3501,5.3501,5.3501,5.3501,5.3501,5.3501,5.3501,5.3501,5.3501,5.3501,5.3501,5.3501,5.3501,5.3501,5.3501,5.3501,5.3501,5.3501,5.3501,5.3501,5.3501,5.3501,5.3701,5.4171,5.4203,5.4203,5.4203,5.375,5.3501,5.3501,5.3501,5.3816,5.4391,5.4391,5.4734,5.5385,5.5385,5.5385,3.5504,3.5504,3.5729,3.6686,3.7659,3.8571,3.926,4.0442,4.1422,4.1422,4.2147,4.294,4.323,4.329,4.3723,4.508,4.5289,4.5768,4.7115,4.7309,4.7309,4.7309,4.7309,4.7309,4.7309,4.7309,4.7309,4.7309,4.7309,4.7337,4.7424,4.7553,4.7949,4.8754,5.0002,5.1038,5.1733,5.2903,5.3501,5.3501,5.3501,5.3501,5.3501,5.3501,5.3501,5.3501,5.3501,5.3501,5.3501,5.3501,5.3501,5.3501,5.3501,5.3501,5.3501,5.3501,5.3501,5.3501,5.3501,5.3501,5.3501,5.3501,5.3501,5.3501,5.3501,5.3501,5.3501,5.3501,5.3501,5.3501,5.3501,5.3501,5.3501,5.3501,5.3501,5.3501,5.3501,5.3501,5.3501,5.3501,5.3501,5.3501,5.3501,5.3501,5.3501,5.3501,5.3501,5.3501,5.3501,5.3501,5.3501,5.3501,5.375,5.3913,5.3913,5.4237,5.4551,5.4857,5.4913,5.4926,5.4926,5.4699,5.4391,5.4009,5.4108,5.4596,5.549,5.549,5.5823,5.6465,5.6465,5.6465,3.5504,3.5669,3.6088,3.715,3.7988,3.8721,3.9254,4.0442,4.1422,4.1422,4.2417,4.329,4.329,4.329,4.3723,4.508,4.5289,4.5768,4.7115,4.7309,4.7309,4.7309,4.7309,4.7309,4.7309,4.7309,4.7309,4.7309,4.7352,4.7424,4.7581,4.7666,4.7949,4.848,4.9962,5.0941,5.1294,5.2782,5.3501,5.3501,5.3501,5.3501,5.3501,5.3501,5.3501,5.3501,5.3501,5.3501,5.3501,5.3501,5.3501,5.3501,5.3501,5.3501,5.3501,5.3501,5.3501,5.3501,5.3501,5.3501,5.3501,5.3501,5.3501,5.3501,5.3501,5.3501,5.3501,5.3501,5.3501,5.3501,5.3501,5.3501,5.3501,5.3501,5.3501,5.3501,5.3501,5.3501,5.3501,5.3501,5.3501,5.3501,5.3501,5.3501,5.3501,5.3501,5.3501,5.3501,5.3501,5.3501,5.3501,5.3501,5.4027,5.4391,5.4391,5.5039,5.5473,5.5589,5.5663,5.5702,5.5702,5.5854,5.561,5.4999,5.5004,5.5583,5.6704,5.6704,5.7007,5.7601,5.7601,5.7601,3.5504,3.6312,3.7195,3.736,3.8347,3.9305,3.9394,4.0442,4.1422,4.1422,4.2417,4.329,4.329,4.329,4.3723,4.508,4.5289,4.5768,4.7115,4.7309,4.7309,4.7309,4.7309,4.7309,4.7309,4.7309,4.7309,4.7309,4.7467,4.7596,4.7581,4.8007,4.8547,4.9303,5.0445,5.1406,5.2112,5.3058,5.3501,5.3501,5.3501,5.3501,5.3501,5.3501,5.3501,5.3501,5.3501,5.3501,5.3501,5.3501,5.3501,5.3501,5.3501,5.3501,5.3501,5.3501,5.3501,5.3501,5.3501,5.3501,5.3501,5.3501,5.3501,5.3501,5.3501,5.3501,5.3501,5.3501,5.3501,5.3501,5.3501,5.3501,5.3501,5.3501,5.3501,5.3501,5.3501,5.3501,5.3501,5.3501,5.3501,5.3501,5.3501,5.3501,5.3501,5.3501,5.3501,5.3501,5.3501,5.3501,5.3501,5.3501,5.4027,5.4391,5.4391,5.5077,5.572,5.6321,5.6465,5.6528,5.6528,5.666,5.6695,5.6589,5.5938,5.5956,5.6704,5.6704,5.7007,5.7601,5.7601,5.7601,3.5953,3.6716,3.7494,3.7868,3.8691,3.9388,3.9388,4.0442,4.1422,4.1422,4.2417,4.329,4.329,4.329,4.3723,4.508,4.5289,4.5768,4.7115,4.7309,4.7309,4.7309,4.7309,4.7309,4.7309,4.7309,4.7352,4.7467,4.7553,4.7709,4.8007,4.8202,4.8521,4.8984,5.0368,5.1257,5.1606,5.2852,5.3501,5.3501,5.3501,5.3501,5.3501,5.3501,5.3501,5.3501,5.3501,5.3501,5.3501,5.3501,5.3501,5.3501,5.3501,5.3501,5.3501,5.3501,5.3501,5.3501,5.3501,5.3501,5.3501,5.3501,5.3501,5.3501,5.3501,5.3501,5.3501,5.3501,5.3501,5.3501,5.3501,5.3501,5.3501,5.3501,5.3501,5.3501,5.3501,5.3501,5.3501,5.3501,5.3501,5.3501,5.3501,5.3501,5.3501,5.3501,5.3501,5.3501,5.3501,5.3551,5.3733,5.4074,5.4778,5.5332,5.5663,5.6304,5.6791,5.7102,5.7227,5.732,5.732,5.7443,5.7516,5.7516,5.685,5.6799,5.7443,5.7443,5.7565,5.7815,5.7815,5.7815,3.6312,3.6941,3.7569,3.8227,3.8901,3.9388,3.9388,4.0307,4.1175,4.1339,4.2282,4.3135,4.326,4.329,4.3663,4.4855,4.5185,4.5708,4.689,4.7189,4.7309,4.7309,4.7309,4.7309,4.7309,4.7309,4.7381,4.7581,4.7666,4.788,4.8286,4.8328,4.8537,4.8934,5.0345,5.1182,5.1406,5.2782,5.3501,5.3501,5.3501,5.3501,5.3501,5.3501,5.3501,5.3501,5.3501,5.3501,5.3501,5.3501,5.3501,5.3501,5.3501,5.3501,5.3501,5.3501,5.3501,5.3501,5.3501,5.3501,5.3501,5.3501,5.3501,5.3501,5.3501,5.3501,5.3501,5.3501,5.3501,5.3501,5.3501,5.3501,5.3501,5.3501,5.3501,5.3501,5.3501,5.3501,5.3501,5.3501,5.3501,5.3501,5.3501,5.3501,5.3501,5.3501,5.3501,5.3501,5.3501,5.3733,5.4089,5.4558,5.5461,5.6213,5.6652,5.7277,5.7649,5.7649,5.7768,5.7839,5.7839,5.795,5.7997,5.7997,5.7546,5.7546,5.7997,5.7997,5.7997,5.7997,5.7997,5.7997,3.6312,3.6941,3.7569,3.8227,3.8901,3.9388,3.9388,3.9963,4.0621,4.125,4.1976,4.2635,4.317,4.329,4.3514,4.4257,4.4885,4.5544,4.6277,4.692,4.7309,4.7309,4.7309,4.7309,4.7309,4.7309,4.7381,4.7581,4.7852,4.8091,4.8301,4.8495,4.8975,4.9805,5.0653,5.1459,5.2236,5.3093,5.3501,5.3501,5.3501,5.3501,5.3501,5.3501,5.3501,5.3501,5.3501,5.3501,5.3501,5.3501,5.3501,5.3501,5.3501,5.3501,5.3501,5.3501,5.3501,5.3501,5.3501,5.3501,5.3501,5.3501,5.3501,5.3501,5.3501,5.3501,5.3501,5.3501,5.3501,5.3501,5.3501,5.3501,5.3501,5.3501,5.3501,5.3501,5.3501,5.3501,5.3501,5.3501,5.3501,5.3501,5.3501,5.3501,5.3501,5.3501,5.3501,5.3501,5.3501,5.4106,5.4575,5.4589,5.5833,5.6652,5.6696,5.737,5.7792,5.7792,5.7927,5.7997,5.7997,5.7997,5.7997,5.7997,5.7973,5.7973,5.7997,5.7997,5.7997,5.7997,5.7997,5.7997,3.6791,3.724,3.7674,3.8781,3.923,3.9388,3.9388,3.9933,4.0591,4.125,4.1946,4.259,4.317,4.329,4.3514,4.4212,4.4511,4.505,4.613,4.6488,4.683,4.7249,4.7424,4.7424,4.7294,4.7553,4.7794,4.7837,4.8049,4.8286,4.8495,4.8578,4.8728,4.9056,5.0384,5.1716,5.3058,5.3365,5.3501,5.3501,5.3501,5.3501,5.3501,5.3501,5.3501,5.3501,5.3501,5.3501,5.3501,5.3501,5.3501,5.3501,5.3501,5.3501,5.3501,5.3501,5.3501,5.3501,5.3501,5.3501,5.3501,5.3501,5.3501,5.3501,5.3501,5.3501,5.3501,5.3501,5.3501,5.3501,5.3501,5.3501,5.3501,5.3501,5.3501,5.3501,5.3501,5.3501,5.3501,5.3501,5.3501,5.3501,5.3501,5.3501,5.3501,5.3501,5.3584,5.3766,5.4154,5.4624,5.5226,5.5984,5.6616,5.7116,5.7516,5.7792,5.7927,5.7927,5.7973,5.7997,5.7997,5.7997,5.7997,5.7997,5.7997,5.7997,5.7997,5.7997,5.7997,5.7997,5.7997,5.7997,3.706,3.7404,3.7734,3.9059,3.9388,3.9388,3.9388,3.9753,4.0247,4.092,4.1617,4.2276,4.288,4.314,4.3439,4.3873,4.4167,4.4631,4.5514,4.5843,4.6217,4.6961,4.7137,4.7269,4.7523,4.7724,4.7922,4.8091,4.8202,4.837,4.8578,4.862,4.8852,4.9414,5.0767,5.2148,5.3501,5.3501,5.3501,5.3501,5.3501,5.3501,5.3501,5.3501,5.3501,5.3501,5.3501,5.3501,5.3501,5.3501,5.3501,5.3501,5.3501,5.3501,5.3501,5.3501,5.3501,5.3501,5.3501,5.3501,5.3501,5.3501,5.3501,5.3501,5.3501,5.3501,5.3501,5.3501,5.3501,5.3501,5.3501,5.3501,5.3501,5.3501,5.3501,5.3501,5.3501,5.3501,5.3501,5.3501,5.3501,5.3501,5.3501,5.3701,5.3848,5.3848,5.4154,5.4513,5.4939,5.5385,5.6019,5.6791,5.7209,5.7546,5.7973,5.7997,5.7997,5.7997,5.7997,5.7997,5.7997,5.7997,5.7997,5.7997,5.7997,5.7997,5.7997,5.7997,5.7997,5.7997,5.7997,5.7997,0.0,0.0,0.0,3.9059,3.9388,3.9388,3.9388,3.9388,3.9604,4.0262,4.0905,4.1602,4.2276,4.288,4.3275,4.329,4.3828,4.4287,4.4317,4.487,4.5582,4.6493,4.6404,4.6746,4.7873,4.7737,4.7837,4.8244,4.8286,4.8412,4.8578,4.862,4.9374,5.1032,5.1878,5.2677,5.3501,5.3501,5.3501,5.3501,5.3501,5.3501,5.3501,5.3501,5.3501,5.3501,5.3501,5.3501,5.3501,5.3501,5.3501,5.3501,5.3501,5.3501,5.3501,5.3501,5.3501,5.3501,5.3501,5.3501,5.3501,5.3501,5.3501,5.3501,5.3501,5.3501,5.3501,5.3501,5.3501,5.3501,5.3501,5.3501,5.3501,5.3501,5.3501,5.3501,5.3501,5.3501,5.3501,5.3501,5.3501,5.3501,5.3534,5.4139,5.462,5.462,5.5232,5.5724,5.5734,5.6438,5.6912,5.6938,5.7565,5.7997,5.7997,5.7997,5.7997,5.7997,5.7997,5.7997,5.7997,5.7997,5.7997,5.7997,5.7997,5.7997,5.7997,5.7997,5.7997,5.7997,5.7997,5.7997,3.706,0.0,0.0,0.0,0.0,0.0,3.9388,3.9388,3.9604,4.0262,4.0546,4.101,4.2186,4.2545,4.2776,4.3215,4.3439,4.3738,4.4242,4.4466,4.4907,4.5759,4.6411,4.6929,4.7266,4.7886,4.8328,4.8286,4.8453,4.8537,4.862,4.9203,5.001,5.107,5.1878,5.2677,5.3501,5.3501,5.3501,5.3501,5.3501,5.3501,5.3501,5.3501,5.3501,5.3501,5.3501,5.3501,5.3501,5.3501,5.3501,5.3501,5.3501,5.3501,5.3501,5.3501,5.3501,5.3501,5.3501,5.3501,5.3501,5.3501,5.3501,5.3501,5.3501,5.3501,5.3501,5.3501,5.3501,5.3501,5.3501,5.3501,5.3501,5.3501,5.3501,5.3501,5.3501,5.3501,5.3501,5.3501,5.3584,5.3799,5.4218,5.4579,5.4961,5.532,5.5685,5.6067,5.6518,5.6843,5.7209,5.7637,5.7886,5.7997,5.7997,5.7997,5.7997,5.7997,5.7997,5.7997,5.7997,5.7997,5.7997,5.7997,5.7997,5.7997,5.7997,5.7997,5.7997,5.7997,5.7997,5.7997,0.0,0.0,3.8546,3.9571,0.0,0.0,3.9388,3.9388,3.9493,3.9903,4.0217,4.0636,4.1399,4.2036,4.253,4.2865,4.3244,4.3598,4.3988,4.4048,4.4394,4.5364,4.5885,4.6331,4.6798,4.7574,4.8024,4.7998,4.8383,4.862,4.862,4.9734,5.0631,5.1107,5.2219,5.3024,5.3518,5.3501,5.3501,5.3501,5.3501,5.3501,5.3501,5.3501,5.3501,5.3501,5.3501,5.3501,5.3501,5.3501,5.3501,5.3501,5.3501,5.3501,5.3501,5.3501,5.3501,5.3501,5.3501,5.3501,5.3501,5.3501,5.3501,5.3501,5.3501,5.3501,5.3501,5.3501,5.3501,5.3501,5.3501,5.3501,5.3501,5.3501,5.3501,5.3501,5.3501,5.3501,5.3584,5.3832,5.3994,5.4264,5.4878,5.5402,5.5851,5.6132,5.6571,5.6971,5.7309,5.7425,5.7613,5.7955,5.7997,5.7997,5.7997,5.7997,5.7997,5.7997,5.7997,5.7997,5.7997,5.7997,5.7997,5.7997,5.7997,5.7997,5.7997,5.7997,5.7997,5.7997,5.7997,5.7997,0.0,0.0,0.0,4.0343,3.995,0.0,3.9424,3.9424,3.946,3.946,3.9925,4.0344,4.0419,4.143,4.2239,4.2329,4.3055,4.3639,4.3675,4.3729,4.4098,4.5052,4.5087,4.5401,4.6379,4.6935,4.7324,4.7604,4.8235,4.862,4.862,5.019,5.1107,5.1107,5.2661,5.3501,5.3501,5.3501,5.3501,5.3501,5.3501,5.3501,5.3501,5.3501,5.3501,5.3501,5.3501,5.3501,5.3501,5.3501,5.3501,5.3501,5.3501,5.3501,5.3501,5.3501,5.3501,5.3501,5.3501,5.3501,5.3501,5.3501,5.3501,5.3501,5.3501,5.3501,5.3501,5.3501,5.3501,5.3501,5.3501,5.3501,5.3501,5.3501,5.3501,5.3501,5.3501,5.3551,5.3816,5.4422,5.4575,5.4866,5.5541,5.6358,5.6938,5.7015,5.7589,5.7997,5.7997,5.7997,5.7997,5.7997,5.7997,5.7997,5.7997,5.7997,5.7997,5.7997,5.7997,5.7997,5.7997,5.7997,5.7997,5.7997,5.7997,5.7997,5.7997,5.7997,5.7997,5.7997,5.7997,5.7997,3.928,3.9511,3.9665,4.0343,3.995,0.0,3.9589,3.9661,3.9696,3.9854,3.9838,4.0007,4.0549,4.085,4.1212,4.1731,4.2569,4.3265,4.3654,4.3832,4.4072,4.4465,4.4954,4.5375,4.5772,4.6364,4.6979,4.7573,4.8235,4.862,4.862,5.019,5.1107,5.1107,5.2661,5.3501,5.3501,5.3501,5.3501,5.3501,5.3501,5.3501,5.3501,5.3501,5.3501,5.3501,5.3501,5.3501,5.3501,5.3501,5.3501,5.3501,5.3501,5.3501,5.3501,5.3501,5.3501,5.3501,5.3501,5.3501,5.3501,5.3501,5.3501,5.3501,5.3501,5.3501,5.3501,5.3501,5.3501,5.3501,5.3501,5.3501,5.3501,5.3501,5.3501,5.3501,5.3501,5.3979,5.4575,5.5179,5.5034,5.5231,5.643,5.6869,5.7234,5.7726,5.7909,5.7997,5.7997,5.7997,5.7997,5.7997,5.7997,5.7997,5.7997,5.7997,5.7997,5.7997,5.7997,5.7997,5.7997,5.7997,5.7997,5.7997,5.7997,5.7997,5.7997,5.7997,5.7997,5.7997,5.7997,5.7997,4.0438,4.0841,4.1131,4.1561,4.1095,0.0,0.0,4.0339,4.0285,4.0066,3.9925,3.9945,4.0277,4.061,4.0958,4.1306,4.2097,4.2719,4.2978,4.3678,4.4205,4.4435,4.4726,4.4964,4.508,4.5695,4.6511,4.7527,4.7912,4.8455,4.9228,5.0422,5.1294,5.1696,5.2868,5.3501,5.3501,5.3501,5.3501,5.3501,5.3501,5.3501,5.3501,5.3501,5.3501,5.3501,5.3501,5.3501,5.3501,5.3501,5.3501,5.3501,5.3501,5.3501,5.3501,5.3501,5.3501,5.3501,5.3501,5.3501,5.3501,5.3501,5.3501,5.3501,5.3501,5.3501,5.3501,5.3501,5.3501,5.3501,5.3501,5.3501,5.3501,5.3501,5.3734,5.3979,5.4009,5.4575,5.5279,5.6039,5.6029,5.6213,5.7184,5.7449,5.766,5.7932,5.7997,5.7997,5.7997,5.7997,5.7997,5.7997,5.7997,5.7997,5.7997,5.7997,5.7997,5.7997,5.7997,5.7997,5.7997,5.7997,5.7997,5.7997,5.7997,5.7997,5.7997,5.7997,5.7997,5.7997,5.7997,5.7997,4.14,4.2029,4.2475,4.2599,4.2157,4.1609,0.0,0.0,0.0,4.0612,4.0351,4.0261,4.0261,4.0578,4.0842,4.069,4.1488,4.2123,4.197,4.3133,4.4059,4.4372,4.4533,4.461,4.461,4.5187,4.6034,4.7127,4.745,4.8224,4.9592,5.0589,5.1459,5.2272,5.3093,5.3501,5.3501,5.3501,5.3501,5.3501,5.3501,5.3501,5.3501,5.3501,5.3501,5.3501,5.3501,5.3501,5.3501,5.3501,5.3501,5.3501,5.3501,5.3501,5.3501,5.3501,5.3501,5.3501,5.3501,5.3501,5.3501,5.3501,5.3501,5.3501,5.3501,5.3501,5.3501,5.3501,5.3501,5.3501,5.3501,5.3501,5.3534,5.3651,5.4059,5.4499,5.4713,5.5309,5.5984,5.6765,5.7015,5.7259,5.775,5.7927,5.7997,5.7997,5.7997,5.7997,5.7997,5.7997,5.7997,5.7997,5.7997,5.7997,5.7997,5.7997,5.7997,5.7997,5.7997,5.7997,5.7997,5.7997,5.7997,5.7997,5.7997,5.7997,5.7997,5.7997,5.7997,5.7997,5.7997,5.7997,4.0808,4.136,4.1917,4.2078,4.1885,4.1772,4.2078,0.0,4.2173,4.2205,0.0,4.1142,4.1142,0.0,0.0,3.9509,4.0692,4.1458,4.0812,4.192,4.3011,4.3655,4.4255,4.461,4.461,4.5187,4.5649,4.5803,4.6927,4.7967,4.8904,5.03,5.1459,5.2272,5.3093,5.3501,5.3501,5.3501,5.3501,5.3501,5.3501,5.3501,5.3501,5.3501,5.3501,5.3501,5.3501,5.3501,5.3501,5.3501,5.3501,5.3501,5.3501,5.3501,5.3501,5.3501,5.3501,5.3501,5.3501,5.3501,5.3501,5.3501,5.3501,5.3501,5.3501,5.3501,5.3501,5.3501,5.3501,5.3501,5.3501,5.3501,5.3634,5.4171,5.4437,5.4743,5.5279,5.6095,5.6765,5.6887,5.7425,5.7886,5.7973,5.7997,5.7997,5.7997,5.7997,5.7997,5.7997,5.7997,5.7997,5.7997,5.7997,5.7997,5.7997,5.7997,5.7997,5.7997,5.7997,5.7997,5.7997,5.7997,5.7997,5.7997,5.7997,5.7997,5.7997,5.7997,5.7997,5.7997,5.7997,5.7997,4.0668,4.116,4.1754,4.2332,4.2473,4.2519,4.2816,4.2939,4.2892,4.2583,0.0,0.0,0.0,0.0,0.0,0.0,4.1671,4.2005,4.1688,4.2189,4.268,4.2998,4.3624,4.4178,4.4579,4.4872,4.5348,4.6178,4.6762,4.7978,5.003,5.0736,5.1669,5.2972,5.3314,5.3501,5.3501,5.3501,5.3501,5.3501,5.3501,5.3501,5.3501,5.3501,5.3501,5.3501,5.3501,5.3501,5.3501,5.3501,5.3501,5.3501,5.3501,5.3501,5.3501,5.3501,5.3501,5.3501,5.3501,5.3501,5.3501,5.3501,5.3501,5.3501,5.3501,5.3501,5.3501,5.3501,5.375,5.3946,5.3584,5.4028,5.4551,5.4422,5.5022,5.5709,5.613,5.6765,5.7351,5.7516,5.7774,5.7997,5.7997,5.7997,5.7997,5.7997,5.7997,5.7997,5.7997,5.7997,5.7997,5.7997,5.7997,5.7997,5.7997,5.7997,5.7997,5.7997,5.7997,5.7997,5.7997,5.7997,5.7997,5.7997,5.7997,5.7997,5.7997,5.7997,5.7997,5.7997,5.7997,5.7997,4.0634,4.1127,4.1739,4.2395,4.2909,4.3259,4.3229,4.3439,4.3529,4.3092,4.2847,0.0,0.0,0.0,4.2456,4.2261,0.0,4.2456,4.2245,4.2268,4.2362,4.2574,4.3194,4.3945,4.4834,4.4723,4.521,4.6627,4.6703,4.793,5.0697,5.098,5.1826,5.345,5.3501,5.3501,5.3501,5.3501,5.3501,5.3501,5.3501,5.3501,5.3501,5.3501,5.3501,5.3501,5.3501,5.3501,5.3501,5.3501,5.3501,5.3501,5.3501,5.3501,5.3501,5.3501,5.3501,5.3501,5.3501,5.3501,5.3501,5.3501,5.3501,5.3501,5.3501,5.3618,5.375,5.375,5.4188,5.4548,5.4141,5.4724,5.5325,5.4991,5.5669,5.651,5.6853,5.7345,5.7768,5.7973,5.7997,5.7997,5.7997,5.7997,5.7997,5.7997,5.7997,5.7997,5.7997,5.7997,5.7997,5.7997,5.7997,5.7997,5.7997,5.7997,5.7997,5.7997,5.7997,5.7997,5.7997,5.7997,5.7997,5.7997,5.7997,5.7997,5.7997,5.7997,5.7997,5.7997,5.7997,5.7997,4.0531,4.1227,4.1819,4.1981,4.2941,4.3717,4.3136,4.3575,4.4126,4.4207,4.3739,4.329,4.3453,4.2953,0.0,0.0,0.0,0.0,0.0,4.1518,4.1808,4.2501,4.3174,4.4136,4.5525,4.503,4.5216,4.6671,4.6745,4.7706,5.0004,5.075,5.1826,5.345,5.3501,5.3501,5.3501,5.3501,5.3501,5.3501,5.3501,5.3501,5.3501,5.3501,5.3501,5.3501,5.3501,5.3501,5.3501,5.3501,5.3501,5.3501,5.3501,5.3501,5.3501,5.3501,5.3501,5.3501,5.3501,5.3501,5.3501,5.3501,5.3501,5.3501,5.3501,5.3931,5.4359,5.4359,5.4857,5.5355,5.5325,5.5355,5.5531,5.6118,5.6483,5.6853,5.7437,5.7792,5.7997,5.7997,5.7997,5.7997,5.7997,5.7997,5.7997,5.7997,5.7997,5.7997,5.7997,5.7997,5.7997,5.7997,5.7997,5.7997,5.7997,5.7997,5.7997,5.7997,5.7997,5.7997,5.7997,5.7997,5.7997,5.7997,5.7997,5.7997,5.7997,5.7997,5.7997,5.7997,5.7997,5.7997,4.1088,4.1328,4.1674,4.2124,4.3071,4.3945,4.4297,4.4696,4.4992,4.5183,4.4663,4.4179,4.4207,4.4047,0.0,0.0,0.0,0.0,0.0,4.2762,4.2269,4.257,4.3611,4.4678,4.5624,4.5911,4.6464,4.7456,4.7501,4.8264,5.0003,5.0775,5.1647,5.2689,5.323,5.3501,5.3501,5.3501,5.3501,5.3501,5.3501,5.3501,5.3501,5.3501,5.3501,5.3501,5.3501,5.3501,5.3501,5.3501,5.3501,5.3501,5.3501,5.3501,5.3501,5.3501,5.3501,5.3501,5.3501,5.3501,5.3501,5.3501,5.3501,5.3584,5.3979,5.4218,5.4485,5.4948,5.5513,5.5904,5.5502,5.5989,5.6555,5.6339,5.674,5.7245,5.7553,5.7745,5.7886,5.7973,5.7997,5.7997,5.7997,5.7997,5.7997,5.7997,5.7997,5.7997,5.7997,5.7997,5.7997,5.7997,5.7997,5.7997,5.7997,5.7997,5.7997,5.7997,5.7997,5.7997,5.7997,5.7997,5.7997,5.7997,5.7997,5.7997,5.7997,5.7997,5.7997,5.7997,5.7997,5.7997,4.1693,4.1768,4.1864,4.2312,4.3251,4.4093,4.4228,4.4959,4.5647,4.56,4.5219,4.4902,4.4976,4.4784,4.4615,0.0,0.0,0.0,0.0,4.3663,4.318,4.2929,4.3522,4.4425,4.5612,4.613,4.6943,4.8176,4.8064,4.8542,5.0019,5.0811,5.1555,5.2283,5.3078,5.3501,5.3501,5.3501,5.3501,5.3501,5.3501,5.3501,5.3501,5.3501,5.3501,5.3501,5.3501,5.3501,5.3501,5.3501,5.3501,5.3501,5.3501,5.3501,5.3501,5.3501,5.3501,5.3501,5.3501,5.3501,5.3501,5.3501,5.3651,5.3898,5.4281,5.4717,5.5172,5.5589,5.6156,5.6528,5.6128,5.6635,5.7112,5.6767,5.7094,5.7504,5.7649,5.7768,5.7904,5.7973,5.7997,5.7997,5.7997,5.7997,5.7997,5.7997,5.7997,5.7997,5.7997,5.7997,5.7997,5.7997,5.7997,5.7997,5.7997,5.7997,5.7997,5.7997,5.7997,5.7997,5.7997,5.7997,5.7997,5.7997,5.7997,5.7997,5.7997,5.7997,5.7997,5.7997,5.7997,5.7997]}]]